[[{"header":{"parameterUnit":"m.s-1","parameterCategory":1,"la1":30.6,"la2":29.2853,"lo1":-89.7004,"lo2":-87.6739,"dy":0.0162,"dx":0.0183,"nx":112,"ny":82,"refTime":"2024-10-05T12:00:00:Z","depth":0,"parameterNumber":2,"parameterNumberName":"U-component_of_WINDS"},"data":[0.0,0.0,0.0,0.0,0.0,0.0,0.0,0.0,0.0,0.0,0.0,0.0,0.0,0.0,0.0,0.0,0.0,0.0,0.0,0.0,0.0,0.0,0.0,0.0,0.0,0.0,0.0,0.0,0.0,0.0,0.0,0.0,0.0,0.0,0.0,0.0,0.0,0.0,0.0,0.0,0.0,0.0,0.0,0.0,0.0,0.0,0.0,0.0,0.0,0.0,0.0,0.0,0.0,0.0,0.0,0.0,0.0,0.0,0.0,0.0,0.0,0.0,0.0,0.0,0.0,0.0,0.0,0.0,0.0,0.0,0.0,0.0,0.0,0.0,0.0,0.0,0.0,0.0,0.0,0.0,0.0,0.0,0.0,0.0,0.0,0.0,0.0,0.0,0.0,0.0,4.7388,5.1311,5.55,5.7663,5.6899,5.6489,5.3153,4.5755,0.0,0.0,0.0,0.0,0.0,0.0,0.0,0.0,0.0,0.0,0.0,0.0,0.0,0.0,0.0,0.0,0.0,0.0,0.0,0.0,0.0,0.0,0.0,0.0,0.0,0.0,0.0,0.0,0.0,0.0,0.0,0.0,0.0,0.0,0.0,0.0,0.0,0.0,0.0,0.0,0.0,0.0,0.0,0.0,0.0,0.0,0.0,0.0,0.0,0.0,0.0,0.0,0.0,0.0,0.0,0.0,0.0,0.0,0.0,0.0,0.0,0.0,0.0,0.0,0.0,0.0,0.0,0.0,0.0,0.0,0.0,0.0,0.0,0.0,0.0,0.0,0.0,0.0,0.0,0.0,0.0,0.0,0.0,0.0,0.0,0.0,0.0,0.0,0.0,0.0,0.0,0.0,0.0,0.0,0.0,0.0,0.0,0.0,0.0,0.0,0.0,0.0,0.0,0.0,4.8453,5.5165,5.7152,5.7707,5.6958,5.566,5.2251,4.6032,0.0,0.0,0.0,0.0,0.0,0.0,0.0,0.0,0.0,0.0,0.0,0.0,0.0,0.0,0.0,0.0,0.0,0.0,0.0,0.0,0.0,0.0,0.0,0.0,0.0,0.0,0.0,0.0,0.0,0.0,0.0,0.0,0.0,0.0,0.0,0.0,0.0,0.0,0.0,0.0,0.0,0.0,0.0,0.0,0.0,0.0,0.0,0.0,0.0,0.0,0.0,0.0,0.0,0.0,0.0,0.0,0.0,0.0,0.0,0.0,0.0,0.0,0.0,0.0,0.0,0.0,0.0,0.0,0.0,0.0,0.0,0.0,0.0,0.0,0.0,0.0,0.0,0.0,0.0,0.0,0.0,0.0,0.0,0.0,0.0,0.0,0.0,0.0,0.0,0.0,0.0,0.0,0.0,0.0,0.0,0.0,0.0,0.0,0.0,0.0,0.0,0.0,0.0,4.7462,5.0839,5.6822,5.743,5.7114,5.6356,5.4805,5.1164,4.4916,4.1643,0.0,0.0,0.0,0.0,0.0,0.0,0.0,0.0,0.0,0.0,0.0,0.0,0.0,0.0,0.0,0.0,0.0,0.0,0.0,0.0,0.0,0.0,0.0,0.0,0.0,0.0,0.0,0.0,0.0,0.0,0.0,0.0,0.0,0.0,0.0,0.0,0.0,0.0,0.0,0.0,0.0,0.0,0.0,0.0,0.0,0.0,0.0,0.0,0.0,0.0,0.0,0.0,0.0,0.0,0.0,0.0,0.0,0.0,0.0,0.0,0.0,0.0,0.0,0.0,0.0,0.0,0.0,0.0,0.0,0.0,0.0,0.0,0.0,0.0,0.0,0.0,0.0,0.0,0.0,0.0,0.0,0.0,0.0,0.0,0.0,0.0,0.0,0.0,0.0,0.0,0.0,0.0,0.0,0.0,0.0,0.0,0.0,0.0,0.0,0.0,0.0,0.0,5.147,5.3268,5.7346,5.7122,5.6306,5.5398,5.308,4.9273,4.3594,3.9254,0.0,0.0,0.0,0.0,0.0,0.0,0.0,0.0,0.0,0.0,0.0,0.0,0.0,0.0,0.0,0.0,0.0,0.0,0.0,0.0,0.0,0.0,0.0,0.0,0.0,0.0,0.0,0.0,0.0,0.0,0.0,0.0,0.0,0.0,0.0,0.0,0.0,0.0,0.0,0.0,0.0,0.0,0.0,0.0,0.0,0.0,0.0,0.0,0.0,0.0,0.0,0.0,0.0,0.0,0.0,0.0,0.0,0.0,0.0,0.0,0.0,0.0,0.0,0.0,0.0,0.0,0.0,0.0,0.0,0.0,0.0,0.0,0.0,0.0,0.0,0.0,0.0,0.0,0.0,0.0,0.0,0.0,0.0,0.0,0.0,0.0,0.0,0.0,0.0,0.0,0.0,0.0,0.0,0.0,0.0,0.0,0.0,0.0,0.0,0.0,0.0,0.0,5.1999,5.5112,5.6979,5.6516,5.5462,5.3976,4.9784,4.5866,4.2581,3.5672,0.0,0.0,0.0,0.0,0.0,0.0,0.0,0.0,0.0,0.0,0.0,0.0,0.0,0.0,0.0,0.0,0.0,0.0,0.0,0.0,0.0,0.0,0.0,0.0,0.0,0.0,0.0,0.0,0.0,0.0,0.0,0.0,0.0,0.0,0.0,0.0,0.0,0.0,0.0,0.0,0.0,0.0,0.0,0.0,0.0,0.0,0.0,0.0,0.0,0.0,0.0,0.0,0.0,0.0,0.0,0.0,0.0,0.0,0.0,0.0,0.0,0.0,0.0,0.0,0.0,0.0,0.0,0.0,0.0,0.0,0.0,0.0,0.0,0.0,0.0,0.0,0.0,0.0,0.0,0.0,0.0,0.0,0.0,0.0,0.0,0.0,0.0,0.0,0.0,0.0,0.0,0.0,0.0,0.0,0.0,0.0,0.0,0.0,0.0,0.0,0.0,0.0,5.0606,5.349,5.6645,5.5872,5.4533,5.3011,5.041,4.6407,4.062,0.0,0.0,0.0,0.0,0.0,0.0,0.0,0.0,0.0,0.0,0.0,0.0,0.0,0.0,0.0,0.0,0.0,0.0,0.0,0.0,0.0,0.0,0.0,0.0,0.0,0.0,0.0,0.0,0.0,0.0,0.0,0.0,0.0,0.0,0.0,0.0,0.0,0.0,0.0,0.0,0.0,0.0,0.0,0.0,0.0,0.0,0.0,0.0,0.0,0.0,0.0,0.0,0.0,0.0,0.0,0.0,0.0,0.0,0.0,0.0,0.0,0.0,0.0,0.0,0.0,0.0,0.0,0.0,0.0,0.0,0.0,0.0,0.0,0.0,0.0,0.0,0.0,0.0,0.0,0.0,0.0,0.0,0.0,0.0,0.0,0.0,0.0,0.0,0.0,0.0,0.0,0.0,0.0,0.0,0.0,0.0,0.0,0.0,0.0,0.0,0.0,0.0,4.7222,5.0019,5.2707,5.5964,5.5104,5.3723,5.2237,4.9782,4.5684,3.9383,0.0,0.0,0.0,0.0,0.0,0.0,0.0,0.0,0.0,0.0,0.0,0.0,0.0,0.0,0.0,0.0,0.0,0.0,0.0,0.0,0.0,0.0,0.0,0.0,0.0,0.0,0.0,0.0,0.0,0.0,0.0,0.0,0.0,0.0,0.0,0.0,0.0,0.0,0.0,0.0,0.0,0.0,0.0,0.0,0.0,0.0,0.0,0.0,0.0,0.0,0.0,0.0,0.0,0.0,0.0,0.0,0.0,0.0,0.0,0.0,0.0,0.0,0.0,0.0,0.0,0.0,0.0,0.0,0.0,0.0,0.0,0.0,0.0,0.0,0.0,0.0,0.0,0.0,0.0,0.0,0.0,0.0,0.0,0.0,0.0,0.0,0.0,0.0,0.0,0.0,0.0,0.0,0.0,0.0,0.0,0.0,0.0,0.0,0.0,0.0,0.0,0.0,4.6865,5.059,5.3387,5.4939,5.4259,5.3105,5.1617,4.7276,4.3017,0.0,0.0,0.0,0.0,0.0,0.0,0.0,0.0,0.0,0.0,0.0,0.0,0.0,0.0,0.0,0.0,0.0,0.0,0.0,0.0,0.0,0.0,0.0,0.0,0.0,0.0,0.0,0.0,0.0,0.0,0.0,0.0,0.0,0.0,0.0,0.0,0.0,0.0,0.0,0.0,0.0,0.0,0.0,0.0,0.0,0.0,0.0,0.0,0.0,0.0,0.0,0.0,0.0,0.0,0.0,0.0,0.0,0.0,0.0,0.0,0.0,0.0,0.0,0.0,0.0,0.0,0.0,0.0,0.0,0.0,0.0,0.0,0.0,0.0,0.0,0.0,0.0,0.0,0.0,0.0,0.0,0.0,0.0,0.0,0.0,0.0,0.0,0.0,0.0,0.0,0.0,0.0,0.0,0.0,0.0,0.0,0.0,0.0,0.0,0.0,0.0,0.0,0.0,4.6706,5.0399,5.3132,5.4587,5.4009,5.295,5.1417,4.9083,4.4993,3.8633,0.0,0.0,0.0,0.0,0.0,0.0,0.0,0.0,0.0,0.0,0.0,0.0,0.0,0.0,0.0,0.0,0.0,0.0,0.0,0.0,0.0,0.0,0.0,0.0,0.0,0.0,0.0,0.0,0.0,0.0,0.0,0.0,0.0,0.0,0.0,0.0,0.0,0.0,0.0,0.0,0.0,0.0,0.0,0.0,0.0,0.0,0.0,0.0,0.0,0.0,0.0,0.0,0.0,0.0,0.0,0.0,0.0,0.0,0.0,0.0,0.0,0.0,0.0,0.0,0.0,0.0,0.0,0.0,0.0,0.0,0.0,0.0,0.0,0.0,0.0,0.0,0.0,0.0,0.0,0.0,0.0,0.0,0.0,0.0,0.0,0.0,0.0,0.0,0.0,0.0,0.0,0.0,0.0,0.0,0.0,0.0,0.0,0.0,0.0,0.0,0.0,0.0,4.6235,4.9927,5.264,5.4076,5.3808,5.2866,5.1336,5.0127,4.638,3.9248,0.0,0.0,0.0,0.0,0.0,0.0,0.0,0.0,0.0,0.0,0.0,0.0,0.0,0.0,0.0,0.0,0.0,0.0,0.0,0.0,0.0,0.0,0.0,0.0,0.0,0.0,0.0,0.0,0.0,0.0,0.0,0.0,0.0,0.0,0.0,0.0,0.0,0.0,0.0,0.0,0.0,0.0,0.0,0.0,0.0,0.0,0.0,0.0,0.0,0.0,0.0,0.0,0.0,0.0,0.0,0.0,0.0,0.0,0.0,0.0,0.0,0.0,0.0,0.0,0.0,0.0,0.0,0.0,0.0,0.0,0.0,0.0,0.0,0.0,0.0,0.0,0.0,0.0,0.0,0.0,0.0,0.0,0.0,0.0,0.0,0.0,0.0,0.0,0.0,0.0,0.0,0.0,0.0,0.0,0.0,0.0,0.0,0.0,0.0,0.0,0.0,0.0,4.5634,4.9321,5.2051,5.3522,5.3576,5.2866,5.1336,5.0507,4.7308,4.0716,0.0,0.0,0.0,0.0,0.0,0.0,0.0,0.0,0.0,0.0,0.0,0.0,0.0,0.0,0.0,0.0,0.0,0.0,0.0,0.0,0.0,0.0,0.0,0.0,0.0,0.0,0.0,0.0,0.0,0.0,0.0,0.0,0.0,0.0,0.0,0.0,0.0,0.0,0.0,0.0,0.0,0.0,0.0,0.0,0.0,0.0,0.0,0.0,0.0,0.0,0.0,0.0,0.0,0.0,0.0,0.0,0.0,0.0,0.0,0.0,4.4946,4.2314,0.0,0.0,0.0,0.0,0.0,0.0,0.0,0.0,0.0,0.0,0.0,0.0,0.0,0.0,0.0,0.0,0.0,0.0,0.0,0.0,0.0,0.0,0.0,0.0,0.0,0.0,0.0,0.0,0.0,0.0,0.0,0.0,0.0,0.0,0.0,0.0,0.0,0.0,0.0,0.0,4.5161,4.9088,5.2011,5.3382,5.3534,5.2866,5.1336,5.0507,4.7748,4.2191,3.9039,0.0,0.0,0.0,0.0,0.0,0.0,0.0,0.0,0.0,0.0,0.0,0.0,0.0,0.0,0.0,0.0,0.0,0.0,0.0,0.0,0.0,0.0,0.0,0.0,0.0,0.0,0.0,0.0,0.0,0.0,0.0,0.0,0.0,0.0,0.0,0.0,0.0,0.0,0.0,0.0,0.0,0.0,0.0,0.0,0.0,0.0,0.0,0.0,0.0,0.0,0.0,0.0,0.0,0.0,0.0,0.0,0.0,0.0,0.0,5.0013,4.7773,0.0,0.0,0.0,0.0,0.0,0.0,0.0,0.0,0.0,0.0,0.0,0.0,0.0,0.0,0.0,0.0,0.0,0.0,0.0,0.0,0.0,0.0,0.0,0.0,0.0,0.0,0.0,0.0,0.0,0.0,0.0,0.0,0.0,0.0,0.0,0.0,0.0,0.0,0.0,0.0,4.5405,4.9095,5.1924,5.3357,5.3509,5.2866,5.1336,5.0837,4.8714,4.4215,4.1806,0.0,0.0,0.0,0.0,0.0,0.0,0.0,0.0,0.0,0.0,0.0,0.0,0.0,0.0,0.0,0.0,0.0,0.0,0.0,0.0,0.0,0.0,0.0,0.0,0.0,0.0,0.0,0.0,0.0,0.0,0.0,0.0,0.0,0.0,0.0,0.0,0.0,0.0,0.0,0.0,0.0,0.0,0.0,0.0,0.0,0.0,0.0,0.0,0.0,0.0,0.0,0.0,0.0,5.6963,5.7908,5.8778,5.9675,6.0393,6.0661,5.5926,5.4617,5.5491,5.102,0.0,0.0,0.0,0.0,0.0,0.0,0.0,0.0,0.0,0.0,0.0,0.0,0.0,0.0,0.0,0.0,0.0,0.0,0.0,0.0,0.0,0.0,4.8316,4.8775,5.0507,5.0325,4.3983,0.0,0.0,0.0,0.0,0.0,0.0,0.0,0.0,0.0,0.0,0.0,4.6123,4.9434,5.1919,5.3348,5.3509,5.2934,5.1505,5.137,4.9924,4.6508,4.485,4.251,0.0,0.0,0.0,0.0,0.0,0.0,0.0,0.0,0.0,0.0,0.0,0.0,0.0,0.0,0.0,0.0,0.0,0.0,0.0,0.0,0.0,0.0,0.0,0.0,0.0,0.0,0.0,0.0,0.0,0.0,0.0,0.0,4.3726,4.5339,0.0,0.0,0.0,0.0,0.0,0.0,0.0,0.0,0.0,0.0,0.0,0.0,0.0,5.4209,5.6578,5.8956,6.0869,6.2388,6.4662,6.6149,6.6967,6.7088,6.7566,6.8225,6.6805,0.0,5.7468,5.6023,0.0,0.0,0.0,0.0,0.0,0.0,0.0,0.0,0.0,0.0,0.0,0.0,0.0,0.0,0.0,0.0,0.0,0.0,0.0,0.0,0.0,0.0,5.5451,5.5517,5.6314,5.6381,5.4043,4.8636,4.3347,4.0264,3.8664,3.7072,0.0,0.0,0.0,0.0,0.0,0.0,4.7377,5.0388,5.2503,5.3416,5.3509,5.3137,5.2224,5.2156,5.1141,4.8706,4.7158,4.5541,4.3795,4.0398,0.0,0.0,0.0,0.0,0.0,0.0,0.0,0.0,0.0,0.0,0.0,0.0,0.0,0.0,0.0,0.0,0.0,0.0,0.0,0.0,0.0,0.0,0.0,0.0,0.0,0.0,0.0,0.0,0.0,4.3836,4.6993,4.7089,4.7993,4.7468,0.0,0.0,0.0,0.0,0.0,0.0,0.0,0.0,0.0,5.7875,5.9282,6.0953,6.3002,6.4965,6.6339,6.7045,6.8605,6.949,6.9862,6.9862,7.0054,7.0344,7.001,6.7834,6.4303,6.1314,5.8063,5.4785,0.0,0.0,0.0,0.0,5.3717,5.3815,5.6743,5.6894,5.557,5.4108,0.0,0.0,0.0,0.0,0.0,0.0,0.0,5.1138,5.2781,5.5365,5.7808,5.8632,5.8829,5.8645,5.7947,5.4296,4.9822,4.5281,4.4126,4.2393,3.7645,3.7496,0.0,0.0,0.0,4.5391,4.8229,5.0775,5.2604,5.3408,5.3509,5.3171,5.2367,5.23,5.1716,5.0322,4.9221,4.818,4.7131,4.4282,4.1502,0.0,0.0,0.0,0.0,0.0,0.0,0.0,0.0,0.0,0.0,0.0,0.0,0.0,0.0,0.0,0.0,0.0,0.0,0.0,0.0,0.0,0.0,0.0,0.0,0.0,0.0,0.0,0.0,4.6716,4.9499,4.8958,5.1137,5.0992,0.0,0.0,0.0,0.0,0.0,0.0,5.6427,5.8581,6.0847,6.3299,6.5113,6.6748,6.8196,6.9422,7.0128,7.0357,7.0951,7.136,7.1539,7.1539,7.1539,7.1539,7.1539,7.1094,7.0004,6.5945,6.2939,6.0713,5.8826,5.7614,5.7186,5.8982,5.9436,5.9609,6.3087,6.3311,6.1875,6.0411,5.8375,5.5837,5.2278,0.0,0.0,0.0,0.0,5.5275,5.6792,5.8136,5.9412,6.0688,6.0548,6.0072,5.9849,5.8376,5.5448,4.9919,4.8929,4.7208,4.1551,4.1475,0.0,4.1825,4.4538,4.7409,4.9567,5.1446,5.2841,5.345,5.3509,5.3272,5.2672,5.2604,5.2291,5.1539,5.0777,5.0033,4.9323,4.7353,4.5019,4.2381,0.0,0.0,0.0,0.0,0.0,0.0,0.0,0.0,0.0,0.0,0.0,0.0,0.0,0.0,0.0,0.0,0.0,0.0,0.0,0.0,0.0,0.0,0.0,0.0,0.0,0.0,0.0,0.0,0.0,5.1964,5.4556,0.0,0.0,0.0,0.0,5.5741,5.7332,5.9993,6.4036,6.5151,6.6785,6.9199,6.9379,6.9868,7.0716,7.079,7.1248,7.2054,7.2122,7.2531,7.3274,7.3274,7.3274,7.3274,7.3274,7.2828,7.1862,6.9261,6.7254,6.5662,6.4708,6.4053,6.3585,6.3413,6.4006,6.4864,6.48,6.4213,6.373,6.5211,6.2944,5.9616,5.9229,5.754,0.0,0.0,5.7788,5.9427,6.0939,6.1349,6.1637,6.2462,6.2238,6.1571,6.079,6.0065,5.8145,5.345,5.1381,4.9617,4.7166,0.0,4.6116,4.7454,4.8346,4.9635,5.186,5.2909,5.345,5.3509,5.3509,5.3475,5.3441,5.345,5.3103,5.23,5.1547,5.0803,5.0075,4.8605,4.7041,4.5493,4.1792,0.0,0.0,0.0,0.0,0.0,0.0,0.0,0.0,0.0,0.0,0.0,0.0,0.0,0.0,0.0,0.0,0.0,0.0,0.0,0.0,0.0,0.0,0.0,0.0,0.0,0.0,0.0,0.0,5.6714,5.9,0.0,5.6145,5.7275,5.8997,6.0896,6.3013,6.5336,6.7819,6.9286,7.0407,7.1298,7.1818,7.2227,7.2518,7.2518,7.2673,7.2977,7.2977,7.3125,7.3385,7.3385,7.3385,7.3385,7.3385,7.3237,7.2902,7.2004,7.0698,6.9162,6.8865,6.8615,6.8462,6.8356,6.8547,6.8803,6.817,6.7416,6.6599,6.5596,6.4202,6.2824,6.2265,6.1726,6.1348,6.1523,6.2365,6.3216,6.3228,6.3215,6.3054,6.24,6.1723,6.1063,6.0386,5.9237,5.7853,5.6107,5.4456,5.2297,4.9058,4.8942,4.902,4.8098,4.9786,5.142,5.2198,5.3002,5.3509,5.3509,5.3509,5.3509,5.3509,5.3044,5.2604,5.2334,5.115,5.0379,5.0109,4.9146,4.7894,4.6455,4.4161,4.065,0.0,0.0,0.0,0.0,0.0,0.0,0.0,0.0,0.0,0.0,0.0,0.0,0.0,0.0,0.0,0.0,0.0,0.0,0.0,0.0,0.0,0.0,0.0,0.0,0.0,5.4572,5.8043,5.9255,6.225,6.3152,6.0326,6.2528,6.4667,6.5974,6.7868,6.9546,7.0877,7.2004,7.2611,7.2611,7.3125,7.3385,7.3385,7.3385,7.3385,7.3385,7.3385,7.3385,7.3385,7.3385,7.3385,7.3385,7.3385,7.3385,7.3385,7.3385,7.2747,7.1731,7.1731,7.1731,7.1694,7.1434,7.1168,7.0753,6.9676,6.8909,6.8167,6.6534,6.5888,6.5625,6.4763,6.4968,6.5377,6.5068,6.5323,6.5588,6.5051,6.4505,6.3822,6.2615,6.1601,6.0759,6.0044,5.8884,5.7938,5.7703,5.6358,5.4452,5.1847,5.1917,5.1852,5.0397,5.1615,5.2697,5.2697,5.3171,5.3509,5.3509,5.3509,5.3374,5.3103,5.2367,5.1919,5.1919,5.0264,4.9396,4.9658,4.8422,4.7252,4.6267,4.4291,4.1276,3.7161,0.0,0.0,0.0,0.0,0.0,0.0,0.0,0.0,0.0,0.0,0.0,0.0,0.0,0.0,0.0,0.0,0.0,0.0,0.0,0.0,0.0,0.0,0.0,5.3625,5.6902,5.9398,5.9658,6.423,6.6151,6.3075,6.7018,7.0084,7.0864,7.1744,7.2568,7.3348,7.3385,7.3385,7.3385,7.3385,7.3385,7.3385,7.3385,7.3385,7.3385,7.3385,7.3385,7.3385,7.3385,7.3385,7.3385,7.3385,7.3385,7.3385,7.3385,7.3385,7.3385,7.3385,7.3385,7.3311,7.2531,7.1657,7.0666,6.9076,6.8433,6.829,6.829,6.8215,6.7903,6.6994,6.728,6.7689,6.6772,6.6549,6.6549,6.6493,6.5373,6.4049,6.3245,6.204,6.0825,5.9875,5.9199,5.8666,5.8294,5.7049,5.5985,5.5768,5.5108,5.4642,5.4642,5.4025,0.0,5.3543,5.3509,5.3509,5.3509,5.3509,5.3171,5.2367,5.1615,5.1167,5.1133,4.8996,4.8034,4.8718,4.6529,4.5258,4.5228,4.2264,3.9968,3.8386,0.0,0.0,0.0,0.0,0.0,0.0,0.0,0.0,0.0,0.0,0.0,0.0,0.0,0.0,0.0,0.0,0.0,0.0,0.0,0.0,0.0,5.4134,5.7429,5.7555,6.0828,6.3918,6.5794,6.7815,6.8908,6.8635,7.0376,7.1595,7.1818,7.2605,7.3162,7.3385,7.3385,7.3385,7.3385,7.3385,7.3385,7.3385,7.3385,7.3385,7.3385,7.3385,7.3385,7.3385,7.3385,7.3385,7.3385,7.3385,7.3385,7.3385,7.3385,7.3385,7.3385,7.3385,7.3385,7.3372,7.3038,7.1933,7.0465,6.9442,6.8683,6.8133,6.8133,6.8044,6.7928,6.7668,6.7656,6.7717,6.745,6.7363,6.7123,6.5983,6.5372,6.4476,6.2184,6.1375,6.0737,5.933,5.8814,5.8508,5.8268,5.7757,5.72,5.6596,5.5877,5.5403,5.5403,5.4769,5.4304,5.4304,5.3822,5.3509,5.3509,5.3509,5.3171,5.2367,5.1615,5.0728,4.9687,4.8499,4.7874,4.792,4.7303,4.6627,4.5925,4.2823,4.0992,0.0,0.0,0.0,0.0,0.0,0.0,0.0,0.0,0.0,0.0,0.0,0.0,0.0,0.0,0.0,0.0,0.0,0.0,0.0,0.0,0.0,0.0,5.8986,6.2128,6.2465,6.473,6.7008,6.8791,7.0023,7.092,7.1403,7.219,7.2679,7.2679,7.3125,7.3385,7.3385,7.3385,7.3385,7.3385,7.3385,7.3385,7.3385,7.3385,7.3385,7.3385,7.3385,7.3385,7.3385,7.3385,7.3385,7.3385,7.3385,7.3353,7.3331,7.3331,7.3298,7.3258,0.0,0.0,0.0,0.0,7.144,7.039,6.9584,6.8961,6.8576,6.8915,6.8706,6.8329,6.8329,6.8018,6.7653,6.7371,6.7265,6.7008,6.5783,6.5297,6.4555,6.2472,6.1775,6.1077,5.9369,5.8924,5.8687,5.8167,5.7972,0.0,5.734,5.6655,5.6147,5.6147,5.5539,5.5074,5.5074,5.4431,5.3957,5.3957,5.3687,5.3171,5.2367,5.1615,0.0,0.0,0.0,4.7275,4.6346,4.6002,0.0,0.0,0.0,0.0,0.0,4.3353,0.0,0.0,4.1236,4.1814,0.0,0.0,0.0,0.0,0.0,0.0,0.0,0.0,0.0,0.0,0.0,0.0,0.0,0.0,0.0,0.0,6.343,6.6636,6.7565,6.8419,6.9162,6.975,7.1224,7.224,7.2314,7.2977,7.3385,7.3385,7.3385,7.3385,7.3385,7.3385,0.0,0.0,0.0,7.3385,7.3385,7.3385,7.3385,7.3385,7.3385,7.3385,7.3385,7.3385,7.3385,7.3385,7.3385,7.3344,7.3219,7.3205,7.3118,7.3023,7.3278,7.3327,7.3115,7.1433,7.0697,7.0448,6.9562,0.0,0.0,6.9934,6.9589,6.8892,6.8892,6.8348,6.7542,6.6903,6.6692,6.6529,6.5713,6.5056,6.433,6.3319,6.2634,6.1707,5.9833,5.941,5.9152,5.8198,5.8026,5.7992,5.7924,5.7349,5.6934,5.6934,5.6316,5.5834,5.5834,5.5175,5.471,5.471,5.4126,0.0,5.2638,5.1886,5.1061,5.0183,4.8601,4.6927,4.5205,4.4515,4.5,4.6705,4.6171,4.7048,4.9506,4.9424,4.9498,4.9539,4.5173,4.4744,0.0,0.0,0.0,0.0,0.0,0.0,0.0,0.0,0.0,0.0,0.0,0.0,0.0,0.0,0.0,6.3451,6.6292,6.8531,7.001,7.0958,7.1292,7.0716,7.1552,7.2463,7.3088,7.3311,7.3385,7.3385,7.3385,7.3385,7.3385,7.3385,7.3385,7.3385,7.3385,7.3385,7.3385,7.3385,7.3385,7.3385,7.3385,0.0,7.3385,7.3385,7.3385,7.3385,7.3385,7.341,7.3333,7.3245,7.3118,7.3003,7.3057,7.2996,7.2731,7.1715,7.1273,7.0958,6.9488,6.9401,6.9821,6.9343,6.9059,6.8892,6.8892,6.8348,0.0,6.6903,6.6692,6.6389,6.5122,6.4712,6.4235,6.2761,6.2305,6.1844,6.0489,6.0202,5.9899,5.8958,5.8786,5.8592,5.7992,5.7789,5.7688,5.7688,5.707,5.6596,5.6596,5.5944,5.5505,5.5505,5.5361,5.4964,5.4236,5.3484,5.2656,5.1647,5.0347,4.9408,4.9013,4.9028,4.8964,4.882,4.9111,4.9494,5.0039,5.0029,5.0589,5.16,5.0135,5.0061,0.0,0.0,0.0,0.0,0.0,0.0,0.0,0.0,0.0,0.0,0.0,5.4317,5.7263,0.0,6.375,6.645,6.8495,6.9979,7.079,7.1663,7.2048,7.1589,7.2301,7.2946,7.3348,7.3385,7.3385,7.3385,7.3385,7.3385,7.3385,7.3385,7.3385,7.3385,7.3385,7.3385,7.3385,7.3385,7.3385,7.3385,7.3385,7.3385,7.3385,7.3385,7.3385,7.3385,7.3385,7.3307,7.3192,7.2968,7.283,7.2767,7.2767,7.2716,7.2599,7.1803,7.1411,7.1197,7.0389,7.036,7.069,7.069,7.0433,7.0096,7.0096,6.902,6.7636,6.6936,6.6216,6.54,6.4376,6.4004,6.371,6.2812,6.2519,6.2154,6.1068,6.0866,6.06,5.9718,5.9564,5.9327,5.8592,5.8457,5.8321,5.7958,5.7586,5.7349,5.7349,5.6697,5.6249,5.6249,5.5902,5.5564,5.5166,5.3867,5.279,5.2179,5.0353,4.9574,5.0239,4.9999,5.0163,5.0777,5.1067,5.1696,5.2713,5.2713,5.3371,5.464,5.4311,5.3982,0.0,0.0,0.0,0.0,0.0,0.0,0.0,5.1346,5.1737,5.5691,5.8001,5.9946,6.2174,6.4965,6.7393,6.8746,7.0202,7.1205,7.1354,7.2004,7.2419,7.2419,7.3014,7.3385,7.3385,7.3385,7.3385,7.3385,7.3385,7.3385,7.3385,7.3385,7.3385,7.3385,7.3385,7.3385,7.3385,7.3385,7.3385,7.3385,7.3385,7.3385,7.3385,7.3359,7.334,7.334,7.3314,7.3192,7.2927,7.2638,7.2517,7.2488,7.2488,7.2567,7.2593,7.1945,7.1647,7.1527,7.1344,7.1417,7.16,7.2121,7.1742,7.1091,7.1091,6.9609,6.7727,6.6839,6.5729,6.4629,6.3756,6.3414,6.3236,6.3,6.2808,6.2489,6.1685,6.1501,6.1264,6.0486,6.0317,6.008,5.9327,5.9216,5.8921,5.8026,5.7891,5.7891,5.7891,5.7374,5.7002,5.7002,5.6486,5.5966,5.5602,5.4226,5.3189,5.267,5.0787,5.0159,5.117,5.06,5.0983,5.2546,5.2845,5.3773,5.5401,5.5521,5.6119,5.7094,5.7244,5.6735,4.7579,4.8546,5.013,5.3188,5.3305,5.4891,0.0,6.2,6.013,6.4335,6.4854,6.4857,6.5857,6.727,6.8814,7.0394,7.1441,7.2308,7.3014,7.32,7.3274,7.3274,7.3348,7.3385,7.3385,7.3385,7.3385,7.3385,7.3385,7.3385,7.3385,7.3385,7.3385,7.3385,7.3385,7.3385,7.3385,7.3385,7.3385,7.3385,7.3385,7.3385,7.3385,7.3285,7.3225,7.3219,7.3098,7.2941,7.273,7.2695,7.261,7.2488,7.2488,7.2503,7.2517,7.2407,7.24,7.2268,7.1564,7.1784,7.2268,7.1637,7.0938,7.0327,7.0327,6.9193,6.7621,6.6212,6.5698,6.5215,6.3719,6.3302,6.3199,6.2808,6.2736,6.2625,6.2328,6.2289,6.2052,6.1298,6.1163,6.0917,6.0114,5.9979,5.9505,5.8094,5.7891,5.7891,5.7891,5.7823,5.7789,5.7789,5.7688,5.6985,5.5293,5.5755,5.5511,5.3987,5.3921,5.3972,5.4125,5.3803,5.376,5.397,5.5162,5.5863,5.6102,5.6628,5.6958,5.7094,5.7709,5.7905,5.5778,5.6435,5.6783,5.8756,5.999,6.1806,6.5749,6.4872,6.406,6.7079,6.7208,6.6984,6.76,6.8136,6.9051,7.0642,7.1205,7.1886,7.3237,7.3014,7.2494,7.1991,7.1954,7.2332,7.3311,7.3385,7.3385,7.3385,7.3385,7.3385,7.3385,7.3385,7.3385,7.3385,7.3385,7.3385,7.3385,7.3385,7.334,7.3292,7.3292,7.3252,7.3178,7.3111,7.3077,7.3071,7.2913,7.2772,7.2695,7.2617,7.2546,7.2488,7.2488,7.2488,7.2488,7.2488,7.2488,7.2459,7.2121,7.2232,7.2357,7.1616,7.116,7.0829,7.0393,6.9198,6.7896,6.7279,6.6364,6.5428,6.4736,6.4082,6.3543,6.3368,6.2901,6.2489,6.241,6.2391,6.2323,6.2018,6.1941,6.1714,6.0926,6.0791,6.0419,5.9336,5.8829,5.8549,5.8549,5.8161,5.7891,5.7891,5.8186,5.7758,5.6257,5.635,5.5876,5.4489,5.4016,5.3971,5.4353,5.4612,5.4982,5.5371,5.6269,5.6928,5.7304,5.7573,5.7872,5.8261,5.8547,5.8697,6.0244,6.1206,6.1706,6.2771,6.4929,6.6802,6.6883,6.6727,6.6932,6.8366,6.8304,6.8079,6.8449,6.8679,6.9274,7.0679,7.1094,7.1701,7.2902,7.2345,7.1589,7.0976,7.0716,7.1248,7.2902,7.3051,7.3162,7.3385,7.3385,7.3385,7.3385,7.3608,7.372,7.372,7.3718,7.3698,7.3698,7.3436,7.3252,7.3138,7.3138,7.3091,7.2996,7.2948,7.2906,7.2858,7.2702,7.2646,7.2638,7.2532,7.2488,7.2488,7.2488,7.2488,7.2488,7.2488,7.2488,7.2467,7.2255,7.2197,7.2093,7.1351,7.0961,7.0706,7.0146,6.9077,6.7987,6.7778,6.6752,6.5657,6.5402,6.4722,6.4077,6.4041,6.3515,6.3,6.3,6.2864,6.2685,6.2685,6.2526,6.2221,6.1704,6.1603,6.14,6.0825,6.0105,5.9564,5.9327,5.8829,5.8407,5.8141,5.8428,5.8035,5.6577,5.6344,5.576,5.4587,5.4219,5.4234,5.473,5.5388,5.594,5.6432,5.7064,5.762,5.8085,5.8308,5.8637,5.9099,5.9099,5.9099,5.7795,5.9751,6.2676,6.4315,6.6575,6.8546,6.8907,6.9302,6.9488,6.9138,6.8766,6.8475,6.8493,6.9125,6.9936,7.0753,7.1589,7.2159,7.224,7.1471,7.0939,7.0902,7.0196,7.0394,7.2085,7.224,7.2574,7.3348,7.3385,7.3385,7.3385,7.4128,7.4574,7.4574,7.4428,7.4391,7.4391,7.3477,7.3003,7.3003,7.3003,7.2996,7.2989,7.2786,7.2638,7.2503,7.2503,7.2503,7.2503,7.2496,7.2488,7.2488,7.2488,7.2488,7.2488,7.2488,7.2488,7.2409,7.1663,7.1438,7.1327,7.0562,6.9831,6.9246,6.9228,6.8568,6.7643,6.6922,6.6538,6.6059,6.5153,6.4889,6.4818,6.4607,6.4546,6.4546,6.4546,6.3961,6.3477,6.3477,6.2888,6.2391,6.2357,6.2357,6.2357,6.2323,6.1704,6.096,6.0182,6.0047,5.9665,5.8781,5.8533,5.7574,5.5516,5.5767,5.5487,5.4273,5.5426,5.6102,5.6132,5.6718,5.7034,5.7064,5.7739,5.8085,5.8085,5.8756,5.9069,5.9099,5.9099,5.9099,6.3191,6.5203,6.6821,6.8219,6.9592,7.0586,7.0408,6.9801,6.9126,6.8457,6.7554,6.6716,6.6153,6.6265,6.6896,6.8308,6.9651,7.0728,7.1248,7.1589,7.1143,6.9496,7.0016,7.0314,6.98,7.0691,7.1923,7.3311,7.2902,7.3051,7.4128,7.4463,7.4834,7.5385,7.4762,7.468,7.5199,7.3729,7.3192,7.3604,7.2953,7.2653,7.2682,7.2589,7.2539,7.2488,7.2488,7.2488,7.2488,7.2488,7.2488,7.2488,7.2488,7.2197,7.1777,7.1777,7.1469,7.1083,7.1335,7.1075,7.0537,6.9796,6.9401,6.9096,6.8459,6.8054,6.77,6.732,6.7083,6.6831,6.6521,6.5922,6.5426,6.5355,6.4962,6.4613,6.4613,6.441,6.4231,6.4231,6.3622,6.3115,6.3115,6.2719,6.2391,6.2391,6.1772,6.0781,5.9333,5.9164,5.8817,5.7878,5.787,5.7404,5.6075,5.6239,5.6158,5.5567,5.5953,5.6372,5.6778,5.7423,5.7769,5.7769,5.8427,5.8756,5.8756,5.9009,5.9099,5.9099,5.9099,5.9099,6.6647,6.8381,6.9316,7.0559,7.1296,7.1417,7.0531,6.9462,6.8302,6.7053,6.5943,6.4859,6.3702,6.3739,6.4593,6.6568,6.8233,6.9645,7.0753,7.1397,7.1143,6.9534,7.001,7.0314,6.9874,7.0462,7.1471,7.2865,7.302,7.3497,7.4537,7.5169,7.5699,7.6128,7.5532,7.5273,7.5453,7.3976,7.3297,7.3411,7.309,7.2936,7.2936,7.3223,7.3369,7.3369,7.3369,7.3193,7.2936,7.2936,7.2614,7.2115,7.2115,7.1648,7.101,7.101,7.0529,6.9963,7.0472,7.0291,6.9805,6.9059,6.8749,6.8603,6.7974,6.7699,6.7547,6.7438,6.7243,6.7066,6.7066,6.6589,6.6102,6.6102,6.573,6.5392,6.5392,6.5189,6.4996,6.4996,6.441,6.3893,6.3893,6.3497,6.3059,6.2703,6.224,6.1368,5.9735,5.9427,5.8902,5.76,5.754,5.7261,5.6469,5.6537,5.658,5.653,5.6748,5.7034,5.7453,5.8098,5.8457,5.8457,5.8876,5.9099,5.9099,5.9099,5.9099,5.9099,5.9099,5.9099,6.7993,6.9261,7.021,7.1351,7.1629,7.1177,6.9454,6.8388,6.715,6.5031,6.3925,6.2773,6.1144,6.159,6.3002,6.5379,6.7305,6.9051,7.0604,7.0939,7.1013,7.0902,7.0344,7.0543,7.2048,7.1552,7.1471,7.2271,7.3683,7.4574,7.4723,7.624,7.7019,7.6866,7.6673,7.6183,7.5315,7.4272,7.3347,7.2496,7.331,7.3714,7.3714,7.4544,7.4903,7.4903,7.4903,7.4434,7.3714,7.3641,7.2756,7.1398,7.1367,7.0904,7.024,7.024,6.9796,6.9161,6.9161,6.9161,6.9031,6.8329,6.7969,6.7799,6.7779,6.7486,6.7191,6.718,6.7003,6.6802,6.6802,6.6802,6.6802,6.6802,6.6802,6.6802,6.6802,6.6237,6.5774,6.5774,6.5155,6.4647,6.4613,6.4613,6.4272,6.3247,6.3107,6.2589,6.1159,6.0728,5.987,5.8034,5.759,5.7213,5.6672,5.6618,5.6762,5.712,5.7739,5.8115,5.8145,5.8756,5.9099,5.9099,5.9099,5.9099,5.9099,5.9099,5.9099,5.9099,5.9099,5.9099,7.0204,7.1857,7.2898,7.2576,7.205,7.1078,6.9105,6.7058,6.4938,6.2584,6.0476,5.8358,5.6092,5.7838,6.0062,6.1288,6.5448,6.8865,6.9868,7.1583,7.2295,7.105,7.2363,7.3044,7.2271,7.3639,7.4375,7.4017,7.3794,7.45,7.6358,7.6731,7.713,7.7681,7.6875,7.6634,7.6994,7.5397,7.3883,7.2496,7.331,7.3714,7.3714,7.4544,7.4903,7.4903,7.4903,7.4434,7.3678,7.3124,7.2304,7.1351,7.0814,7.012,6.9483,6.9483,6.9022,6.8362,6.8362,6.8362,6.8304,6.8009,6.7849,6.7749,6.7458,6.7274,6.7149,6.6972,6.6844,6.6802,6.6802,6.6802,6.6802,6.6802,6.6802,6.6802,6.6802,6.6667,6.6531,6.6531,6.5933,6.5266,6.4681,6.4613,6.4272,6.3247,6.3107,6.2443,6.0649,6.0331,5.9779,5.8394,5.7997,5.7699,5.7282,5.7075,5.7232,5.7799,5.8008,5.8324,5.8816,5.8996,5.9099,5.9099,5.9099,5.9099,5.9099,5.9099,5.9099,5.9099,5.9099,5.9099,7.2247,7.3645,7.4249,7.2655,7.1677,7.0134,6.6616,6.4185,6.1548,5.769,5.5795,5.398,5.1115,5.4161,5.7462,5.865,6.3962,6.8493,7.0016,7.2072,7.3193,7.2586,7.375,7.4389,7.3831,7.5014,7.5757,7.5689,7.528,7.5588,7.6894,7.7211,7.7469,7.7813,7.7238,7.6744,7.6404,7.5396,7.4287,7.3046,7.4184,7.4742,7.4771,7.5608,7.5968,7.5953,7.5624,7.5025,7.4183,7.3098,7.1996,7.0895,7.0105,6.9374,6.8737,6.8737,6.8449,6.8083,6.8083,6.8024,6.7959,6.7839,6.7739,6.7597,6.7294,6.7118,6.7003,6.6833,6.6802,6.6802,6.6802,6.6802,6.6802,6.6802,6.6802,6.6802,6.6802,6.6802,6.6802,6.6802,6.6464,6.6068,6.5652,6.5194,6.4578,6.3571,6.301,6.2213,6.0669,6.0092,5.9412,5.8334,5.7849,5.7648,5.7753,5.7622,5.7829,5.8487,5.8547,5.8697,5.9085,5.9099,5.9099,5.9099,5.9099,5.9099,5.9099,5.9099,5.9099,5.9099,5.9099,5.9099,7.3904,7.4696,7.4637,7.2116,7.0832,6.8787,6.3596,6.0773,5.7722,5.2345,5.0896,4.967,4.6698,5.0743,5.5127,5.7021,6.2779,6.7899,7.053,7.2332,7.3683,7.45,7.4797,7.5206,7.5905,7.6054,7.6419,7.7148,7.7327,7.7272,7.6984,7.7608,7.782,7.7554,7.7546,7.678,7.5094,7.5058,7.4654,7.3898,7.5395,7.6093,7.613,7.6922,7.7235,7.7126,7.646,7.5673,7.4735,7.3278,7.185,7.0461,6.9657,6.8958,6.8404,6.8404,6.8404,6.8394,6.8364,6.8269,6.8074,6.7838,6.7618,6.7438,6.7212,6.6959,6.6802,6.6802,6.6802,6.6802,6.6802,6.6802,6.6802,6.6802,6.6802,6.6802,6.6802,6.6802,6.6802,6.6802,6.6802,6.676,6.661,6.5866,6.489,6.3785,6.2863,6.1953,6.0936,6.0083,5.9253,5.8353,5.7811,5.7682,5.8188,5.8234,5.8487,5.9069,5.9099,5.9099,5.9099,5.9099,5.9099,5.9099,5.9099,5.9099,5.9099,5.9099,5.9099,5.9099,5.9099,5.9159,7.4529,7.4706,7.4201,7.1654,6.9904,6.769,6.3396,5.8985,5.4792,5.1077,4.8221,4.5959,4.4655,4.8593,5.3014,5.6023,6.1404,6.6562,7.0382,7.2332,7.3683,7.45,7.5838,7.6729,7.6878,7.7473,7.7863,7.7842,7.8524,7.8584,7.7829,7.7695,7.7569,7.7372,7.7364,7.6879,7.5909,7.5909,7.5498,7.4691,7.5652,7.6093,7.613,7.6922,7.6985,7.637,7.6253,7.5376,7.3931,7.3041,7.2158,7.1227,7.0471,7.0112,6.999,6.999,6.999,6.996,6.98,6.9742,6.9474,6.8008,6.7428,6.7201,6.6938,6.6833,6.6802,6.6802,6.6802,6.6802,6.6802,6.6802,6.6802,6.6802,6.6802,6.6802,6.6802,6.6802,6.6802,6.6802,6.6802,6.6525,6.5702,6.5404,6.4696,6.2838,6.2418,6.1953,6.0936,6.0656,6.0308,5.9718,5.956,5.9338,5.8946,5.8949,5.8979,5.9099,5.9099,5.9099,5.9099,5.9099,5.9099,5.9099,5.9099,5.9099,5.9099,5.9099,5.9099,5.9099,5.9099,5.9398,7.428,7.4659,7.4337,7.1591,6.9676,6.6859,6.0624,5.6055,5.1709,4.6698,4.4436,4.2987,4.1683,4.6178,5.0743,5.2749,5.8242,6.385,6.8382,7.0431,7.2406,7.4946,7.6321,7.725,7.7696,7.8067,7.8406,7.8644,7.8965,7.8921,7.8441,7.8246,7.7858,7.7326,7.7281,7.6922,7.6093,7.6526,7.6306,7.5535,7.6342,7.6702,7.6731,7.6747,7.6518,7.6152,7.5308,7.4521,7.3692,7.2548,7.1842,7.1434,7.0695,7.0404,7.0404,7.0404,7.0404,7.0374,7.0161,7.0006,6.9733,6.8795,6.8421,6.8216,6.7553,6.7377,6.7275,6.6903,6.6802,6.6802,6.6802,6.6802,6.6802,6.6802,6.6802,6.6802,6.6802,6.6802,6.6802,6.6802,6.6386,6.5855,6.5371,6.4424,6.3395,6.2455,6.1866,6.1303,6.0677,6.0586,6.046,6.0056,5.972,5.9426,5.9113,5.9099,5.9099,5.9099,5.9099,5.9099,5.9099,5.9099,5.9099,5.9099,5.9099,5.9099,5.9099,5.9458,5.9428,5.9129,5.9803,6.0116,7.3701,7.4353,7.438,7.1603,6.9304,6.5745,5.8247,5.3608,4.9187,4.3318,4.1835,4.1241,4.0089,4.4395,4.8667,5.0372,5.5567,6.125,6.6562,6.8976,7.162,7.5348,7.6878,7.7844,7.8513,7.8701,7.8981,7.9445,7.9446,7.9324,7.9011,7.8916,7.8479,7.7619,7.7582,7.7186,7.6379,7.6995,7.6995,7.6342,7.6995,7.7212,7.7056,7.6444,7.6025,7.5627,7.4359,7.3701,7.3482,7.2247,7.175,7.1715,7.1129,7.0887,7.0887,7.0887,7.0857,7.0774,7.058,7.0338,7.0081,6.9879,6.9576,6.9204,6.8388,6.8166,6.7996,6.7242,6.7174,6.7208,6.6903,6.6903,6.7005,6.6836,6.6802,6.6802,6.6802,6.6802,6.6749,6.6514,6.5833,6.5159,6.4709,6.3368,6.2221,6.1997,6.1315,6.0716,6.0508,6.0377,6.0237,6.0029,5.9519,5.9153,5.9099,5.9099,5.9099,5.9099,5.9099,5.9099,5.9099,5.9249,5.9308,5.9308,5.9458,5.9548,5.9534,6.0057,6.0027,5.9534,6.0611,6.088,7.3035,7.3495,7.3593,7.1454,6.8005,6.3776,5.8581,5.3121,4.8106,4.4506,4.2615,4.1761,4.2355,4.4213,4.7107,5.1639,5.5387,5.995,6.6413,6.9998,7.2902,7.5497,7.7874,7.9323,7.9361,7.9931,8.0252,8.0148,8.0543,8.0501,7.9766,7.9714,7.9331,7.8516,7.8479,7.8067,7.7208,7.7244,7.7244,7.7179,7.7244,7.6932,7.6295,7.6228,7.5388,7.4014,7.3868,7.3432,7.2773,7.2654,7.2588,7.2588,7.2519,7.2485,7.2485,7.2485,7.2337,7.2114,7.1888,7.166,7.1385,7.1175,7.0217,6.9101,6.9011,6.8977,6.8808,6.803,6.8335,6.8571,6.7174,6.7309,6.7624,6.6971,6.6802,6.6802,6.6802,6.6802,6.6525,6.5625,6.5348,6.4731,6.2887,6.243,6.1984,6.109,6.0858,6.0781,6.0768,6.0342,6.0043,6.0016,5.9693,5.9369,5.9113,5.9099,5.9099,5.9099,5.9099,5.9099,5.9099,5.9668,6.001,6.001,6.0625,6.091,6.091,6.097,6.097,6.091,6.103,6.1389,7.2119,7.3373,7.3914,7.2136,6.8617,6.4148,5.873,5.3046,4.7846,4.4061,4.2393,4.169,4.2021,4.3392,4.5658,4.9076,5.156,5.5164,6.125,6.4933,6.8438,7.229,7.5895,7.8362,7.9134,7.9985,8.0592,8.0785,8.1368,8.157,8.1277,8.0799,8.0131,7.9331,7.8854,7.8442,7.8104,7.7546,7.7281,7.7281,7.6845,7.6469,7.6169,7.5201,7.4416,7.377,7.3331,7.2981,7.2692,7.2692,7.2692,7.2692,7.2692,7.2692,7.2681,7.2523,7.2395,7.2266,7.1864,7.1677,7.1567,7.1379,7.0894,7.0353,6.9891,6.9766,6.9597,6.8842,6.8842,6.8977,6.8324,6.803,6.7827,6.7523,6.7106,6.6802,6.6802,6.6802,6.6493,6.5515,6.48,6.3949,6.2534,6.1803,6.1264,6.0858,6.0794,6.0742,6.0573,6.0237,5.9906,5.9733,5.9436,5.9221,5.9099,5.9099,5.9279,5.9681,5.9711,5.9877,6.0282,6.0551,6.0715,6.0715,6.097,6.109,6.109,6.1523,6.1702,6.1732,6.248,6.2989,7.0731,7.2372,7.3112,7.1521,6.8023,6.3559,5.8024,5.2675,4.7813,4.3949,4.2686,4.2318,4.2318,4.347,4.5175,4.766,4.9629,5.2935,5.8953,6.2402,6.605,7.0596,7.4434,7.7258,7.8573,8.0141,8.1188,8.146,8.1921,8.2194,8.2194,8.1672,8.0975,8.0175,7.9625,7.9066,7.8589,7.7994,7.7445,7.6956,7.6436,7.5938,7.5441,7.4331,7.3661,7.3462,7.2929,7.2692,7.2692,7.2692,7.2692,7.2692,7.2692,7.2787,7.2864,7.2453,7.236,7.2369,7.2051,7.1896,7.1807,7.1661,7.1639,7.147,7.0737,7.0534,7.0364,6.962,6.9282,6.9147,6.9383,6.8842,6.8267,6.8267,6.7692,6.714,6.714,6.6937,6.6418,6.5114,6.4286,6.3448,6.2355,6.1575,6.1101,6.1101,6.1255,6.1151,6.049,6.0323,6.0183,5.9844,5.9561,5.9308,5.9129,5.9279,5.9608,6.007,6.028,6.0625,6.109,6.1299,6.1389,6.1389,6.1583,6.1792,6.1957,6.2421,6.275,6.2989,6.3887,6.4395,6.865,7.0007,7.053,6.8939,6.5448,6.1144,5.6162,5.1858,4.7961,4.4655,4.3986,4.3986,4.3986,4.4696,4.6071,4.8514,5.0966,5.4867,6.1442,6.4488,6.7577,7.1713,7.4314,7.6395,7.7889,8.0662,8.2335,8.2211,8.2194,8.2194,8.2194,8.2194,8.1819,8.1004,8.0967,8.0204,7.8626,7.8589,7.7781,7.6211,7.6203,7.5361,7.3819,7.3809,7.3412,7.2713,7.2702,7.2692,7.2692,7.2692,7.2692,7.2692,7.2692,7.2981,7.3304,7.256,7.2462,7.27,7.27,7.2553,7.2394,7.2394,7.2394,7.2259,7.1503,7.13,7.1131,7.0409,6.9654,6.9282,7.0003,6.9631,6.9079,6.9079,6.847,6.7895,6.7895,6.7309,6.6202,6.4205,6.382,6.3381,6.2048,6.1809,6.1796,6.1796,6.235,6.2196,6.0626,6.0746,6.0846,6.0521,6.0235,5.9831,5.9159,5.9697,6.01,6.01,6.0715,6.109,6.109,6.1732,6.2091,6.2091,6.2734,6.3363,6.3977,6.3977,6.4321,6.4964,6.4994,6.5368,6.2777,6.3691,6.3999,6.2885,6.0401,5.7393,5.4086,5.104,4.7957,4.4692,4.3986,4.4172,4.477,4.5105,4.7,5.2229,5.3715,5.6162,6.1627,6.5409,6.8463,7.0761,7.5969,7.9788,8.0919,8.1763,8.2251,8.2194,8.2194,8.2194,8.2194,8.2194,8.2084,8.1819,8.1297,8.0747,8.0241,7.8609,7.7771,7.7762,7.6155,7.5379,7.5339,7.427,7.368,7.3416,7.2933,7.2692,7.2692,7.2692,7.2586,7.2437,7.2437,7.2745,7.3201,7.3342,7.3458,7.364,7.4452,7.4054,7.3218,7.3747,7.3544,7.3116,7.2868,7.209,7.1267,7.103,7.0793,7.0658,7.0894,7.0398,6.9868,6.9868,6.9282,6.8707,6.8707,6.7958,6.6874,6.5505,6.4636,6.3773,6.2695,6.2473,6.2473,6.2473,6.2658,6.2551,6.1871,6.1724,6.156,6.1215,6.0941,6.0701,6.0492,6.0641,6.0984,6.1447,6.1672,6.2002,6.2465,6.2674,6.2974,6.3378,6.3602,6.4036,6.4665,6.4665,6.5039,6.5697,6.6161,6.649,5.7785,5.9254,5.9741,5.8798,5.717,5.5089,5.2308,5.0005,4.759,4.4618,4.3986,4.4283,4.5142,4.5551,4.7367,5.2378,5.3715,5.6035,6.1556,6.4967,6.8264,7.1914,7.6965,8.0514,8.1426,8.1916,8.2194,8.2194,8.2194,8.2194,8.2194,8.2194,8.2194,8.2194,8.1709,8.1305,8.1004,7.9178,7.8192,7.8072,7.6267,7.5503,7.5607,7.4652,7.4223,7.4188,7.3451,7.3106,0.0,7.27,7.262,7.2721,7.2635,7.3281,7.4253,7.4298,7.4421,7.4702,7.543,7.5112,7.4368,7.4547,7.4086,7.3488,7.3488,7.2879,7.2124,7.2124,7.1921,7.1706,7.1706,7.1176,7.0601,7.0601,6.9749,6.8909,6.8909,6.7826,6.6546,6.5494,6.4767,6.4076,6.3308,6.3181,6.3181,6.3181,6.3302,6.3125,6.2337,6.2216,6.2077,6.1771,6.1575,6.1583,6.1822,6.1598,6.1672,6.2061,6.2345,6.2764,6.3422,6.3452,6.3737,6.4351,6.4381,6.471,6.5398,6.5637,6.5966,6.64,6.6805,6.7014,0.0,5.59,5.6851,5.5767,5.4941,5.3604,5.0562,4.8704,0.0,4.4506,4.3986,4.4358,4.5439,4.6145,4.7516,5.0413,5.2197,5.5416,6.1672,6.423,6.798,7.4874,7.7673,7.9342,8.0086,8.1394,8.2194,8.2194,8.2194,8.2194,8.2194,8.2194,8.2194,8.2194,8.2194,8.1795,8.1004,8.0094,7.8918,7.7469,7.6523,7.5736,7.5052,7.5018,7.4983,7.4949,7.4188,7.3878,7.3777,7.2783,7.2802,7.3411,7.311,7.423,7.5905,7.5293,7.5323,7.5709,7.5879,7.5845,7.5574,7.4886,7.4221,7.3657,7.3657,7.359,7.3488,7.3488,7.3015,7.2462,7.2462,7.1921,7.1346,7.1278,6.9933,6.867,6.8566,6.7119,6.5561,6.4646,6.4391,6.4236,6.3929,6.3875,6.3875,6.3875,6.4164,6.3856,6.2334,6.2394,6.2461,6.2194,6.2211,6.2495,6.3108,6.2555,6.2181,6.2181,6.2794,6.3422,6.3977,6.4036,6.4381,6.5054,6.5114,6.5488,6.6131,6.6775,6.7104,6.7134,6.7134,6.7134,4.6551,0.0,4.8952,4.8094,4.8189,4.8147,0.0,4.6628,4.6257,4.4395,4.3986,4.5026,4.837,4.811,4.967,5.6501,5.8507,6.0761,6.5308,7.0346,7.4844,7.8353,8.032,8.1472,8.1655,8.199,8.2194,8.2194,8.2194,8.2194,8.2194,8.2194,8.2194,8.2194,8.2194,8.1784,8.0921,7.9557,7.8642,7.824,7.6774,7.6306,7.6649,7.6063,7.5822,7.5753,7.4994,7.4562,7.4341,7.3554,7.345,7.3662,7.2425,7.3198,7.5002,7.5386,7.5622,7.5946,7.7705,7.7164,7.5676,7.5506,7.5303,7.518,7.518,7.4402,7.3488,7.3488,7.3387,7.3251,7.3251,7.2699,7.193,7.1108,7.0142,6.9232,6.8401,6.7238,6.6272,6.6024,6.5321,6.4727,6.4652,6.4641,6.4641,6.4641,6.4485,6.4192,6.3624,6.3361,6.3169,6.2883,6.3273,6.3617,6.3782,6.3213,6.2854,6.2854,6.3452,6.3857,6.3977,6.45,6.5099,6.5757,6.6281,6.6849,6.7523,6.7688,6.8032,6.8525,6.8525,6.8525,4.4136,4.6105,4.819,4.7628,4.8147,4.8523,4.7743,4.674,4.5588,4.4283,4.4321,4.5509,4.844,4.9181,5.1278,5.7271,5.978,6.3022,6.8839,7.3754,7.7646,8.0073,8.146,8.2194,8.2194,8.2194,8.2194,8.2194,8.2194,8.2194,8.2194,8.2194,8.2194,8.2194,8.1799,8.1396,8.0911,7.9711,7.8919,7.8483,7.7216,7.6822,7.7201,7.6798,7.6798,7.7109,7.6304,7.6033,7.6095,7.5228,7.4889,7.4807,7.3854,7.4371,7.5697,7.6115,7.6251,7.642,7.7671,7.7029,7.5743,7.6115,7.6014,7.5709,7.5709,7.5134,7.4503,7.4503,7.4266,7.3984,7.3984,7.3443,7.2558,7.1123,7.0122,6.9091,6.7676,6.6517,6.5781,6.5781,6.5297,6.4888,6.4888,6.4888,6.4888,6.4888,6.4607,6.4314,6.4035,6.3724,6.35,6.3511,6.3797,6.4126,6.4441,6.4156,6.3977,6.3977,6.4276,6.4605,6.4904,6.5278,6.5757,6.646,6.7134,6.7643,6.7987,6.8301,6.866,6.9004,6.9004,6.9004,4.4671,4.7904,5.0904,4.9661,5.0297,5.0933,4.9856,4.7483,4.5253,4.4544,4.5064,4.6327,4.8423,5.0546,5.3155,5.68,5.9971,6.4635,7.218,7.5683,7.8353,8.071,8.1709,8.2194,8.2194,8.2194,8.2194,8.2194,8.2194,8.2194,8.2194,8.2194,8.2145,8.1993,8.1282,8.0795,8.0559,7.9839,7.9099,7.8283,7.7555,7.7201,7.7201,7.7201,7.766,7.835,7.7695,7.7663,7.8039,7.7055,7.6491,7.6164,7.5725,7.6014,7.6724,7.6724,7.6724,7.6724,7.6724,7.6284,7.5811,7.6487,7.6251,7.5709,7.5709,7.5709,7.5709,7.5709,7.5236,7.4784,7.4784,7.4104,7.2976,7.128,6.9956,6.8602,6.6807,6.568,6.5011,6.4918,6.4888,6.4888,6.4888,6.4888,6.4888,6.4888,6.4566,6.4272,6.4035,6.3741,6.3683,6.3976,6.4186,6.4545,6.5084,6.5233,6.5308,6.5308,6.5203,6.5458,6.6116,6.6161,6.646,6.7134,6.7703,6.8107,6.8317,6.887,6.9183,6.9303,6.9303,6.9303,4.7454,5.1151,5.2963,4.7417,4.8184,4.974,4.7553,4.6665,4.6294,4.6141,4.6773,4.8674,5.3002,5.4756,5.7007,6.1569,6.5515,6.9787,7.4992,7.7286,7.9066,8.0783,8.1709,8.2194,8.2194,8.2194,8.2194,8.2194,8.2194,8.2194,8.2194,8.2194,8.1877,8.1106,8.0964,8.0236,7.8882,7.8738,7.8252,7.7389,7.7268,7.7201,7.7201,7.7201,7.766,7.8385,7.8292,7.8374,7.8536,7.7748,7.7181,7.6637,7.527,7.5236,7.5879,7.5879,7.5879,7.5879,7.5879,7.5811,7.5709,7.5845,7.5811,7.5709,7.5709,7.5709,7.5709,7.5709,7.5608,7.554,7.554,7.4286,7.2676,7.1497,6.9898,6.8134,6.6358,6.5875,6.5596,6.5011,6.4888,6.4888,6.4888,6.4888,6.4888,6.4888,6.4429,6.4064,6.4021,6.3947,6.3931,6.3977,6.5024,6.5727,6.5847,6.637,6.67,6.67,6.6161,6.6161,6.6819,6.6849,6.7164,6.7822,6.7958,6.8556,6.9678,6.9798,7.0127,7.062,7.062,7.062,4.5884,4.9592,5.2345,4.9336,5.2011,5.4978,5.3455,5.1714,5.0446,5.0446,5.1077,5.2563,5.5635,5.7936,6.1189,6.6768,7.0347,7.3621,7.7051,7.8525,7.9845,8.1452,8.1974,8.2194,8.2194,8.2194,8.2194,8.2194,8.2194,8.2194,8.2194,8.1748,8.1308,8.092,8.0039,7.924,7.8504,7.8042,7.7599,7.7201,7.7201,7.7201,7.7201,7.7201,7.7558,7.8179,7.8179,7.8302,7.849,7.8184,7.7582,7.6826,7.6115,7.5777,7.5709,7.5709,7.5709,7.5709,7.5709,7.5709,7.5709,7.5709,7.5709,7.5709,7.5709,7.5709,7.5709,7.5709,7.5709,7.5709,7.5709,7.46,7.312,7.1643,7.0172,6.8627,6.6835,6.615,6.5811,6.5503,6.5165,6.4888,6.4888,6.4888,6.4832,6.4649,6.4398,6.4211,6.4279,6.4279,6.4482,6.5009,6.5637,6.6161,6.652,6.6819,6.7014,6.7014,6.67,6.667,6.6984,6.7343,6.7688,6.7987,6.8706,6.9379,7.0007,7.0336,7.062,7.0889,7.0889,7.0889,4.4948,4.8333,5.1825,5.2419,5.5684,5.8751,5.8651,5.6414,5.4474,5.5001,5.5775,5.6814,5.8353,6.1399,6.5483,7.1024,7.3875,7.6213,7.8539,7.9588,8.0616,8.2048,8.2194,8.2194,8.2194,8.2194,8.2194,8.2194,8.2194,8.2121,8.1919,8.1256,8.0741,8.0339,7.913,7.8399,7.8212,7.7533,7.7201,7.7201,7.7201,7.7201,7.7201,7.7201,7.7502,7.8018,7.8018,7.8138,7.839,7.839,7.7825,7.6893,7.6893,7.642,7.5709,7.5709,7.5709,7.5709,7.5709,7.5709,7.5709,7.5709,7.5709,7.5709,7.5709,7.5709,7.5709,7.5709,7.5508,7.5316,7.5316,7.4452,7.3178,7.1528,7.029,6.8997,6.7489,6.672,6.632,6.6166,6.5719,6.538,6.538,6.528,6.5154,6.4899,6.4744,6.4671,6.4727,6.4822,6.5156,6.5907,6.6131,6.643,6.6954,6.7014,6.7074,6.7224,6.7224,6.7164,6.7014,6.7792,6.8211,6.8211,6.9409,7.0067,7.0217,7.0679,7.0889,7.0889,7.0889,7.0889,4.7738,5.0488,5.3088,5.5349,5.5647,5.5909,5.8011,5.7132,5.6461,5.8635,5.9726,6.0762,6.2315,6.5887,6.9724,7.3144,7.5168,7.7111,7.9391,8.0424,8.1232,8.2113,8.2194,8.2194,8.2194,8.2194,8.2194,8.2194,8.2194,8.1869,8.1026,8.0938,8.0199,7.8707,7.8566,7.8127,7.7313,7.7234,7.7201,7.7201,7.7201,7.7201,7.7201,7.7201,7.7502,7.8018,7.8018,7.8138,7.839,7.839,7.7825,7.6893,7.6893,7.642,7.5709,7.5709,7.5709,7.5709,7.5709,7.5709,7.5709,7.5709,7.5709,7.5709,7.5709,7.5709,7.5709,7.5709,7.4942,7.4127,7.4127,7.329,7.2141,7.0939,6.9776,6.8729,6.7997,6.7783,6.7568,6.6966,6.6782,6.6751,6.6751,6.6508,6.6293,6.6248,6.5771,6.5421,6.5437,6.5712,6.5907,6.5996,6.655,6.6954,6.7014,6.7014,6.7254,6.7898,6.7928,6.7643,6.7044,6.8226,6.8944,6.8944,6.9618,7.0277,7.0829,7.0889,7.0889,7.0889,7.0889,7.0889,4.5509,4.915,5.294,5.4388,5.6427,5.8656,6.1011,6.1422,6.2017,6.437,6.5084,6.5601,6.6617,6.8813,7.1185,7.3427,7.6036,7.8255,7.9604,8.0909,8.1856,8.2158,8.2194,8.2194,8.2194,8.2194,8.2194,8.2194,8.2194,8.1807,8.0947,8.0449,7.9663,7.8535,7.7977,7.7533,7.7201,7.6753,7.6511,7.6511,7.6994,7.7201,7.7201,7.702,7.6999,7.7044,7.6882,7.6794,7.6711,7.6711,7.6482,7.6149,7.6149,7.598,7.5709,7.5709,7.5709,7.5709,7.5709,7.5709,7.5709,7.5709,7.5709,7.5709,7.5709,7.5709,7.5544,7.4856,7.4327,7.4013,7.4013,7.2618,7.1123,7.0697,6.9741,6.8842,6.8581,6.8197,6.7814,6.7568,6.7182,6.6834,6.6602,6.6473,6.6257,6.5893,6.5645,6.5574,6.5787,6.5922,6.6161,6.658,6.6849,6.7014,6.7014,6.7014,6.7284,6.7958,6.7987,6.8062,6.8226,6.9139,6.9618,6.9618,7.0247,7.0679,7.0889,7.0889,7.0889,7.0889,7.0889,7.0889,4.5131,4.8727,5.2836,5.4128,5.7163,6.0689,6.403,6.5071,6.6088,6.8913,6.9285,6.9252,6.971,7.0606,7.1821,7.3457,7.6468,7.889,7.9706,8.1203,8.2194,8.2194,8.2194,8.2194,8.2194,8.2194,8.2194,8.2194,8.1944,8.1422,8.0586,7.9779,7.8928,7.8138,7.7511,7.7097,7.6856,7.6339,7.596,7.5718,7.641,7.6721,7.671,7.6793,7.6645,7.6367,7.6181,7.5833,7.5337,7.5337,7.5337,7.5371,7.5608,7.5709,7.5709,7.5709,7.5709,7.5709,7.5709,7.5709,7.5709,7.5709,7.5709,7.5709,7.5709,7.5709,7.546,7.4315,7.3739,7.3394,7.3011,7.1764,7.0501,7.0152,6.9453,6.8904,6.8904,6.8551,6.8228,6.8228,6.7843,6.7463,6.7232,6.7043,6.6765,6.6353,6.6116,6.6042,6.6281,6.6311,6.649,6.6954,6.7014,6.7014,6.7014,6.7194,6.7613,6.8271,6.8511,6.875,6.9004,6.9812,7.0187,7.0007,7.059,7.0889,7.0889,7.0889,7.0889,7.0889,7.0889,7.0889,4.7527,4.9912,5.2993,5.5312,5.7806,6.1094,6.6585,6.7319,6.7934,7.1731,7.1865,7.1307,7.1307,7.1307,7.1865,7.3457,7.6468,7.889,7.9706,8.1166,8.2194,8.2194,8.2194,8.2194,8.2194,8.2194,8.2194,8.2194,8.1377,8.0532,7.9724,7.8907,7.8082,7.7234,7.7201,7.6822,7.6109,7.6097,7.5684,7.4903,7.5452,7.5695,7.5729,7.6439,7.6553,7.6098,7.6098,7.5528,7.4615,7.4615,7.4615,7.4683,7.5405,7.5709,7.5709,7.5709,7.5709,7.5709,7.5709,7.5709,7.5709,7.5709,7.5709,7.5709,7.5709,7.5709,7.5448,7.4302,7.3141,7.202,7.0892,7.0585,7.0308,6.9165,6.8904,6.8904,6.8904,6.8904,6.8904,6.8904,6.8904,6.8904,6.8889,6.8387,6.8,6.8,6.7441,6.7014,6.7014,6.7014,6.7014,6.7014,6.7014,6.7014,6.7014,6.7613,6.8271,6.8944,6.9618,6.9708,6.9064,7.0231,7.062,7.0007,7.059,7.0889,7.0889,7.0889,7.0889,7.0889,7.0889,7.0889,4.6958,5.0416,5.4615,5.6414,6.1266,6.6278,6.8961,6.9396,7.0192,7.3509,7.356,7.2973,7.2973,7.2973,7.334,7.436,7.6298,7.8177,7.9588,8.0681,8.1562,8.2121,8.2194,8.2194,8.2194,8.1672,8.1379,8.1379,8.0066,7.8927,7.8136,7.7302,7.673,7.6441,7.6408,7.6315,7.6109,7.5546,7.509,7.4695,7.4835,7.5214,7.5718,7.6119,7.6251,7.6087,7.5888,7.5363,7.4615,7.4615,7.4615,7.4683,7.5405,7.5709,7.5709,7.5709,7.5709,7.5709,7.5709,7.5709,7.5709,7.5709,7.5709,7.5709,7.5709,7.5124,7.4277,7.3115,7.198,7.085,6.9713,6.9381,6.9325,6.8992,6.8904,6.8904,6.8904,6.8904,6.8904,6.8904,6.8904,6.8772,6.8358,6.8135,6.785,6.7381,6.7137,6.7014,6.7014,6.7014,6.7014,6.7014,6.7014,6.7014,6.7014,6.7613,6.8271,6.8944,6.9618,7.0097,7.032,7.0709,7.0829,7.0649,7.0799,7.0889,7.0889,7.0889,7.0889,7.0889,7.0889,7.0889,4.9857,5.3351,5.7296,5.9845,6.399,6.8274,7.1411,7.2382,7.3206,7.5395,7.4948,7.4258,7.4588,7.4404,7.4441,7.5241,7.6746,7.8288,7.9588,8.0212,8.0828,8.1636,8.1423,8.124,8.124,8.0791,8.0385,8.0079,7.8847,7.7755,7.6982,7.6121,7.5654,7.5637,7.5615,7.5488,7.5188,7.4631,7.4109,7.3693,7.4134,7.4558,7.5025,7.5774,7.6051,7.5889,7.5137,7.4559,7.4153,7.4153,7.4153,7.4255,7.5303,7.5709,7.5709,7.5709,7.5709,7.5709,7.5709,7.5709,7.5709,7.5709,7.5709,7.5638,7.5149,7.4526,7.3663,7.2074,7.1109,7.035,6.9195,6.8904,6.8904,6.8904,6.8904,6.8904,6.8904,6.8904,6.886,6.8742,6.8816,6.8713,6.8105,6.8,6.7819,6.7289,6.7091,6.7014,6.7014,6.7014,6.7014,6.7014,6.7254,6.7403,6.7403,6.8241,6.896,6.9379,7.0007,7.05,7.0889,7.0889,7.0889,7.0889,7.0889,7.0889,7.0889,7.0889,7.0889,7.0889,7.0889,7.0889,5.4417,5.7284,6.0285,6.4385,6.6292,6.8531,7.3736,7.5461,7.6232,7.7032,7.6041,7.5241,7.5983,7.5498,7.5278,7.6093,7.7488,7.8772,7.9588,7.9706,7.9992,8.0791,8.0249,7.9816,7.9816,7.9743,7.9345,7.8562,7.7694,7.682,7.6011,7.5163,7.4718,7.4811,7.4811,7.4488,7.3796,7.3615,7.3131,7.238,7.3434,7.3889,7.3923,7.5395,7.5923,7.5608,7.4131,7.3522,7.359,7.3522,7.3556,7.3725,7.5134,7.5709,7.5709,7.5709,7.5709,7.5709,7.5709,7.5709,7.5709,7.5709,7.5709,7.5484,7.4352,7.3937,7.3406,7.1191,7.0515,7.0209,6.9165,6.8904,6.8904,6.8904,6.8904,6.8904,6.8904,6.8904,6.8816,6.849,6.8683,6.8668,6.8105,6.797,6.785,6.7517,6.7258,6.7104,6.7104,6.7104,6.7104,6.7104,6.7643,6.7987,6.7987,6.9183,6.9961,7.0007,7.056,7.0889,7.0889,7.0889,7.0889,7.0889,7.0889,7.0889,7.0889,7.0889,7.0889,7.0889,7.0889,7.0889,5.2538,5.5686,5.9654,6.4995,6.926,7.2642,7.447,7.5021,7.5388,7.6195,7.6093,7.5909,7.6056,7.5946,7.6122,7.6922,7.7326,7.7884,7.8736,7.8854,7.9147,7.9955,7.9926,7.9816,7.9816,7.9221,7.8503,7.7728,7.632,7.5167,7.4375,7.3576,7.344,7.4026,7.4026,7.3957,7.3796,7.3777,7.3458,7.295,7.3751,7.3958,7.3637,7.5115,7.5757,7.5608,7.4131,7.3827,7.4322,7.3725,7.3849,7.4446,7.5337,7.5709,7.5709,7.5709,7.5709,7.5709,7.5709,7.5709,7.5709,7.5709,7.5709,7.5484,7.4352,7.3381,7.238,7.1003,6.9953,6.9209,6.8977,6.8904,6.8904,6.8904,6.8904,6.8904,6.8904,6.8904,6.8889,6.8816,6.8654,6.8402,6.806,6.7789,6.7502,6.7167,6.7479,6.7762,6.7762,6.7762,6.7762,6.7762,6.7928,6.7987,6.7987,6.9229,6.9977,7.0007,7.056,7.0889,7.0889,7.0889,7.0889,7.0889,7.0889,7.0889,7.0889,7.0889,7.0889,7.0889,7.0889,7.0889,5.2999,5.6794,6.1122,6.6862,7.0709,7.334,7.4147,7.4617,7.4911,7.4955,7.5249,7.5535,7.5535,7.5836,7.624,7.6673,7.7069,7.7582,7.8479,7.8251,7.8288,7.9147,7.8846,7.8589,7.8589,7.8214,7.751,7.6352,7.546,7.4492,7.3331,7.2908,7.2864,7.3278,7.3278,7.3278,7.3278,7.3054,7.2817,7.2566,7.3072,7.3583,7.4052,7.4469,7.4639,7.4571,7.3454,7.3375,7.4052,7.3657,7.3916,7.4683,7.5405,7.5709,7.5709,7.5709,7.5709,7.5709,7.5709,7.5709,7.5709,7.5709,7.534,7.4662,7.3535,7.238,7.1233,7.0109,6.9369,6.8904,6.8904,6.8904,6.8904,6.8904,6.8904,6.8904,6.8904,6.8904,6.8816,6.8521,6.8432,6.8224,6.7638,6.7381,6.7213,6.7029,6.7553,6.7987,6.7987,6.8271,6.8361,6.8047,6.8571,6.881,6.8511,6.9678,7.0426,7.0426,7.0739,7.0889,7.0889,7.0889,7.0889,7.0889,7.0889,7.0889,7.0889,7.0889,7.0889,7.0889,7.0889,7.0889,5.2815,5.7793,6.2885,6.8171,7.077,7.2312,7.3083,7.381,7.414,7.3597,7.4147,7.4691,7.4691,7.5241,7.5763,7.6056,7.6673,7.7399,7.8259,7.7766,7.7582,7.8295,7.7729,7.7281,7.7281,7.7281,7.6656,7.5119,7.501,7.4321,7.2786,7.2692,7.2692,7.2692,7.2692,7.2671,7.2628,7.2245,7.2007,7.192,7.2135,7.2935,7.4209,7.3443,7.3319,7.3624,7.2766,7.28,7.3488,7.3488,7.3916,7.4683,7.5405,7.5709,7.5709,7.5709,7.5709,7.5709,7.5709,7.5709,7.5709,7.5709,7.4929,7.3777,7.2645,7.1493,7.0347,6.9224,6.8904,6.8904,6.8904,6.8904,6.8889,6.883,6.886,6.8889,6.883,6.886,6.8713,6.8135,6.8119,6.8015,6.7317,6.7074,6.7074,6.7313,6.7822,6.8211,6.8347,6.884,6.8944,6.8391,6.9349,6.9768,6.9213,7.0231,7.0889,7.0889,7.0889,7.0889,7.0889,7.0889,7.0889,7.0889,7.0889,7.0889,7.0889,7.0889,7.0889,7.0889,7.0889,7.0889,4.762,5.4868,6.2481,6.6079,6.8715,7.0624,7.1424,7.1711,7.1967,7.2532,7.3303,7.3861,7.3861,7.3935,7.4485,7.5873,7.6203,7.6526,7.7362,7.7362,7.7355,7.7472,7.7362,7.7281,7.7281,7.7281,7.6656,7.5119,7.501,7.4321,7.2786,7.2692,7.2692,7.2692,7.2692,7.2586,7.2363,7.2298,7.2072,7.1644,7.1503,7.1875,7.2665,7.1943,7.2653,7.4378,7.3003,7.28,7.3488,7.3488,7.3916,7.4683,7.5405,7.5709,7.5709,7.5709,7.5709,7.5709,7.5709,7.5709,7.5709,7.5709,7.4929,7.3777,7.2645,7.1493,7.0347,6.9224,6.8904,6.8904,6.8904,6.8904,6.883,6.855,6.8698,6.883,6.852,6.8698,6.8713,6.8135,6.7804,6.7683,6.784,6.7373,6.7388,6.8555,6.8794,6.9064,6.9648,6.9798,6.9828,6.9738,6.9887,6.9947,6.9858,7.05,7.0889,7.0889,7.0889,7.0889,7.0889,7.0889,7.0889,7.0889,7.0889,7.0889,7.0889,7.0889,7.0889,7.0889,7.0889,7.0889,4.9622,5.5014,6.0236,6.5785,6.762,6.8641,7.0793,7.0947,7.0734,7.1064,7.1798,7.2488,7.2936,7.3384,7.3935,7.4632,7.5139,7.5535,7.5894,7.5968,7.5968,7.5968,7.6335,7.6454,7.604,7.6437,7.6032,7.4463,7.434,7.3864,7.2765,7.2692,7.2692,7.2692,7.2554,7.2427,7.2309,7.2027,7.1732,7.1434,7.1345,7.1672,7.236,7.1639,7.1842,7.2721,7.2078,7.2191,7.2913,7.3319,7.3916,7.4683,7.5405,7.5709,7.5709,7.5709,7.5709,7.5709,7.5709,7.5709,7.5709,7.5709,7.4501,7.2946,7.2447,7.1072,6.954,6.9034,6.8904,6.8904,6.8904,6.8904,6.8875,6.8727,6.8668,6.855,6.8238,6.8417,6.8538,6.8304,6.7999,6.7948,6.8482,6.8331,6.8196,6.8421,6.9079,6.9528,6.9453,7.0051,7.0366,7.0037,7.0306,7.0366,7.0037,7.056,7.0889,7.0889,7.0889,7.0889,7.0889,7.0889,7.0889,7.0889,7.0889,7.0889,7.0889,7.0889,7.0889,7.0889,7.0889,7.0889,4.9317,5.3115,5.6492,6.3001,6.5271,6.6696,6.9699,7.0066,6.9926,7.033,7.0727,7.1241,7.2048,7.2863,7.3457,7.3678,7.4184,7.4654,7.4867,7.4903,7.4903,7.4903,7.5252,7.5361,7.5021,7.5356,7.5102,7.3872,7.3799,7.3467,7.2744,7.2692,7.2671,7.2597,7.2405,7.2256,7.2114,7.171,7.1446,7.13,7.13,7.1605,7.209,7.1537,7.13,7.13,7.1097,7.1345,7.1921,7.2845,7.3544,7.4142,7.527,7.5709,7.5709,7.5709,7.5709,7.5709,7.5709,7.5709,7.564,7.5364,7.393,7.2247,7.1953,7.0473,6.8904,6.8904,6.8904,6.8904,6.8904,6.8904,6.886,6.8713,6.8535,6.8343,6.8075,6.8014,6.8061,6.8227,6.813,6.8211,6.8884,6.9004,6.8884,6.8556,6.9349,6.9828,6.9319,7.0231,7.0739,7.0277,7.062,7.0709,7.0277,7.0649,7.0889,7.0889,7.0889,7.0889,7.0889,7.0889,7.0889,7.0889,7.0889,7.0889,7.0889,7.0889,7.0889,7.0889,7.0889,7.0889,4.1997,4.6324,5.0917,5.5181,6.0248,6.4874,6.7333,6.8458,6.9405,7.0903,7.0653,7.0403,7.1197,7.2011,7.2826,7.3567,7.3751,7.4037,7.4793,7.4903,7.4903,7.4903,7.4311,7.4203,7.4943,7.4407,7.3971,7.3798,7.3799,7.3467,7.2744,7.2692,7.2586,7.2341,7.232,7.207,7.1644,7.1412,7.1312,7.13,7.13,7.1334,7.1368,7.1334,7.13,7.1267,7.0567,7.0274,7.0443,7.1853,7.2496,7.2732,7.4864,7.5709,7.5709,7.5709,7.5709,7.5709,7.5709,7.5709,7.552,7.4439,7.329,7.21,7.103,6.9839,6.8904,6.8904,6.8904,6.8904,6.8904,6.8904,6.8757,6.8194,6.8224,6.8343,6.8075,6.7517,6.7167,6.7487,6.7784,6.8211,6.8884,6.9004,6.9183,6.9798,6.9947,6.9977,6.9947,7.05,7.0889,7.0859,7.0889,7.0889,7.0859,7.0889,7.0889,7.0889,7.0889,7.0889,7.0889,7.0889,7.0889,7.0889,7.0889,7.0889,7.0889,7.0889,7.0889,7.0889,7.0889,7.0889,4.1446,4.4672,4.8421,5.356,5.7525,6.0939,6.3906,6.6402,6.8281,6.8862,6.9566,7.0183,7.0477,7.1204,7.1975,7.2789,7.2936,7.3046,7.3333,7.3369,7.3369,7.3369,7.3143,7.3134,7.3423,7.3259,7.3108,7.3093,7.309,7.2991,7.2713,7.2533,7.2405,7.232,7.2005,7.1699,7.1401,7.1345,7.13,7.13,7.13,7.13,7.13,7.13,7.13,7.13,7.103,7.1176,7.165,7.2191,7.2969,7.3939,7.5202,7.5709,7.5709,7.5709,7.5709,7.5709,7.5709,7.5709,7.5508,7.4365,7.3239,7.2087,7.0961,6.9782,6.8904,6.8904,6.8904,6.8904,6.8904,6.8757,6.8432,6.7804,6.8077,6.838,6.8074,6.7813,6.7913,6.8907,6.9188,6.9468,7.0111,7.0231,7.0171,7.0007,7.0336,7.044,7.0037,7.053,7.0889,7.0889,7.0889,7.0889,7.0889,7.0889,7.0889,7.0889,7.0889,7.0889,7.0889,7.0889,7.0889,7.0889,7.0889,7.0889,7.0889,7.0889,7.0889,7.0889,7.0889,7.0889,4.0128,4.302,4.6654,5.1536,5.4583,5.7514,6.1838,6.4487,6.6372,6.748,6.8758,6.9779,7.0043,7.055,7.1167,7.1975,7.2305,7.2488,7.2488,7.2488,7.2488,7.2488,7.2351,7.2312,7.2575,7.2429,7.2419,7.2665,7.2692,7.2692,7.2692,7.2448,7.2245,7.2059,7.1688,7.1434,7.13,7.13,7.13,7.13,7.13,7.13,7.13,7.103,7.1064,7.13,7.103,7.1334,7.209,7.2563,7.3341,7.4322,7.5303,7.5709,7.5709,7.5709,7.5709,7.5709,7.5709,7.5709,7.5448,7.3917,7.2907,7.202,7.0487,6.9497,6.8904,6.8904,6.897,6.9065,6.9065,6.8891,6.8668,6.841,6.8497,6.8672,6.8663,6.8481,6.86,6.9498,6.9858,7.0127,7.053,7.0769,7.0709,7.0097,7.05,7.0679,7.0067,7.053,7.0889,7.0889,7.0889,7.0889,7.0889,7.0889,7.0889,7.0889,7.0889,7.0889,7.0889,7.0889,7.0889,7.0889,7.0889,7.0889,7.0889,7.0889,7.0889,7.0889,7.0889,7.0889,0.0,0.0,0.0,4.8526,5.1169,5.4682,6.0994,6.2499,6.3533,6.6849,6.8208,6.9038,6.9933,7.0117,7.0367,7.116,7.1975,7.2452,7.2488,7.2488,7.2496,7.2525,7.1938,7.18,7.2558,7.1954,7.1819,7.2623,7.2692,7.2692,7.2692,7.2448,7.2059,7.1611,7.139,7.13,7.13,7.13,7.13,7.13,7.13,7.13,7.1233,7.0534,7.0601,7.1267,7.0578,7.0703,7.1503,7.2913,7.3522,7.3691,7.5134,7.5709,7.5709,7.5709,7.5709,7.5709,7.5709,7.5697,7.5258,7.3024,7.2274,7.1832,6.9583,6.8904,6.8904,6.8935,6.9175,6.9426,6.9427,6.9411,6.9508,6.9866,6.9491,6.9213,6.9858,6.9498,6.9064,6.9064,6.9572,7.0037,7.0037,7.05,7.0709,7.0097,7.053,7.0679,7.0097,7.053,7.0889,7.0889,7.0889,7.0889,7.0889,7.0889,7.0889,7.0889,7.0889,7.0889,7.0889,7.0889,7.0889,7.0889,7.0889,7.0889,7.0889,7.0889,7.0889,7.0889,7.0889,7.0889,3.8546,0.0,0.0,0.0,0.0,0.0,5.2569,5.5506,5.8841,6.3239,6.4824,6.6409,6.9529,7.0117,7.0367,7.116,7.149,7.1828,7.2415,7.2488,7.2716,7.3303,7.2271,7.2014,7.3351,7.2278,7.1819,7.2623,7.2692,7.2692,7.2692,7.2309,7.1865,7.1412,7.1334,7.13,7.13,7.13,7.13,7.13,7.13,7.103,7.0511,7.0308,7.0601,7.1334,7.165,7.2529,7.3668,7.3556,7.4131,7.5146,7.554,7.5709,7.5709,7.5709,7.5709,7.5709,7.5709,7.5149,7.424,7.2763,7.1737,7.0808,6.9354,6.8904,6.8996,6.9489,6.9692,6.9774,6.9809,6.9837,6.9756,6.9367,6.9505,6.9768,6.9947,7.0201,7.038,7.038,7.053,7.0649,7.0649,7.0799,7.0829,7.0679,7.0799,7.0829,7.0679,7.0799,7.0889,7.0889,7.0889,7.0889,7.0889,7.0889,7.0889,7.0889,7.0889,7.0889,7.0889,7.0889,7.0889,7.0889,7.0889,7.0889,7.0889,7.0889,7.0889,7.0889,7.0889,7.0889,0.0,0.0,0.0,4.57,0.0,0.0,5.1326,5.3419,5.5868,6.037,6.2505,6.4383,6.7106,6.8134,6.8972,7.0103,7.058,7.1094,7.1901,7.1725,7.1908,7.3053,7.2174,7.2094,7.3636,7.2708,7.2209,7.2657,7.2692,7.2607,7.2416,7.205,7.1667,7.1312,7.13,7.13,7.13,7.13,7.13,7.13,7.13,7.0906,7.0206,7.0206,7.0601,7.1334,7.2078,7.324,7.4581,7.4458,7.4909,7.5709,7.5709,7.5709,7.5709,7.5709,7.5709,7.5709,7.5709,7.4954,7.3803,7.2658,7.152,7.0375,6.9253,6.8904,6.9027,6.969,7.0215,7.0572,7.0767,7.0715,7.0495,7.0084,7.0193,7.0396,7.0396,7.0649,7.0889,7.0889,7.0889,7.0889,7.0889,7.0889,7.0889,7.0889,7.0889,7.0889,7.0889,7.0889,7.0889,7.0889,7.0889,7.0889,7.0889,7.0889,7.0889,7.0889,7.0889,7.0889,7.0889,7.0889,7.0889,7.0889,7.0889,7.0889,7.0889,7.0889,7.0889,7.0889,7.0889,7.0889,0.0,0.0,0.0,0.0,4.8957,0.0,5.323,5.3445,5.3691,5.7398,5.993,6.1845,6.3068,6.461,6.6145,6.7607,6.8862,7.011,7.127,7.08,7.0917,7.2459,7.199,7.212,7.3538,7.2997,7.2589,7.2564,7.2533,7.2287,7.1768,7.1596,7.1388,7.1165,7.1267,7.13,7.13,7.13,7.13,7.13,7.13,7.0906,7.0206,7.0274,7.0737,7.147,7.2191,7.3375,7.4784,7.5439,7.5709,7.5709,7.5709,7.5709,7.5709,7.5709,7.5743,7.5845,7.5845,7.5014,7.3782,7.2762,7.1502,7.0223,6.9209,6.8965,6.9181,6.992,7.0801,7.161,7.192,7.1706,7.1373,7.1371,7.1129,7.0889,7.0889,7.0889,7.0889,7.0889,7.0889,7.0889,7.0889,7.0889,7.0889,7.0889,7.0889,7.0889,7.0889,7.0889,7.0889,7.0889,7.0889,7.0889,7.0889,7.0889,7.0889,7.0889,7.0889,7.0889,7.0889,7.0889,7.0889,7.0889,7.0889,7.0889,7.0889,7.0889,7.0889,7.0889,7.0889,7.0949,0.0,0.0,0.0,0.0,4.8967,0.0,4.6663,4.7609,4.9659,5.1179,5.2344,5.4174,5.7587,5.9526,6.0737,6.1031,6.4524,6.8385,7.1791,7.2121,7.2386,7.3347,7.2798,7.2496,7.2869,7.2197,7.1733,7.1733,7.1593,7.1087,7.0209,7.0529,7.0607,7.0409,7.0996,7.13,7.13,7.13,7.13,7.13,7.13,7.0906,7.0206,7.0804,7.147,7.2225,7.2981,7.4119,7.5506,7.5642,7.5709,7.5709,7.5709,7.5709,7.5709,7.5709,7.6115,7.6657,7.6657,7.5288,7.3491,7.3263,7.1406,6.9195,6.8977,6.9273,6.9981,7.1244,7.1936,7.2237,7.2042,7.1706,7.1309,7.1081,7.0938,7.0889,7.0889,7.0889,7.0889,7.0889,7.0889,7.0889,7.0889,7.0889,7.0889,7.0889,7.0889,7.0889,7.0889,7.0889,7.0889,7.0889,7.0889,7.0889,7.0889,7.0889,7.0889,7.0889,7.0889,7.0889,7.0889,7.0889,7.0889,7.0889,7.0889,7.0889,7.0889,7.0889,7.0889,7.0889,7.0889,7.1188,0.0,0.0,0.0,5.0362,0.0,0.0,0.0,4.8301,4.8888,5.0986,5.077,5.1321,5.495,5.6266,5.7324,5.8933,6.2615,6.5858,6.7423,6.9779,7.1762,7.2973,7.2412,7.2279,7.3145,7.2179,7.1313,7.0839,7.0583,7.018,6.9572,6.9721,6.991,7.0172,7.0567,7.0939,7.13,7.13,7.13,7.13,7.13,7.0906,7.024,7.0962,7.1706,7.2428,7.3184,7.4334,7.5709,7.5709,7.5709,7.5709,7.5709,7.5709,7.5709,7.5709,7.6217,7.6893,7.6893,7.5601,7.3877,7.352,7.1809,6.9751,6.9089,6.9612,7.0583,7.1476,7.2088,7.2374,7.185,7.1548,7.1339,7.097,7.0889,7.0889,7.0889,7.0889,7.0889,7.0889,7.0889,7.0889,7.0889,7.0889,7.0889,7.0889,7.0889,7.0889,7.0889,7.0889,7.0889,7.0889,7.0889,7.0889,7.0889,7.0889,7.0889,7.0889,7.0889,7.0889,7.0889,7.0889,7.0889,7.0889,7.0889,7.0889,7.0889,7.1248,7.1398,7.1398,7.1757,7.2086,0.0,0.0,0.0,0.0,0.0,5.1877,0.0,0.0,0.0,5.1196,5.0146,4.9747,5.2491,5.2999,5.3843,5.6438,6.0015,6.2077,6.089,6.5191,6.9009,7.047,7.047,7.0964,7.2485,7.1232,7.0199,6.9887,6.9049,6.8671,6.8957,6.8904,6.9147,6.9733,7.0037,7.0477,7.1064,7.1233,7.13,7.13,7.13,7.0996,7.0443,7.1165,7.1909,7.2665,7.3387,7.4469,7.5709,7.5709,7.5709,7.5709,7.5709,7.5709,7.5709,7.5709,7.6284,7.7096,7.7096,7.6207,7.4922,7.4088,7.2492,7.0736,6.9766,7.0214,7.1077,7.149,7.1946,7.2153,7.1564,7.1371,7.1258,7.0954,7.0889,7.0889,7.0889,7.0889,7.0889,7.0889,7.0889,7.0889,7.0889,7.0889,7.0889,7.0889,7.0889,7.0889,7.0889,7.0889,7.0889,7.0889,7.0889,7.0889,7.0889,7.0889,7.0889,7.0889,7.0889,7.0889,7.0889,7.0889,7.0949,7.1098,7.1098,7.1158,7.1308,7.1966,7.2162,7.1923,7.2595,7.2967,0.0,0.0,0.0,5.4719,5.6822,5.7855,4.8788,0.0,4.9586,4.6351,0.0,4.6654,4.7741,0.0,0.0,4.8397,5.3041,5.5768,5.3524,5.8626,6.2915,6.379,6.5743,6.7432,6.8395,6.7032,6.6915,6.8879,6.6157,6.5287,6.7334,6.7819,6.8064,6.8166,6.9496,7.024,7.0308,7.0962,7.13,7.13,7.13,7.1267,7.1199,7.1954,7.2665,7.3421,7.4153,7.4931,7.5709,7.5709,7.5709,7.5709,7.5709,7.5709,7.5709,7.5709,7.6635,7.7887,7.7887,7.753,7.6862,7.5711,7.333,7.0982,7.149,7.1507,7.149,7.2178,7.1965,7.1516,7.1405,7.1164,7.0938,7.0919,7.0889,7.0889,7.0889,7.0889,7.0889,7.0889,7.0889,7.0889,7.0889,7.0889,7.0889,7.0889,7.0889,7.0889,7.0889,7.0889,7.0889,7.0889,7.0889,7.0889,7.0889,7.0889,7.0889,7.0889,7.0889,7.0889,7.0889,7.0889,7.1188,7.1773,7.1803,7.2086,7.2668,7.3343,7.3043,7.1923,7.2595,7.3223,0.0,5.9679,6.0407,5.6297,5.6712,5.6576,5.077,4.9407,4.9145,4.8375,0.0,0.0,0.0,0.0,0.0,0.0,5.0618,5.2129,5.0141,5.3413,5.7189,6.0334,6.2432,6.4217,6.5584,6.4683,6.4563,6.591,6.374,6.332,6.5576,6.6289,6.7026,6.7861,6.8977,6.9766,7.0206,7.0928,7.13,7.13,7.13,7.13,7.1334,7.2045,7.28,7.3556,7.4277,7.5021,7.5709,7.5709,7.5709,7.5709,7.5709,7.5709,7.5709,7.5709,7.6669,7.7988,7.7988,7.7527,7.6613,7.4726,7.2645,7.1075,7.2013,7.1873,7.1442,7.1766,7.1644,7.1371,7.1178,7.1032,7.0889,7.0889,7.0889,7.0889,7.0889,7.0889,7.0889,7.0889,7.0889,7.0889,7.0889,7.0889,7.0889,7.0889,7.0889,7.0889,7.0889,7.0889,7.0889,7.0889,7.0889,7.0889,7.0889,7.0889,7.0889,7.0889,7.0889,7.0889,7.0889,7.0889,7.1218,7.1893,7.1893,7.2235,7.2907,7.3582,7.3612,7.309,7.3732,7.4227,6.0529,6.1006,6.1447,5.7446,5.635,5.5328,5.1798,5.0288,4.9806,5.0362,4.926,0.0,0.0,0.0,4.7205,4.8154,0.0,4.9476,4.7562,4.9255,5.2197,5.6407,5.9275,6.1524,6.3008,6.1821,6.1703,6.3396,6.1178,6.1159,6.4437,6.5121,6.6068,6.7557,6.8571,6.935,6.9902,7.0827,7.13,7.13,7.13,7.13,7.1334,7.2045,7.28,7.3556,7.4277,7.5021,7.5709,7.5709,7.5709,7.5709,7.5709,7.5709,7.5709,7.5709,7.6669,7.7988,7.7988,7.7402,7.6267,7.4176,7.2521,7.1491,7.2271,7.1976,7.1389,7.1413,7.1309,7.1226,7.0954,7.0889,7.0889,7.0889,7.0889,7.0889,7.0889,7.0889,7.0889,7.0889,7.0889,7.0889,7.0889,7.0889,7.0889,7.0889,7.0889,7.0889,7.0889,7.0889,7.0889,7.0889,7.0889,7.0889,7.0889,7.0889,7.0889,7.0889,7.1068,7.1158,7.1158,7.1368,7.1757,7.2432,7.2461,7.2791,7.3462,7.3941,7.4151,7.4197,7.4676,7.4886,6.4794,6.5645,6.5571,5.7604,5.6791,5.6235,4.9879,5.0834,5.2412,5.0115,5.2024,5.3665,5.2207,5.0597,0.0,0.0,4.8338,0.0,0.0,4.6237,4.8218,5.076,5.593,5.9588,6.0426,5.768,5.7725,6.2309,5.8262,5.8237,6.4288,6.4613,6.5314,6.6802,6.8301,6.9113,6.9147,7.0556,7.13,7.13,7.13,7.13,7.1334,7.2045,7.28,7.3556,7.4277,7.5021,7.5709,7.5709,7.5709,7.5709,7.5709,7.5709,7.5709,7.5709,7.6669,7.7988,7.7988,7.7402,7.6395,7.5154,7.3706,7.2469,7.2484,7.1964,7.1421,7.1389,7.1178,7.0905,7.0889,7.0889,7.0889,7.0889,7.0889,7.0889,7.0889,7.0889,7.0889,7.0889,7.0889,7.0889,7.0889,7.0889,7.0889,7.0889,7.0889,7.0889,7.0889,7.0889,7.0889,7.0889,7.0889,7.0889,7.0889,7.0889,7.0889,7.0889,7.1517,7.1863,7.1863,7.2505,7.3146,7.3821,7.3821,7.4168,7.4826,7.4856,7.4873,7.4873,7.4886,7.4886,6.6783,6.7841,6.7731,6.1196,5.9575,5.8033,5.2092,5.2008,5.2485,5.0036,5.2129,5.3739,5.161,5.0335,0.0,0.0,0.0,4.6246,0.0,4.5617,4.6613,4.7462,5.1646,5.4546,5.4808,5.4391,5.5135,5.7703,5.638,5.7515,6.2159,6.3802,6.529,6.6768,6.829,6.9316,6.9834,7.0793,7.13,7.13,7.13,7.13,7.1334,7.2563,7.3251,7.3556,7.4796,7.5473,7.5709,7.5709,7.5709,7.5709,7.5709,7.5709,7.5709,7.5709,7.6352,7.7171,7.657,7.6461,7.6238,7.3994,7.2922,7.2405,7.1915,7.1612,7.1371,7.1115,7.1,7.0889,7.0889,7.0889,7.0889,7.0889,7.0889,7.0889,7.0889,7.0889,7.0889,7.0889,7.0889,7.0889,7.0889,7.0889,7.0889,7.0889,7.0889,7.0889,7.0889,7.0889,7.0889,7.0889,7.0889,7.0889,7.0889,7.0889,7.0889,7.0889,7.1534,7.1893,7.1893,7.2535,7.3223,7.3881,7.3881,7.4227,7.4886,7.4886,7.4886,7.4886,7.4886,7.4886,6.8355,6.9089,6.8869,6.3766,6.2114,6.0236,5.4552,5.4583,5.4981,5.2239,5.3592,5.4944,5.3985,5.1945,5.0188,0.0,0.0,0.0,0.0,4.4966,4.5475,4.5475,4.883,5.1276,5.1556,5.1417,5.2362,5.4952,5.444,5.6024,6.0626,6.2753,6.4749,6.6734,6.829,6.9451,7.0206,7.0928,7.13,7.13,7.13,7.13,7.1334,7.2563,7.3116,7.3184,7.4661,7.5303,7.5337,7.5574,7.5709,7.5709,7.5709,7.5709,7.5709,7.5709,7.6386,7.7094,7.5629,7.5797,7.6149,7.3244,7.2394,7.2374,7.1787,7.1516,7.1309,7.097,7.0889,7.0889,7.0889,7.0889,7.0889,7.0889,7.0889,7.0889,7.0889,7.0889,7.0889,7.0889,7.0889,7.0889,7.0889,7.0889,7.0889,7.0889,7.0889,7.0889,7.0889,7.0889,7.0889,7.0889,7.0889,7.0889,7.0889,7.0889,7.1009,7.1248,7.1876,7.2355,7.2611,7.3253,7.3821,7.4257,7.4257,7.4467,7.4886,7.4886,7.4886,7.4886,7.4886,7.5035]},{"header":{"parameterUnit":"m.s-1","parameterCategory":1,"la1":30.6,"la2":29.2853,"lo1":-89.7004,"lo2":-87.6739,"dy":0.0162,"dx":0.0183,"nx":112,"ny":82,"refTime":"2024-10-05T12:00:00:Z","depth":0,"parameterNumber":3,"parameterNumberName":"V-component_of_WINDS"},"data":[0.0,0.0,0.0,0.0,0.0,0.0,0.0,0.0,0.0,0.0,0.0,0.0,0.0,0.0,0.0,0.0,0.0,0.0,0.0,0.0,0.0,0.0,0.0,0.0,0.0,0.0,0.0,0.0,0.0,0.0,0.0,0.0,0.0,0.0,0.0,0.0,0.0,0.0,0.0,0.0,0.0,0.0,0.0,0.0,0.0,0.0,0.0,0.0,0.0,0.0,0.0,0.0,0.0,0.0,0.0,0.0,0.0,0.0,0.0,0.0,0.0,0.0,0.0,0.0,0.0,0.0,0.0,0.0,0.0,0.0,0.0,0.0,0.0,0.0,0.0,0.0,0.0,0.0,0.0,0.0,0.0,0.0,0.0,0.0,0.0,0.0,0.0,0.0,0.0,0.0,1.7248,1.8691,2.0201,2.1112,2.115,2.1243,2.067,1.9172,0.0,0.0,0.0,0.0,0.0,0.0,0.0,0.0,0.0,0.0,0.0,0.0,0.0,0.0,0.0,0.0,0.0,0.0,0.0,0.0,0.0,0.0,0.0,0.0,0.0,0.0,0.0,0.0,0.0,0.0,0.0,0.0,0.0,0.0,0.0,0.0,0.0,0.0,0.0,0.0,0.0,0.0,0.0,0.0,0.0,0.0,0.0,0.0,0.0,0.0,0.0,0.0,0.0,0.0,0.0,0.0,0.0,0.0,0.0,0.0,0.0,0.0,0.0,0.0,0.0,0.0,0.0,0.0,0.0,0.0,0.0,0.0,0.0,0.0,0.0,0.0,0.0,0.0,0.0,0.0,0.0,0.0,0.0,0.0,0.0,0.0,0.0,0.0,0.0,0.0,0.0,0.0,0.0,0.0,0.0,0.0,0.0,0.0,0.0,0.0,0.0,0.0,0.0,0.0,1.7635,2.0095,2.0802,2.1666,2.3049,2.2612,2.2364,2.2529,0.0,0.0,0.0,0.0,0.0,0.0,0.0,0.0,0.0,0.0,0.0,0.0,0.0,0.0,0.0,0.0,0.0,0.0,0.0,0.0,0.0,0.0,0.0,0.0,0.0,0.0,0.0,0.0,0.0,0.0,0.0,0.0,0.0,0.0,0.0,0.0,0.0,0.0,0.0,0.0,0.0,0.0,0.0,0.0,0.0,0.0,0.0,0.0,0.0,0.0,0.0,0.0,0.0,0.0,0.0,0.0,0.0,0.0,0.0,0.0,0.0,0.0,0.0,0.0,0.0,0.0,0.0,0.0,0.0,0.0,0.0,0.0,0.0,0.0,0.0,0.0,0.0,0.0,0.0,0.0,0.0,0.0,0.0,0.0,0.0,0.0,0.0,0.0,0.0,0.0,0.0,0.0,0.0,0.0,0.0,0.0,0.0,0.0,0.0,0.0,0.0,0.0,0.0,1.7275,1.8504,2.0681,2.1848,2.266,2.3181,2.3741,2.3654,2.267,2.0212,0.0,0.0,0.0,0.0,0.0,0.0,0.0,0.0,0.0,0.0,0.0,0.0,0.0,0.0,0.0,0.0,0.0,0.0,0.0,0.0,0.0,0.0,0.0,0.0,0.0,0.0,0.0,0.0,0.0,0.0,0.0,0.0,0.0,0.0,0.0,0.0,0.0,0.0,0.0,0.0,0.0,0.0,0.0,0.0,0.0,0.0,0.0,0.0,0.0,0.0,0.0,0.0,0.0,0.0,0.0,0.0,0.0,0.0,0.0,0.0,0.0,0.0,0.0,0.0,0.0,0.0,0.0,0.0,0.0,0.0,0.0,0.0,0.0,0.0,0.0,0.0,0.0,0.0,0.0,0.0,0.0,0.0,0.0,0.0,0.0,0.0,0.0,0.0,0.0,0.0,0.0,0.0,0.0,0.0,0.0,0.0,0.0,0.0,0.0,0.0,0.0,0.0,1.9052,1.9933,2.1405,2.3061,2.4009,2.3944,2.4628,2.4349,2.2679,2.0694,0.0,0.0,0.0,0.0,0.0,0.0,0.0,0.0,0.0,0.0,0.0,0.0,0.0,0.0,0.0,0.0,0.0,0.0,0.0,0.0,0.0,0.0,0.0,0.0,0.0,0.0,0.0,0.0,0.0,0.0,0.0,0.0,0.0,0.0,0.0,0.0,0.0,0.0,0.0,0.0,0.0,0.0,0.0,0.0,0.0,0.0,0.0,0.0,0.0,0.0,0.0,0.0,0.0,0.0,0.0,0.0,0.0,0.0,0.0,0.0,0.0,0.0,0.0,0.0,0.0,0.0,0.0,0.0,0.0,0.0,0.0,0.0,0.0,0.0,0.0,0.0,0.0,0.0,0.0,0.0,0.0,0.0,0.0,0.0,0.0,0.0,0.0,0.0,0.0,0.0,0.0,0.0,0.0,0.0,0.0,0.0,0.0,0.0,0.0,0.0,0.0,0.0,2.0189,2.2197,2.2894,2.4409,2.5807,2.6911,2.5161,2.4067,2.4214,2.0401,0.0,0.0,0.0,0.0,0.0,0.0,0.0,0.0,0.0,0.0,0.0,0.0,0.0,0.0,0.0,0.0,0.0,0.0,0.0,0.0,0.0,0.0,0.0,0.0,0.0,0.0,0.0,0.0,0.0,0.0,0.0,0.0,0.0,0.0,0.0,0.0,0.0,0.0,0.0,0.0,0.0,0.0,0.0,0.0,0.0,0.0,0.0,0.0,0.0,0.0,0.0,0.0,0.0,0.0,0.0,0.0,0.0,0.0,0.0,0.0,0.0,0.0,0.0,0.0,0.0,0.0,0.0,0.0,0.0,0.0,0.0,0.0,0.0,0.0,0.0,0.0,0.0,0.0,0.0,0.0,0.0,0.0,0.0,0.0,0.0,0.0,0.0,0.0,0.0,0.0,0.0,0.0,0.0,0.0,0.0,0.0,0.0,0.0,0.0,0.0,0.0,0.0,1.9998,2.2139,2.33,2.5757,2.7282,2.7174,2.7086,2.5939,2.3393,0.0,0.0,0.0,0.0,0.0,0.0,0.0,0.0,0.0,0.0,0.0,0.0,0.0,0.0,0.0,0.0,0.0,0.0,0.0,0.0,0.0,0.0,0.0,0.0,0.0,0.0,0.0,0.0,0.0,0.0,0.0,0.0,0.0,0.0,0.0,0.0,0.0,0.0,0.0,0.0,0.0,0.0,0.0,0.0,0.0,0.0,0.0,0.0,0.0,0.0,0.0,0.0,0.0,0.0,0.0,0.0,0.0,0.0,0.0,0.0,0.0,0.0,0.0,0.0,0.0,0.0,0.0,0.0,0.0,0.0,0.0,0.0,0.0,0.0,0.0,0.0,0.0,0.0,0.0,0.0,0.0,0.0,0.0,0.0,0.0,0.0,0.0,0.0,0.0,0.0,0.0,0.0,0.0,0.0,0.0,0.0,0.0,0.0,0.0,0.0,0.0,0.0,1.792,2.1023,2.3467,2.4698,2.7361,2.8678,2.7812,2.7826,2.6342,2.2724,0.0,0.0,0.0,0.0,0.0,0.0,0.0,0.0,0.0,0.0,0.0,0.0,0.0,0.0,0.0,0.0,0.0,0.0,0.0,0.0,0.0,0.0,0.0,0.0,0.0,0.0,0.0,0.0,0.0,0.0,0.0,0.0,0.0,0.0,0.0,0.0,0.0,0.0,0.0,0.0,0.0,0.0,0.0,0.0,0.0,0.0,0.0,0.0,0.0,0.0,0.0,0.0,0.0,0.0,0.0,0.0,0.0,0.0,0.0,0.0,0.0,0.0,0.0,0.0,0.0,0.0,0.0,0.0,0.0,0.0,0.0,0.0,0.0,0.0,0.0,0.0,0.0,0.0,0.0,0.0,0.0,0.0,0.0,0.0,0.0,0.0,0.0,0.0,0.0,0.0,0.0,0.0,0.0,0.0,0.0,0.0,0.0,0.0,0.0,0.0,0.0,0.0,1.9352,2.3591,2.6691,2.7429,2.925,3.0045,2.9185,2.702,2.4789,0.0,0.0,0.0,0.0,0.0,0.0,0.0,0.0,0.0,0.0,0.0,0.0,0.0,0.0,0.0,0.0,0.0,0.0,0.0,0.0,0.0,0.0,0.0,0.0,0.0,0.0,0.0,0.0,0.0,0.0,0.0,0.0,0.0,0.0,0.0,0.0,0.0,0.0,0.0,0.0,0.0,0.0,0.0,0.0,0.0,0.0,0.0,0.0,0.0,0.0,0.0,0.0,0.0,0.0,0.0,0.0,0.0,0.0,0.0,0.0,0.0,0.0,0.0,0.0,0.0,0.0,0.0,0.0,0.0,0.0,0.0,0.0,0.0,0.0,0.0,0.0,0.0,0.0,0.0,0.0,0.0,0.0,0.0,0.0,0.0,0.0,0.0,0.0,0.0,0.0,0.0,0.0,0.0,0.0,0.0,0.0,0.0,0.0,0.0,0.0,0.0,0.0,0.0,1.9631,2.3904,2.7109,2.8039,2.9707,3.0397,2.9536,2.8267,2.5977,2.2305,0.0,0.0,0.0,0.0,0.0,0.0,0.0,0.0,0.0,0.0,0.0,0.0,0.0,0.0,0.0,0.0,0.0,0.0,0.0,0.0,0.0,0.0,0.0,0.0,0.0,0.0,0.0,0.0,0.0,0.0,0.0,0.0,0.0,0.0,0.0,0.0,0.0,0.0,0.0,0.0,0.0,0.0,0.0,0.0,0.0,0.0,0.0,0.0,0.0,0.0,0.0,0.0,0.0,0.0,0.0,0.0,0.0,0.0,0.0,0.0,0.0,0.0,0.0,0.0,0.0,0.0,0.0,0.0,0.0,0.0,0.0,0.0,0.0,0.0,0.0,0.0,0.0,0.0,0.0,0.0,0.0,0.0,0.0,0.0,0.0,0.0,0.0,0.0,0.0,0.0,0.0,0.0,0.0,0.0,0.0,0.0,0.0,0.0,0.0,0.0,0.0,0.0,2.0525,2.4876,2.8136,2.9094,3.023,3.0542,2.9676,2.8959,2.6777,2.2645,0.0,0.0,0.0,0.0,0.0,0.0,0.0,0.0,0.0,0.0,0.0,0.0,0.0,0.0,0.0,0.0,0.0,0.0,0.0,0.0,0.0,0.0,0.0,0.0,0.0,0.0,0.0,0.0,0.0,0.0,0.0,0.0,0.0,0.0,0.0,0.0,0.0,0.0,0.0,0.0,0.0,0.0,0.0,0.0,0.0,0.0,0.0,0.0,0.0,0.0,0.0,0.0,0.0,0.0,0.0,0.0,0.0,0.0,0.0,0.0,0.0,0.0,0.0,0.0,0.0,0.0,0.0,0.0,0.0,0.0,0.0,0.0,0.0,0.0,0.0,0.0,0.0,0.0,0.0,0.0,0.0,0.0,0.0,0.0,0.0,0.0,0.0,0.0,0.0,0.0,0.0,0.0,0.0,0.0,0.0,0.0,0.0,0.0,0.0,0.0,0.0,0.0,2.1919,2.6224,2.9449,3.0339,3.0718,3.0542,2.9676,2.916,2.7279,2.3463,0.0,0.0,0.0,0.0,0.0,0.0,0.0,0.0,0.0,0.0,0.0,0.0,0.0,0.0,0.0,0.0,0.0,0.0,0.0,0.0,0.0,0.0,0.0,0.0,0.0,0.0,0.0,0.0,0.0,0.0,0.0,0.0,0.0,0.0,0.0,0.0,0.0,0.0,0.0,0.0,0.0,0.0,0.0,0.0,0.0,0.0,0.0,0.0,0.0,0.0,0.0,0.0,0.0,0.0,0.0,0.0,0.0,0.0,0.0,0.0,1.1232,0.9284,0.0,0.0,0.0,0.0,0.0,0.0,0.0,0.0,0.0,0.0,0.0,0.0,0.0,0.0,0.0,0.0,0.0,0.0,0.0,0.0,0.0,0.0,0.0,0.0,0.0,0.0,0.0,0.0,0.0,0.0,0.0,0.0,0.0,0.0,0.0,0.0,0.0,0.0,0.0,0.0,2.3135,2.6739,2.952,3.0665,3.0869,3.0542,2.9676,2.916,2.7532,2.4344,2.2539,0.0,0.0,0.0,0.0,0.0,0.0,0.0,0.0,0.0,0.0,0.0,0.0,0.0,0.0,0.0,0.0,0.0,0.0,0.0,0.0,0.0,0.0,0.0,0.0,0.0,0.0,0.0,0.0,0.0,0.0,0.0,0.0,0.0,0.0,0.0,0.0,0.0,0.0,0.0,0.0,0.0,0.0,0.0,0.0,0.0,0.0,0.0,0.0,0.0,0.0,0.0,0.0,0.0,0.0,0.0,0.0,0.0,0.0,0.0,1.3474,1.2161,0.0,0.0,0.0,0.0,0.0,0.0,0.0,0.0,0.0,0.0,0.0,0.0,0.0,0.0,0.0,0.0,0.0,0.0,0.0,0.0,0.0,0.0,0.0,0.0,0.0,0.0,0.0,0.0,0.0,0.0,0.0,0.0,0.0,0.0,0.0,0.0,0.0,0.0,0.0,0.0,2.3936,2.7214,2.9752,3.0786,3.0913,3.0542,2.9676,2.9369,2.8125,2.5527,2.4152,0.0,0.0,0.0,0.0,0.0,0.0,0.0,0.0,0.0,0.0,0.0,0.0,0.0,0.0,0.0,0.0,0.0,0.0,0.0,0.0,0.0,0.0,0.0,0.0,0.0,0.0,0.0,0.0,0.0,0.0,0.0,0.0,0.0,0.0,0.0,0.0,0.0,0.0,0.0,0.0,0.0,0.0,0.0,0.0,0.0,0.0,0.0,0.0,0.0,0.0,0.0,0.0,0.0,1.7161,1.7411,1.7638,1.6935,1.7264,1.8293,1.6119,1.5726,1.6355,1.318,0.0,0.0,0.0,0.0,0.0,0.0,0.0,0.0,0.0,0.0,0.0,0.0,0.0,0.0,0.0,0.0,0.0,0.0,0.0,0.0,0.0,0.0,1.6254,1.7317,1.8274,1.8317,1.5981,0.0,0.0,0.0,0.0,0.0,0.0,0.0,0.0,0.0,0.0,0.0,2.4832,2.7808,2.9995,3.0801,3.0913,3.0581,2.9774,2.9696,2.8842,2.6868,2.5911,2.4574,0.0,0.0,0.0,0.0,0.0,0.0,0.0,0.0,0.0,0.0,0.0,0.0,0.0,0.0,0.0,0.0,0.0,0.0,0.0,0.0,0.0,0.0,0.0,0.0,0.0,0.0,0.0,0.0,0.0,0.0,0.0,0.0,0.8636,0.9896,0.0,0.0,0.0,0.0,0.0,0.0,0.0,0.0,0.0,0.0,0.0,0.0,0.0,1.7336,1.8009,1.8908,1.9594,2.0102,2.0815,2.1294,2.1557,2.1435,2.1608,2.1983,2.1425,0.0,1.6972,1.6346,0.0,0.0,0.0,0.0,0.0,0.0,0.0,0.0,0.0,0.0,0.0,0.0,0.0,0.0,0.0,0.0,0.0,0.0,0.0,0.0,0.0,0.0,1.9994,2.0155,2.0479,2.0521,1.9637,1.7702,1.6126,1.6089,1.567,1.5332,0.0,0.0,0.0,0.0,0.0,0.0,2.6685,2.8817,3.0312,3.084,3.0913,3.0698,3.017,3.0131,2.9545,2.8138,2.7226,2.6277,2.5238,2.3309,0.0,0.0,0.0,0.0,0.0,0.0,0.0,0.0,0.0,0.0,0.0,0.0,0.0,0.0,0.0,0.0,0.0,0.0,0.0,0.0,0.0,0.0,0.0,0.0,0.0,0.0,0.0,0.0,0.0,0.784,0.9228,1.0117,1.0557,1.0932,0.0,0.0,0.0,0.0,0.0,0.0,0.0,0.0,0.0,1.8822,1.9298,1.9842,2.049,2.1148,2.1595,2.1825,2.2332,2.2642,2.2763,2.2763,2.2804,2.292,2.2811,2.1796,2.014,1.8563,1.7027,1.5564,0.0,0.0,0.0,0.0,1.383,1.3605,1.567,1.6146,1.5803,1.5659,0.0,0.0,0.0,0.0,0.0,0.0,0.0,1.778,1.8287,1.9538,2.0826,2.1304,2.2123,2.2714,2.2462,2.1817,2.0685,1.8582,1.8207,1.7995,1.7243,1.8555,0.0,0.0,0.0,2.591,2.7635,2.9241,3.0371,3.0854,3.0913,3.0718,3.0234,3.0195,2.9877,2.909,2.8418,2.7799,2.7194,2.5566,2.3976,0.0,0.0,0.0,0.0,0.0,0.0,0.0,0.0,0.0,0.0,0.0,0.0,0.0,0.0,0.0,0.0,0.0,0.0,0.0,0.0,0.0,0.0,0.0,0.0,0.0,0.0,0.0,0.0,0.9015,1.0239,1.0714,1.2056,1.2817,0.0,0.0,0.0,0.0,0.0,0.0,1.8351,1.9052,1.9789,2.0586,2.1196,2.1728,2.2199,2.2598,2.2828,2.2882,2.3075,2.3208,2.3288,2.3288,2.3288,2.3288,2.3288,2.3143,2.2703,2.0516,1.9261,1.8526,1.7059,1.6181,1.5826,1.6513,1.6483,1.6444,1.8631,1.9111,1.8733,1.8578,1.8021,1.7104,1.5377,0.0,0.0,0.0,0.0,1.9438,2.0303,2.0837,2.1331,2.2051,2.3318,2.4309,2.4237,2.493,2.4705,2.1754,2.1386,2.1219,2.0224,2.1504,0.0,2.2679,2.4958,2.7182,2.86,2.9721,3.0508,3.0859,3.0913,3.0776,3.041,3.0371,3.021,2.9794,2.9316,2.8887,2.8476,2.7357,2.6008,2.4484,0.0,0.0,0.0,0.0,0.0,0.0,0.0,0.0,0.0,0.0,0.0,0.0,0.0,0.0,0.0,0.0,0.0,0.0,0.0,0.0,0.0,0.0,0.0,0.0,0.0,0.0,0.0,0.0,0.0,1.2791,1.537,0.0,0.0,0.0,0.0,1.7675,1.8473,1.9511,2.0845,2.1208,2.174,2.2526,2.2605,2.2744,2.3041,2.3065,2.3172,2.3347,2.339,2.3523,2.3764,2.3764,2.3764,2.3764,2.3764,2.3619,2.3306,2.2462,2.1812,2.1276,2.0927,1.9889,1.874,1.9975,1.9779,1.9098,2.0509,2.0806,2.065,2.1149,2.0414,1.9406,1.9584,1.9218,0.0,0.0,2.0535,2.1172,2.2048,2.2291,2.2415,2.2773,2.393,2.4876,2.4619,2.5651,2.6517,2.6123,2.5461,2.5145,2.5776,0.0,2.6058,2.6865,2.7667,2.8639,2.9941,3.0547,3.0859,3.0913,3.0913,3.0893,3.0874,3.0859,3.0678,3.0195,2.978,2.935,2.8893,2.808,2.7194,2.6282,2.4098,0.0,0.0,0.0,0.0,0.0,0.0,0.0,0.0,0.0,0.0,0.0,0.0,0.0,0.0,0.0,0.0,0.0,0.0,0.0,0.0,0.0,0.0,0.0,0.0,0.0,0.0,0.0,0.0,1.5031,1.7162,0.0,1.7433,1.8007,1.8779,1.9639,2.0455,2.1268,2.2097,2.2512,2.2855,2.3145,2.3314,2.3446,2.3562,2.3562,2.3591,2.3668,2.3668,2.3716,2.38,2.38,2.38,2.38,2.38,2.3752,2.3643,2.3374,2.2971,2.2514,2.2417,2.2046,2.1627,2.2087,2.2004,2.1714,2.2027,2.1946,2.168,2.1353,2.1093,2.0906,2.0852,2.1104,2.148,2.1805,2.2353,2.2872,2.2954,2.2989,2.3203,2.4051,2.533,2.6591,2.744,2.8692,2.9717,2.9852,2.8292,2.7025,2.7281,2.7884,2.8141,2.7629,2.869,2.9687,3.0137,3.062,3.0913,3.0913,3.0913,3.0913,3.0913,3.0625,3.0371,3.0215,2.9531,2.9068,2.8912,2.8392,2.7669,2.6804,2.5464,2.3499,0.0,0.0,0.0,0.0,0.0,0.0,0.0,0.0,0.0,0.0,0.0,0.0,0.0,0.0,0.0,0.0,0.0,0.0,0.0,0.0,0.0,0.0,0.0,0.0,0.0,1.4113,1.6387,1.6259,1.8569,1.9893,1.9111,1.9921,2.0797,2.1456,2.2072,2.2597,2.3051,2.3374,2.3527,2.3527,2.3716,2.38,2.38,2.38,2.38,2.38,2.38,2.38,2.38,2.38,2.38,2.38,2.38,2.38,2.38,2.38,2.3615,2.3329,2.3329,2.3329,2.3316,2.3232,2.3167,2.3053,2.2702,2.2535,2.2416,2.1879,2.1966,2.2257,2.2122,2.2608,2.3211,2.3262,2.3594,2.3892,2.3656,2.3897,2.4379,2.5001,2.6625,2.8312,2.9265,3.0531,3.1642,3.2068,3.054,2.922,2.9334,2.9842,2.9955,2.9115,2.9819,3.0444,3.0444,3.0718,3.0913,3.0913,3.0913,3.0835,3.0678,3.0234,2.9995,2.9995,2.9111,2.8662,2.8833,2.8239,2.7608,2.705,2.64,2.5047,2.294,0.0,0.0,0.0,0.0,0.0,0.0,0.0,0.0,0.0,0.0,0.0,0.0,0.0,0.0,0.0,0.0,0.0,0.0,0.0,0.0,0.0,0.0,0.0,1.3557,1.568,1.719,1.6562,1.9714,2.1414,2.0134,2.1654,2.2835,2.3089,2.3289,2.3535,2.3788,2.38,2.38,2.38,2.38,2.38,2.38,2.38,2.38,2.38,2.38,2.38,2.38,2.38,2.38,2.38,2.38,2.38,2.38,2.38,2.38,2.38,2.38,2.38,2.3776,2.3523,2.3304,2.3067,2.2527,2.2607,2.2912,2.2912,2.3135,2.3443,2.3559,2.3804,2.4053,2.4179,2.4222,2.4222,2.4263,2.5135,2.5938,2.5633,2.7764,2.9892,2.9873,3.094,3.2102,3.2772,3.2277,3.1856,3.2157,3.1816,3.1528,3.1528,3.1191,0.0,3.0932,3.0913,3.0913,3.0913,3.0913,3.0718,3.0234,2.9819,2.9579,2.9559,2.8573,2.8206,2.8661,2.7682,2.7143,2.7193,2.7007,2.6595,2.5938,0.0,0.0,0.0,0.0,0.0,0.0,0.0,0.0,0.0,0.0,0.0,0.0,0.0,0.0,0.0,0.0,0.0,0.0,0.0,0.0,0.0,1.4695,1.6688,1.6249,1.8416,2.0192,2.0607,2.1728,2.241,2.2239,2.2824,2.3241,2.3314,2.3547,2.3728,2.38,2.38,2.38,2.38,2.38,2.38,2.38,2.38,2.38,2.38,2.38,2.38,2.38,2.38,2.38,2.38,2.38,2.38,2.38,2.38,2.38,2.38,2.38,2.38,2.384,2.4107,2.409,2.392,2.353,2.3336,2.3253,2.3253,2.3513,2.3846,2.3879,2.4145,2.4438,2.4487,2.4497,2.4701,2.5618,2.6102,2.6748,2.8298,2.9295,3.0158,3.1112,3.183,3.239,3.282,3.2928,3.2879,3.2676,3.2281,3.2007,3.2007,3.1621,3.1333,3.1333,3.1074,3.0913,3.0913,3.0913,3.0718,3.0234,2.9819,2.9324,2.8705,2.8107,2.7937,2.8245,2.7985,2.8277,2.9258,2.9277,2.9172,0.0,0.0,0.0,0.0,0.0,0.0,0.0,0.0,0.0,0.0,0.0,0.0,0.0,0.0,0.0,0.0,0.0,0.0,0.0,0.0,0.0,0.0,1.721,1.9106,1.9209,2.0603,2.1813,2.2393,2.2773,2.3043,2.32,2.3434,2.3571,2.3571,2.3716,2.38,2.38,2.38,2.38,2.38,2.38,2.38,2.38,2.38,2.38,2.38,2.38,2.38,2.38,2.38,2.38,2.38,2.38,2.39,2.4092,2.4092,2.4192,2.4312,0.0,0.0,0.0,0.0,2.4207,2.4259,2.396,2.385,2.3885,2.3982,2.4225,2.4469,2.4469,2.4526,2.4728,2.5378,2.5547,2.589,2.7269,2.8117,2.8932,3.0259,3.1053,3.1731,3.2445,3.2767,3.295,3.3077,3.326,0.0,3.3105,3.273,3.2437,3.2437,3.2085,3.1797,3.1797,3.1426,3.1152,3.1152,3.0996,3.0718,3.0234,2.9819,0.0,0.0,0.0,2.8336,2.903,2.9501,0.0,0.0,0.0,0.0,0.0,3.3909,0.0,0.0,3.3058,3.3149,0.0,0.0,0.0,0.0,0.0,0.0,0.0,0.0,0.0,0.0,0.0,0.0,0.0,0.0,0.0,0.0,1.979,2.1692,2.1994,2.2272,2.2514,2.2726,2.3121,2.3407,2.3431,2.3668,2.38,2.38,2.38,2.38,2.38,2.38,0.0,0.0,0.0,2.38,2.38,2.38,2.38,2.38,2.38,2.38,2.38,2.38,2.38,2.38,2.38,2.4052,2.4432,2.4472,2.4731,2.501,2.4252,2.398,2.3999,2.3858,2.4085,2.4451,2.4143,0.0,0.0,2.4851,2.5006,2.5096,2.5096,2.4877,2.4918,2.648,2.6903,2.7303,2.9021,3.0466,3.1528,3.1721,3.2801,3.3788,3.3701,3.3656,3.3637,3.3495,3.348,3.3461,3.3422,3.309,3.2871,3.2871,3.2535,3.2276,3.2276,3.1855,3.1567,3.1567,3.125,0.0,3.0391,2.9975,2.9684,2.956,2.9239,2.9573,3.0707,3.2102,3.3489,3.4797,3.6012,3.7487,3.9291,4.0697,4.1464,4.1476,3.6887,3.6052,0.0,0.0,0.0,0.0,0.0,0.0,0.0,0.0,0.0,0.0,0.0,0.0,0.0,0.0,0.0,1.8363,2.0584,2.2308,2.2811,2.3056,2.3164,2.3041,2.3249,2.3479,2.3704,2.3776,2.38,2.38,2.38,2.38,2.38,2.38,2.38,2.38,2.38,2.38,2.38,2.38,2.38,2.38,2.38,0.0,2.38,2.38,2.38,2.38,2.38,2.3852,2.396,2.4352,2.4731,2.507,2.4911,2.509,2.5377,2.5088,2.5283,2.5586,2.5056,2.5067,2.5283,2.511,2.5093,2.5096,2.5096,2.4877,0.0,2.648,2.6903,2.7542,3.0324,3.1279,3.1808,3.3064,3.3587,3.3863,3.4049,3.4082,3.4062,3.3975,3.3961,3.3828,3.3461,3.3344,3.3285,3.3285,3.2949,3.2676,3.2676,3.232,3.2066,3.2066,3.2003,3.1753,3.1294,3.0879,3.0593,3.0461,3.1767,3.2645,3.2885,3.632,3.8147,3.8014,3.9969,4.1164,4.1547,4.1864,4.2473,4.3274,4.1859,4.1704,0.0,0.0,0.0,0.0,0.0,0.0,0.0,0.0,0.0,0.0,0.0,1.1623,1.4145,0.0,1.8732,2.0336,2.1781,2.278,2.3065,2.3285,2.3366,2.3261,2.347,2.3636,2.3788,2.38,2.38,2.38,2.38,2.38,2.38,2.38,2.38,2.38,2.38,2.38,2.38,2.38,2.38,2.38,2.38,2.38,2.38,2.38,2.38,2.38,2.38,2.404,2.4512,2.517,2.5567,2.5746,2.5746,2.5772,2.5753,2.5427,2.5595,2.5957,2.5663,2.5631,2.5751,2.5751,2.5657,2.5556,2.5556,2.5763,2.6323,2.7854,2.8749,2.9718,3.2053,3.2788,3.3187,3.4126,3.4499,3.4674,3.4771,3.481,3.4724,3.4456,3.4411,3.4274,3.3828,3.375,3.3672,3.3441,3.3226,3.309,3.309,3.2734,3.2496,3.2496,3.2316,3.212,3.187,3.2307,3.2648,3.2743,3.4667,3.6038,3.6585,3.9107,4.078,4.1325,4.2449,4.3402,4.4256,4.4256,4.4809,4.5849,4.5573,4.5296,0.0,0.0,0.0,0.0,0.0,0.0,0.0,0.7917,0.8919,1.0951,1.2328,1.4184,1.7571,1.9032,2.0323,2.2151,2.2852,2.3179,2.3227,2.3374,2.3487,2.3487,2.368,2.38,2.38,2.38,2.38,2.38,2.38,2.38,2.38,2.38,2.38,2.38,2.38,2.38,2.38,2.38,2.38,2.38,2.38,2.38,2.38,2.388,2.394,2.394,2.402,2.4512,2.5289,2.599,2.6327,2.6406,2.6406,2.6188,2.5885,2.561,2.5746,2.6078,2.6011,2.6038,2.6105,2.6272,2.64,2.647,2.647,2.7179,2.8292,2.9758,3.0869,3.1981,3.3521,3.4163,3.4491,3.4921,3.5264,3.5512,3.5502,3.5508,3.5371,3.4922,3.4824,3.4687,3.4274,3.4231,3.4039,3.348,3.3402,3.3402,3.3402,3.3125,3.291,3.291,3.2633,3.2516,3.2752,3.4111,3.5142,3.5568,3.7752,3.9409,4.0272,4.148,4.2733,4.4091,4.4342,4.5121,4.6461,4.6562,4.7064,4.7908,4.8033,4.7606,0.6687,0.6823,0.7059,0.7475,0.7759,0.8249,0.0,1.0775,1.2063,1.3144,1.5664,1.7986,1.904,2.0727,2.2193,2.2894,2.3212,2.3451,2.368,2.374,2.3764,2.3764,2.3788,2.38,2.38,2.38,2.38,2.38,2.38,2.38,2.38,2.38,2.38,2.38,2.38,2.38,2.38,2.38,2.38,2.38,2.38,2.38,2.38,2.4232,2.4412,2.4432,2.4791,2.5249,2.5733,2.5832,2.607,2.6406,2.6406,2.6366,2.6327,2.6287,2.6307,2.6326,2.6091,2.6172,2.6326,2.6118,2.6987,2.8124,2.8124,2.9037,3.0306,3.1493,3.1932,3.2382,3.3925,3.437,3.456,3.5264,3.5472,3.5589,3.5872,3.594,3.5803,3.5391,3.5312,3.5192,3.4707,3.4629,3.4355,3.3519,3.3402,3.3402,3.3402,3.3363,3.3344,3.3344,3.3285,3.3713,3.4761,3.6359,3.7642,3.8398,4.0864,4.2334,4.2454,4.4105,4.5135,4.5311,4.6261,4.6823,4.7023,4.749,4.7767,4.7908,4.8451,4.8642,0.7855,0.7947,0.7996,0.8274,0.8748,0.9289,0.9863,1.1585,1.3507,1.5063,1.7362,1.9504,2.0849,2.1749,2.2478,2.3017,2.3179,2.3357,2.3752,2.368,2.3511,2.3413,2.3401,2.3502,2.3776,2.38,2.38,2.38,2.38,2.38,2.38,2.38,2.38,2.38,2.38,2.38,2.38,2.38,2.394,2.4212,2.4212,2.4332,2.4552,2.4751,2.4851,2.4871,2.5329,2.5614,2.5832,2.605,2.6248,2.6406,2.6406,2.6406,2.6406,2.6406,2.6406,2.6373,2.6272,2.6312,2.6537,2.7401,2.8143,2.8864,2.9812,3.099,3.2135,3.261,3.3405,3.4287,3.4921,3.5225,3.5472,3.5783,3.5815,3.5828,3.5964,3.5999,3.5959,3.5784,3.5762,3.5608,3.5176,3.5098,3.4883,3.4258,3.3965,3.3824,3.3824,3.3558,3.3402,3.3402,3.3827,3.4705,3.6229,3.8076,3.9718,4.1084,4.2846,4.4023,4.4358,4.5395,4.611,4.6436,4.7189,4.7741,4.8083,4.8309,4.856,4.8887,4.9154,4.928,0.8634,0.8806,0.8895,0.9171,0.9794,1.0468,1.0949,1.2933,1.5184,1.7085,1.9003,2.0753,2.2055,2.2357,2.255,2.3029,2.3143,2.3297,2.3643,2.3463,2.3261,2.3126,2.3041,2.3172,2.3643,2.3692,2.3728,2.38,2.38,2.38,2.38,2.3872,2.3909,2.3909,2.4041,2.4102,2.4102,2.4149,2.4332,2.4671,2.4671,2.4811,2.509,2.5229,2.5349,2.5488,2.5812,2.5971,2.599,2.6287,2.6406,2.6406,2.6406,2.6406,2.6406,2.6406,2.6406,2.6465,2.6925,2.7083,2.7358,2.9032,2.987,3.0469,3.1644,3.3017,3.4175,3.407,3.4957,3.5927,3.5904,3.6084,3.6276,3.6417,3.6394,3.635,3.635,3.6272,3.6191,3.6191,3.6077,3.5901,3.5625,3.5566,3.5449,3.5117,3.4723,3.4411,3.4274,3.3965,3.3913,3.429,3.4955,3.6198,3.8297,4.0005,4.1733,4.3445,4.4645,4.5482,4.5924,4.6476,4.6913,4.7299,4.7883,4.8375,4.8793,4.8953,4.9229,4.959,4.959,4.959,0.8638,0.903,0.9542,1.0187,1.0898,1.1894,1.3589,1.5682,1.7749,1.9357,2.1044,2.2228,2.2296,2.2502,2.2787,2.3053,2.3261,2.3402,2.3407,2.3244,2.3114,2.3101,2.2872,2.2894,2.3378,2.3407,2.3515,2.3788,2.38,2.38,2.38,2.4041,2.4186,2.4186,2.4633,2.4868,2.4868,2.5009,2.507,2.507,2.507,2.509,2.511,2.5574,2.599,2.6366,2.6366,2.6366,2.6366,2.6386,2.6406,2.6406,2.6406,2.6406,2.6406,2.6406,2.6406,2.6623,2.8252,2.8817,2.909,3.0704,3.2331,3.3657,3.3694,3.5102,3.6608,3.6217,3.6433,3.6735,3.6674,3.6665,3.6789,3.716,3.7266,3.7266,3.7266,3.6951,3.6695,3.6695,3.6309,3.5999,3.5979,3.5979,3.5979,3.5959,3.5625,3.5195,3.4746,3.4668,3.5167,3.6552,3.7021,3.8424,4.1408,4.2502,4.3693,4.5314,4.6431,4.7023,4.7048,4.7566,4.7857,4.7883,4.8476,4.8793,4.8793,4.933,4.9565,4.959,4.959,4.959,0.9532,1.0072,1.0845,1.2394,1.3134,1.396,1.575,1.7626,1.9109,1.9468,2.0734,2.1698,2.1534,2.1571,2.1776,2.2236,2.2652,2.3002,2.3172,2.3261,2.3116,2.2623,2.2792,2.2889,2.27,2.299,2.3369,2.3776,2.3643,2.3692,2.4041,2.415,2.427,2.4471,2.4743,2.4988,2.5161,2.5118,2.5359,2.5839,2.5923,2.5951,2.5984,2.6129,2.6268,2.6406,2.6406,2.6406,2.6406,2.6406,2.6406,2.6406,2.6406,2.7083,2.807,2.807,2.8739,2.958,2.907,2.9599,3.0762,3.2408,3.3335,3.4051,3.54,3.6256,3.683,3.6957,3.7304,3.7595,3.7588,3.7535,3.7536,3.7661,3.7482,3.7305,3.7305,3.7187,3.7107,3.7107,3.6756,3.6462,3.6462,3.6211,3.5999,3.5999,3.5664,3.558,3.6026,3.6078,3.6641,3.8037,3.8965,4.0264,4.216,4.33,4.467,4.6446,4.6898,4.7249,4.7616,4.8184,4.8501,4.8501,4.9053,4.933,4.933,4.9515,4.959,4.959,4.959,4.959,1.0444,1.0983,1.1794,1.3895,1.4586,1.5343,1.7606,1.8917,1.9726,1.9961,2.0653,2.1094,2.0736,2.0749,2.1027,2.1649,2.2212,2.2671,2.3053,2.322,2.3116,2.2635,2.2811,2.2889,2.2725,2.2937,2.3244,2.3631,2.366,2.3836,2.4174,2.4379,2.4642,2.4965,2.5273,2.5552,2.5751,2.5721,2.5888,2.6267,2.6467,2.6547,2.6547,2.6673,2.6727,2.6727,2.6727,2.664,2.6547,2.6547,2.6856,2.7299,2.7299,2.8291,2.9754,2.9754,3.0781,3.2045,3.1008,3.1319,3.2481,3.4126,3.4747,3.512,3.6405,3.6997,3.7273,3.755,3.7899,3.821,3.821,3.8179,3.8164,3.8164,3.7949,3.7754,3.7754,3.7637,3.7502,3.7502,3.7187,3.6912,3.6912,3.666,3.6637,3.7166,3.7029,3.6965,3.7236,3.736,3.8183,4.0052,4.1019,4.2202,4.3896,4.4695,4.5767,4.7303,4.7591,4.7857,4.8209,4.8777,4.9079,4.9079,4.943,4.959,4.959,4.959,4.959,4.959,4.959,4.959,1.1416,1.1882,1.2577,1.4902,1.547,1.6249,1.9241,1.9711,1.9771,2.0816,2.0809,2.0434,1.9885,2.003,2.049,2.1263,2.1909,2.2478,2.3005,2.3114,2.3138,2.3101,2.292,2.2942,2.3366,2.3249,2.3244,2.3439,2.3897,2.4186,2.4234,2.4749,2.5257,2.5719,2.6167,2.6511,2.6624,2.6758,2.6674,2.6386,2.666,2.6807,2.6807,2.7155,2.7309,2.7309,2.7309,2.7115,2.6807,2.6894,2.7701,2.8915,2.8993,3.0006,3.1434,3.1434,3.25,3.3919,3.3919,3.3919,3.4183,3.5736,3.6497,3.6812,3.6849,3.7384,3.7991,3.8009,3.832,3.8592,3.8592,3.8592,3.8592,3.8592,3.8592,3.8592,3.8592,3.8242,3.7951,3.7951,3.7617,3.7324,3.7305,3.7305,3.7812,3.9282,3.9506,3.9229,3.8495,3.8665,3.991,4.2601,4.32,4.4274,4.6458,4.6647,4.7025,4.7877,4.8476,4.8818,4.8843,4.933,4.959,4.959,4.959,4.959,4.959,4.959,4.959,4.959,4.959,4.959,1.3468,1.4375,1.5516,1.8601,1.9222,1.9524,2.1272,2.1143,2.0592,2.0259,1.9668,1.8979,1.8242,1.881,1.9551,1.995,2.1305,2.2417,2.2744,2.328,2.349,2.315,2.3534,2.3712,2.3439,2.3905,2.4166,2.4005,2.3933,2.4162,2.4764,2.5256,2.5667,2.5992,2.6541,2.6996,2.7265,2.7209,2.6914,2.6386,2.666,2.6807,2.6807,2.7155,2.7309,2.7309,2.7309,2.7115,2.6908,2.8161,2.8755,2.9032,3.0218,3.1702,3.3165,3.3165,3.4202,3.5587,3.5587,3.5587,3.5699,3.6423,3.6719,3.6904,3.7513,3.7844,3.8064,3.8375,3.8519,3.8592,3.8592,3.8592,3.8592,3.8592,3.8592,3.8592,3.8592,3.8514,3.8436,3.8436,3.8066,3.7658,3.7344,3.7305,3.7812,3.9282,3.9506,4.0189,4.2098,4.2416,4.3258,4.5239,4.5746,4.6308,4.7193,4.7443,4.7864,4.8526,4.8702,4.8994,4.938,4.9531,4.959,4.959,4.959,4.959,4.959,4.959,4.959,4.959,4.959,4.959,1.4617,1.557,1.6652,1.9829,2.0426,2.0421,2.1244,2.0894,2.0035,1.8762,1.8146,1.7539,1.6624,1.7614,1.8705,1.9092,2.0821,2.2296,2.2792,2.3418,2.376,2.3606,2.3941,2.4125,2.3945,2.4351,2.4592,2.4547,2.4415,2.4606,2.5263,2.5671,2.6132,2.6698,2.7044,2.7271,2.7408,2.7326,2.7061,2.6587,2.7001,2.7181,2.7215,2.7542,2.7697,2.7738,2.851,2.8659,2.8453,3.0022,3.0932,3.1403,3.2111,3.3392,3.4858,3.4858,3.5419,3.6201,3.6201,3.6312,3.6516,3.6738,3.6923,3.7181,3.7807,3.8119,3.832,3.8538,3.8592,3.8592,3.8592,3.8592,3.8592,3.8592,3.8592,3.8592,3.8592,3.8592,3.8592,3.8592,3.8397,3.8144,3.7928,3.8402,3.9355,4.0817,4.1607,4.2858,4.5149,4.4746,4.4872,4.6453,4.7055,4.7548,4.8033,4.819,4.8551,4.9104,4.9154,4.928,4.9606,4.959,4.959,4.959,4.959,4.959,4.959,4.959,4.959,4.959,4.959,4.959,1.5477,1.6261,1.706,2.0021,2.0541,2.0294,2.03,1.9765,1.879,1.7008,1.6537,1.6139,1.5173,1.6503,1.7928,1.8544,2.0417,2.2103,2.298,2.3502,2.3897,2.4162,2.4258,2.4391,2.464,2.4688,2.483,2.5113,2.5195,2.5364,2.5735,2.6085,2.6677,2.7558,2.758,2.7519,2.7355,2.7342,2.7195,2.6874,2.7442,2.7696,2.7709,2.8045,2.8326,2.8621,3.0143,3.0742,3.0766,3.2195,3.3457,3.4462,3.4327,3.5112,3.6347,3.6347,3.6347,3.6366,3.6422,3.6682,3.6961,3.6905,3.7144,3.755,3.7954,3.8319,3.8592,3.8592,3.8592,3.8592,3.8592,3.8592,3.8592,3.8592,3.8592,3.8592,3.8592,3.8592,3.8592,3.8592,3.8592,3.8665,3.8846,3.9944,4.1364,4.3049,4.4453,4.5843,4.7315,4.6182,4.5724,4.6991,4.7656,4.824,4.8853,4.8919,4.9104,4.9565,4.959,4.959,4.959,4.959,4.959,4.959,4.959,4.959,4.959,4.959,4.959,4.959,4.959,4.964,1.7185,1.8129,1.8866,2.1885,2.225,2.1607,2.0541,1.9201,1.782,1.6611,1.5668,1.4919,1.4509,1.5789,1.7225,1.8203,1.997,2.1667,2.2932,2.3502,2.3897,2.4162,2.4595,2.4885,2.4933,2.5126,2.544,2.588,2.6179,2.6246,2.6041,2.68,2.7516,2.8065,2.8087,2.7934,2.7629,2.7629,2.7502,2.7208,2.7535,2.7696,2.7709,2.8045,2.8999,3.0372,3.0663,3.1463,3.2651,3.423,3.4902,3.5029,3.6271,3.6961,3.719,3.719,3.719,3.7247,3.7628,3.7818,3.782,3.7407,3.7568,3.7972,3.8355,3.8538,3.8592,3.8592,3.8592,3.8592,3.8592,3.8592,3.8592,3.8592,3.8592,3.8592,3.8592,3.8592,3.8592,3.8592,3.8592,3.8991,4.0213,4.0621,4.1739,4.4487,4.5142,4.5843,4.7315,4.723,4.7357,4.8224,4.8419,4.8752,4.9407,4.9464,4.949,4.959,4.959,4.959,4.959,4.959,4.959,4.959,4.959,4.959,4.959,4.959,4.959,4.959,4.959,4.9841,1.9189,2.0049,2.0637,2.2615,2.2702,2.1764,1.9716,1.823,1.6817,1.5173,1.4425,1.3954,1.3544,1.5004,1.6503,1.7155,1.8959,2.0785,2.226,2.2906,2.3526,2.4306,2.4752,2.5053,2.5198,2.5318,2.5665,2.6314,2.6709,2.6958,2.7033,2.7709,2.8098,2.8192,2.82,2.8045,2.7696,2.7877,2.7797,2.7516,2.781,2.7965,2.7999,2.9077,2.9997,3.0913,3.272,3.3912,3.4682,3.6147,3.6679,3.6619,3.7195,3.741,3.741,3.741,3.741,3.7468,3.7946,3.8233,3.8405,3.8404,3.8514,3.8717,3.8854,3.8925,3.8866,3.8651,3.8592,3.8592,3.8592,3.8592,3.8592,3.8592,3.8592,3.8592,3.8592,3.8592,3.8592,3.8592,3.9226,3.9962,4.0675,4.2087,4.3621,4.5091,4.5961,4.6774,4.7646,4.7762,4.7984,4.8551,4.8902,4.9259,4.9574,4.959,4.959,4.959,4.959,4.959,4.959,4.959,4.959,4.959,4.959,4.959,4.959,4.9891,4.9866,4.9615,5.0209,5.0444,2.0591,2.1298,2.1768,2.2834,2.2581,2.1401,1.8943,1.7418,1.5982,1.4075,1.358,1.3388,1.3014,1.4425,1.5813,1.6382,1.8088,1.9938,2.1667,2.2453,2.3292,2.4459,2.4933,2.5246,2.5463,2.5643,2.6044,2.6751,2.7355,2.7823,2.8125,2.8504,2.8564,2.8299,2.8286,2.8117,2.7823,2.8072,2.8072,2.781,2.8072,2.8389,2.881,3.0184,3.1224,3.2077,3.4823,3.6195,3.6637,3.7684,3.8125,3.8107,3.7795,3.7667,3.7667,3.7667,3.7725,3.7879,3.8322,3.8764,3.9147,3.9586,3.9565,3.9428,3.936,3.9355,3.9258,3.8846,3.8807,3.8827,3.8651,3.8651,3.871,3.8612,3.8592,3.8592,3.8592,3.8592,3.8683,3.9009,3.9998,4.1013,4.1647,4.373,4.5414,4.5718,4.6757,4.7597,4.7861,4.8026,4.8264,4.8584,4.9146,4.9525,4.959,4.959,4.959,4.959,4.959,4.959,4.959,4.9715,4.9766,4.9766,4.9891,4.9967,4.9983,5.0393,5.0368,4.9983,5.0887,5.1113,2.0362,2.1031,2.1537,2.2787,2.2158,2.0761,1.9052,1.7276,1.5645,1.4461,1.3834,1.3556,1.3749,1.4352,1.5306,1.6779,1.8013,1.9515,2.1619,2.2723,2.3643,2.4508,2.5279,2.575,2.5762,2.6406,2.7047,2.7475,2.8596,2.9176,2.8909,2.894,2.885,2.8577,2.8564,2.8438,2.8173,2.8186,2.8186,2.8138,2.8186,2.9027,3.0559,3.0726,3.2535,3.5551,3.5853,3.6912,3.8364,3.8504,3.8545,3.8545,3.8508,3.849,3.849,3.849,3.8767,3.918,3.9592,4.0004,4.0413,4.086,4.0489,3.9845,3.9844,3.9824,3.9726,3.9277,3.9453,3.959,3.8807,3.8885,3.9043,3.869,3.8592,3.8592,3.8592,3.8592,3.8991,4.0338,4.071,4.1686,4.4418,4.5125,4.5735,4.7115,4.7414,4.7514,4.753,4.8133,4.8567,4.86,4.8935,4.9267,4.9574,4.959,4.959,4.959,4.959,4.959,4.959,5.0067,5.0327,5.0327,5.087,5.1138,5.1138,5.1188,5.1188,5.1138,5.1239,5.154,2.1834,2.2673,2.3039,2.3221,2.2295,2.0882,1.91,1.7252,1.556,1.4316,1.3761,1.3521,1.3641,1.4099,1.4835,1.5946,1.6769,1.794,1.9938,2.1118,2.234,2.3881,2.4797,2.5674,2.6574,2.686,2.7382,2.8261,2.9189,2.9664,2.9557,2.9384,2.9165,2.885,2.8676,2.8551,2.8452,2.8272,2.82,2.82,2.9258,3.0122,3.0871,3.2967,3.4701,3.6055,3.7112,3.7966,3.86,3.86,3.86,3.86,3.86,3.86,3.862,3.8917,3.9154,3.9391,4.004,4.0373,4.0568,4.1055,4.0957,4.0644,4.0351,4.0254,4.0157,3.9746,3.9746,3.9824,3.9472,3.9277,3.916,3.8984,3.8768,3.8592,3.8592,3.8592,3.9045,4.0517,4.1506,4.2805,4.4914,4.6046,4.6824,4.7414,4.7497,4.7563,4.7779,4.8264,4.8674,4.8886,4.9186,4.9445,4.959,4.959,4.9741,5.0051,5.0076,5.0243,5.0611,5.0837,5.0946,5.0946,5.1188,5.1289,5.1289,5.1624,5.1774,5.18,5.2427,5.2854,2.1963,2.3123,2.3756,2.3217,2.2102,2.0671,1.8871,1.7131,1.5535,1.428,1.387,1.3737,1.3737,1.4111,1.4678,1.55,1.614,1.7216,1.9173,2.0313,2.16,2.3407,2.4365,2.5406,2.6768,2.7375,2.8054,2.9047,2.9614,2.9891,2.9891,2.9726,2.9472,2.9157,2.8956,2.8778,2.8604,2.8412,2.8547,2.8964,3.0205,3.1333,3.2412,3.4883,3.6276,3.6852,3.8066,3.86,3.86,3.86,3.86,3.86,3.86,3.8753,3.9023,3.9211,3.9544,3.9934,4.0505,4.078,4.0937,4.1269,4.1387,4.1289,4.084,4.0723,4.0625,4.0195,4.0,3.9922,4.0059,3.9746,3.9414,3.9414,3.9082,3.8788,3.8788,3.8671,3.9172,4.1084,4.2298,4.3683,4.5825,4.7061,4.7738,4.7738,4.7858,4.7991,4.8009,4.8469,4.8953,4.9304,4.9646,4.9766,4.9615,4.9741,5.0017,5.0377,5.0553,5.087,5.1289,5.1465,5.154,5.154,5.1674,5.185,5.2017,5.2377,5.2653,5.2854,5.3607,5.4034,1.9928,2.1528,2.298,2.2441,2.1305,1.9885,1.8282,1.6865,1.5584,1.4509,1.4292,1.4292,1.4292,1.4509,1.4955,1.5778,1.6575,1.7844,1.9982,2.0973,2.1957,2.3258,2.4101,2.503,2.6109,2.802,2.9384,2.9846,2.9891,2.9891,2.9891,2.9891,2.978,2.9508,2.9495,2.9192,2.8617,2.8604,2.9323,3.0767,3.0788,3.2597,3.5954,3.5974,3.6952,3.856,3.858,3.86,3.86,3.86,3.86,3.86,3.86,3.9137,3.9853,3.9423,4.0089,4.1184,4.1184,4.1441,4.1797,4.1797,4.1797,4.1719,4.1308,4.1191,4.1094,4.0625,4.0215,4.0,4.0391,4.0176,3.9883,3.9883,3.9531,3.9199,3.9199,3.8885,3.946,4.2421,4.2997,4.4123,4.7665,4.8291,4.8308,4.8308,4.8741,4.8811,4.8089,4.8753,4.9437,4.9834,5.018,5.0176,4.964,5.0092,5.0402,5.0402,5.0946,5.1289,5.1289,5.18,5.2101,5.2101,5.2611,5.3138,5.3683,5.3683,5.4002,5.4572,5.4597,5.4881,1.802,1.9605,2.0833,2.047,1.9644,1.8665,1.759,1.6599,1.5597,1.4521,1.4292,1.4352,1.4533,1.4642,1.5257,1.6986,1.7469,1.8282,2.0043,2.1549,2.2887,2.402,2.6413,2.8034,2.8233,2.9129,2.9734,2.9891,2.9891,2.9891,2.9891,2.9891,2.9851,2.978,2.9615,2.9414,2.9205,3.0003,3.0758,3.1517,3.3707,3.5501,3.6847,3.7766,3.8483,3.8985,3.8728,3.86,3.86,3.86,3.8798,3.9075,3.9075,3.9574,4.0367,4.0837,4.127,4.1743,4.2607,4.2594,4.2246,4.2578,4.2461,4.2187,4.207,4.1621,4.1172,4.1035,4.0898,4.082,4.0957,4.0644,4.0313,4.0313,4.0,3.9668,3.9668,4.0405,4.1661,4.364,4.4918,4.6334,4.8489,4.8837,4.8837,4.8837,4.8981,4.9118,4.9159,4.9594,5.0045,5.0406,5.0797,5.0962,5.0787,5.0912,5.1172,5.1532,5.1749,5.2026,5.2385,5.2561,5.2812,5.3181,5.3339,5.3733,5.4321,5.4321,5.4604,5.5157,5.5516,5.5792,1.6297,1.7816,1.889,1.9016,1.8593,1.7916,1.6996,1.6247,1.5463,1.4497,1.4292,1.4389,1.4654,1.4787,1.539,1.7034,1.7469,1.8291,2.0261,2.1639,2.311,2.4872,2.7349,2.8908,2.891,2.9512,2.9891,2.9891,2.9891,2.9891,2.9891,2.9891,2.9891,2.9891,2.974,2.9593,2.9508,3.0915,3.2014,3.2813,3.5538,3.7311,3.8238,3.9069,3.9465,3.9447,3.9003,3.882,0.0,3.8833,3.9148,3.9536,3.9694,4.0464,4.153,4.1929,4.2266,4.2642,4.3413,4.3339,4.2909,4.3067,4.2773,4.2402,4.2402,4.205,4.1641,4.1641,4.1523,4.1426,4.1426,4.1094,4.0762,4.0762,4.0906,4.1022,4.1022,4.2126,4.3552,4.5118,4.6224,4.7441,4.9101,4.939,4.939,4.939,4.968,4.9904,4.9891,5.0353,5.0832,5.1204,5.1439,5.1674,5.1875,5.1716,5.1749,5.2076,5.2285,5.2636,5.3188,5.3213,5.3482,5.4027,5.4052,5.4328,5.4906,5.5107,5.5383,5.5717,5.6025,5.62,0.0,1.6211,1.7127,1.7851,1.7868,1.7433,1.6429,1.5825,0.0,1.4461,1.4292,1.4413,1.475,1.498,1.5439,1.638,1.696,1.8173,2.0654,2.1627,2.3097,2.5873,2.7339,2.8243,2.8483,2.9349,2.9891,2.9891,2.9891,2.9891,2.9891,2.9891,2.9891,2.9891,2.9891,2.9847,2.9734,3.1575,3.322,3.4694,3.6551,3.833,3.9985,3.9966,3.9948,3.993,3.9447,3.9281,3.9305,3.9338,3.9631,4.0066,4.037,4.1571,4.3054,4.2707,4.3051,4.3711,4.3808,4.3789,4.3633,4.3263,4.2851,4.2499,4.2499,4.246,4.2402,4.2402,4.2128,4.1836,4.1836,4.1523,4.1269,4.1386,4.2202,4.2988,4.3079,4.4032,4.5296,4.6726,4.7078,4.7749,4.9638,4.9961,4.9961,4.9961,5.0668,5.0993,5.0393,5.1063,5.1718,5.21,5.2201,5.241,5.2895,5.246,5.2176,5.2176,5.2661,5.3188,5.3683,5.3733,5.4052,5.4647,5.4697,5.4981,5.5491,5.6,5.6276,5.6301,5.6301,5.6301,1.3803,0.0,1.5567,1.5554,1.5643,1.5644,0.0,1.5136,1.5016,1.4425,1.4292,1.463,1.5716,1.5632,1.6139,1.8375,1.9028,1.9926,2.1852,2.4265,2.6435,2.8107,2.8986,2.9477,2.9544,2.9766,2.9891,2.9891,2.9891,2.9891,2.9891,2.9891,2.9891,2.9891,2.9891,3.0552,3.1927,3.3514,3.5323,3.7397,3.896,4.012,4.0809,4.0497,4.0368,4.0331,3.9928,3.9907,4.0154,3.9885,4.04,4.1306,4.0716,4.1572,4.3139,4.3333,4.355,4.3848,4.4863,4.4551,4.3691,4.3594,4.3476,4.3378,4.3378,4.2929,4.2402,4.2402,4.2343,4.2265,4.2265,4.1973,4.1974,4.3202,4.3432,4.3708,4.4926,4.6374,4.7544,4.7887,4.8972,4.9948,5.0426,5.0503,5.0503,5.0503,5.0893,5.1261,5.1407,5.1854,5.2333,5.2677,5.3063,5.3381,5.349,5.3013,5.2711,5.2711,5.3213,5.3582,5.3683,5.4152,5.4655,5.5207,5.5616,5.6093,5.6627,5.6734,5.7054,5.7499,5.7499,5.7499,1.3691,1.4592,1.4992,1.5346,1.5644,1.5751,1.5498,1.5173,1.4799,1.4389,1.4401,1.4787,1.5754,1.6128,1.6878,1.866,1.9785,2.1297,2.3724,2.6118,2.7997,2.9095,2.9624,2.9891,2.9891,2.9891,2.9891,2.9891,2.9891,2.9891,2.9891,2.9891,2.9891,2.9891,3.0736,3.1679,3.269,3.4349,3.6226,3.8332,3.9982,4.0901,4.1102,4.0861,4.0861,4.1026,4.0625,4.0801,4.1343,4.1138,4.1592,4.2378,4.2078,4.2668,4.3731,4.3945,4.4023,4.4121,4.4844,4.4473,4.373,4.3945,4.3887,4.3711,4.3711,4.3379,4.2987,4.2987,4.2851,4.2715,4.2715,4.2402,4.2447,4.3851,4.4565,4.5298,4.6703,4.8272,4.9401,4.9401,5.0104,5.0696,5.0696,5.0696,5.0696,5.0696,5.0989,5.1359,5.1768,5.2151,5.2607,5.3204,5.3532,5.3808,5.4102,5.3833,5.3683,5.3683,5.3934,5.421,5.4461,5.4805,5.5207,5.5767,5.6301,5.6728,5.6985,5.728,5.7581,5.7901,5.7901,5.7901,1.4205,1.486,1.5336,1.5912,1.6358,1.6549,1.6199,1.5414,1.469,1.4473,1.4642,1.5052,1.5807,1.6729,1.7673,1.8593,2.0321,2.2611,2.5649,2.7336,2.8567,2.9401,2.974,2.9891,2.9891,2.9891,2.9891,2.9891,2.9891,2.9891,2.9891,2.9891,3.0025,3.0325,3.1864,3.2977,3.3549,3.513,3.6858,3.8738,4.0346,4.1102,4.1102,4.1102,4.132,4.1687,4.1338,4.173,4.2593,4.252,4.281,4.3311,4.3527,4.3887,4.4297,4.4297,4.4297,4.4297,4.4297,4.4043,4.3769,4.416,4.4023,4.3711,4.3711,4.3711,4.3711,4.3711,4.3437,4.3204,4.3204,4.3054,4.3201,4.4487,4.5974,4.7425,4.8538,4.9859,5.0792,5.072,5.0696,5.0696,5.0696,5.0696,5.0696,5.0696,5.1042,5.1411,5.1768,5.2253,5.2876,5.3623,5.3858,5.416,5.4672,5.4798,5.483,5.483,5.4773,5.4956,5.5509,5.5516,5.5767,5.6301,5.6778,5.7085,5.7261,5.7757,5.8052,5.8152,5.8152,5.8152,1.5119,1.6512,1.7001,1.5364,1.5656,1.6177,1.5451,1.5148,1.5028,1.4992,1.5197,1.5918,1.7638,1.8056,1.8712,2.047,2.2339,2.4328,2.6602,2.7844,2.8778,2.9428,2.974,2.9891,2.9891,2.9891,2.9891,2.9891,2.9891,2.9891,2.9891,2.9891,3.0638,3.2204,3.2558,3.4213,3.7414,3.7714,3.8802,4.0663,4.0976,4.1102,4.1102,4.1102,4.132,4.1705,4.1629,4.2305,4.3393,4.3041,4.3417,4.4135,4.3457,4.3437,4.3808,4.3808,4.3808,4.3808,4.3808,4.3769,4.3711,4.3789,4.3769,4.3711,4.3711,4.3711,4.3711,4.3711,4.3652,4.3613,4.3613,4.436,4.5496,4.7043,4.8434,4.9701,5.0774,5.1208,5.1249,5.0792,5.0696,5.0696,5.0696,5.0696,5.0696,5.0696,5.1278,5.1733,5.1786,5.2802,5.3555,5.3683,5.4561,5.5182,5.5282,5.5691,5.5968,5.5968,5.5516,5.5516,5.6068,5.6093,5.6326,5.6878,5.696,5.7462,5.8434,5.8535,5.8811,5.9257,5.9257,5.9257,1.477,1.6128,1.7008,1.603,1.6899,1.788,1.7385,1.6803,1.6406,1.6406,1.6611,1.7222,1.8632,1.9508,2.0864,2.3378,2.4739,2.6025,2.7688,2.8436,2.9037,2.9646,2.9811,2.9891,2.9891,2.9891,2.9891,2.9891,2.9891,2.9891,2.9891,3.087,3.1798,3.2668,3.4672,3.6556,3.8289,3.9309,4.0261,4.1102,4.1102,4.1102,4.1102,4.1102,4.1429,4.2007,4.2007,4.2764,4.3957,4.3785,4.3978,4.4355,4.3945,4.375,4.3711,4.3711,4.3711,4.3711,4.3711,4.3711,4.3711,4.3711,4.3711,4.3711,4.3711,4.3711,4.3711,4.3711,4.3711,4.3711,4.3711,4.4824,4.6331,4.7673,4.9135,5.055,5.1691,5.1682,5.1417,5.1177,5.0912,5.0696,5.0696,5.0696,5.0767,5.0937,5.1253,5.1737,5.246,5.3076,5.3748,5.4519,5.5107,5.5516,5.5817,5.6068,5.62,5.62,5.5968,5.5942,5.6175,5.6477,5.6734,5.6985,5.7587,5.8183,5.871,5.8987,5.9257,5.9483,5.9483,5.9483,1.4618,1.5704,1.6839,1.7032,1.811,1.916,1.9216,1.8517,1.7913,1.8186,1.8459,1.8924,1.9861,2.1216,2.3028,2.5632,2.6478,2.7246,2.8513,2.8943,2.9317,2.9838,2.9891,2.9891,2.9891,2.9891,2.9891,2.9891,2.9891,3.0093,3.0526,3.1931,3.3109,3.3973,3.6794,3.8503,3.8969,4.0388,4.1102,4.1102,4.1102,4.1102,4.1102,4.1102,4.1534,4.2305,4.2305,4.3062,4.4295,4.4295,4.434,4.4394,4.4394,4.4121,4.3711,4.3711,4.3711,4.3711,4.3711,4.3711,4.3711,4.3711,4.3711,4.3711,4.3711,4.3711,4.3711,4.3711,4.398,4.4309,4.4309,4.5596,4.7183,4.8474,5.0051,5.1493,5.2314,5.2157,5.1844,5.1724,5.1345,5.1081,5.1081,5.1146,5.1306,5.1565,5.176,5.2224,5.3268,5.3583,5.416,5.5272,5.5491,5.5742,5.615,5.62,5.6251,5.6376,5.6376,5.6326,5.62,5.6853,5.7204,5.7204,5.8208,5.8761,5.8886,5.9307,5.9483,5.9483,5.9483,5.9483,1.5511,1.6404,1.7249,1.8001,1.8097,1.8301,1.941,1.9203,1.9115,2.0243,2.0675,2.1145,2.2029,2.3291,2.4626,2.5969,2.6688,2.752,2.8798,2.9272,2.9566,2.9887,2.9891,2.9891,2.9891,2.9891,2.9891,2.9891,2.9891,3.066,3.2403,3.2624,3.4301,3.7779,3.816,3.9139,4.0892,4.1039,4.1102,4.1102,4.1102,4.1102,4.1102,4.1102,4.1534,4.2305,4.2305,4.3062,4.4295,4.4295,4.434,4.4394,4.4394,4.4121,4.3711,4.3711,4.3711,4.3711,4.3711,4.3711,4.3711,4.3711,4.3711,4.3711,4.3711,4.3711,4.3711,4.3711,4.4863,4.6123,4.6123,4.7368,4.9032,5.0688,5.2342,5.3456,5.3125,5.3017,5.2849,5.2349,5.2205,5.2181,5.2181,5.249,5.2761,5.2755,5.3349,5.3839,5.3942,5.4713,5.5272,5.5408,5.5842,5.615,5.62,5.62,5.6401,5.691,5.6935,5.6728,5.6226,5.7248,5.7851,5.7851,5.8384,5.8936,5.9433,5.9483,5.9483,5.9483,5.9483,5.9483,1.4787,1.597,1.7201,1.7672,1.8351,1.92,2.0414,2.0663,2.0977,2.2184,2.251,2.2809,2.357,2.4622,2.5646,2.6453,2.7393,2.8265,2.89,2.9424,2.9793,2.9878,2.9891,2.9891,2.9891,2.9891,2.9891,2.9891,2.9891,3.0714,3.2602,3.3812,3.5624,3.8225,3.9437,4.0388,4.1102,4.0864,4.0735,4.0735,4.0992,4.1102,4.1102,4.1357,4.1807,4.2377,4.2671,4.3227,4.3927,4.3927,4.3935,4.3965,4.3965,4.3867,4.3711,4.3711,4.3711,4.3711,4.3711,4.3711,4.3711,4.3711,4.3711,4.3711,4.3711,4.3711,4.3918,4.5006,4.5799,4.6305,4.6305,4.8322,5.0498,5.1158,5.2584,5.3755,5.3582,5.3312,5.3041,5.2849,5.2518,5.2392,5.2623,5.2786,5.3058,5.3508,5.3813,5.4206,5.4806,5.5193,5.5516,5.5867,5.6093,5.62,5.62,5.62,5.6426,5.696,5.6985,5.7079,5.7248,5.7983,5.8384,5.8384,5.8911,5.9307,5.9483,5.9483,5.9483,5.9483,5.9483,5.9483,1.4814,1.6009,1.7391,1.7963,1.8988,2.0269,2.1852,2.2188,2.2595,2.4108,2.4344,2.4438,2.49,2.5524,2.6185,2.6714,2.7808,2.8689,2.8961,2.953,2.9891,2.9891,2.9891,2.9891,2.9891,2.9891,2.9891,2.9891,3.0459,3.1612,3.3483,3.5364,3.7225,3.9118,4.043,4.1047,4.0919,4.0644,4.0442,4.0313,4.0842,4.1089,4.111,4.1533,4.2049,4.2631,4.2964,4.326,4.3496,4.3496,4.3496,4.3516,4.3652,4.3711,4.3711,4.3711,4.3711,4.3711,4.3711,4.3711,4.3711,4.3711,4.3711,4.3711,4.3711,4.3711,4.4062,4.5819,4.6667,4.7208,4.7726,4.9582,5.1428,5.1969,5.2963,5.3803,5.3803,5.3558,5.3336,5.3336,5.3004,5.2856,5.315,5.3388,5.3735,5.4243,5.4532,5.4927,5.5555,5.5641,5.5792,5.615,5.62,5.62,5.62,5.6351,5.6702,5.7255,5.7455,5.7656,5.7901,5.8579,5.8861,5.871,5.9232,5.9483,5.9483,5.9483,5.9483,5.9483,5.9483,5.9483,1.5902,1.6776,1.7908,1.9096,2.001,2.126,2.3661,2.3694,2.3828,2.5975,2.6179,2.5998,2.5998,2.5998,2.6179,2.6714,2.7808,2.8689,2.8961,2.9517,2.9891,2.9891,2.9891,2.9891,2.9891,2.9891,2.9891,2.9891,3.162,3.3512,3.5391,3.7268,3.9143,4.1039,4.1102,4.0901,4.0494,4.0515,4.0295,3.9932,4.0727,4.1099,4.1118,4.153,4.2216,4.3109,4.3109,4.3086,4.3106,4.3106,4.3106,4.3145,4.3535,4.3711,4.3711,4.3711,4.3711,4.3711,4.3711,4.3711,4.3711,4.3711,4.3711,4.3711,4.3711,4.3711,4.4083,4.584,4.7527,4.9209,5.0888,5.1313,5.1758,5.3403,5.3803,5.3803,5.3803,5.3803,5.3803,5.3803,5.3803,5.3803,5.3822,5.4459,5.5004,5.5004,5.5687,5.62,5.62,5.62,5.62,5.62,5.62,5.62,5.62,5.6702,5.7255,5.7851,5.8384,5.8459,5.7951,5.893,5.9257,5.871,5.9232,5.9483,5.9483,5.9483,5.9483,5.9483,5.9483,5.9483,1.5385,1.6747,1.8357,1.9133,2.1002,2.3003,2.4441,2.4617,2.4943,2.6687,2.6774,2.656,2.656,2.656,2.6694,2.7088,2.7817,2.8478,2.8943,2.9366,2.9686,2.9864,2.9891,2.9891,2.9891,2.9726,2.9619,2.9619,3.1111,3.2794,3.4635,3.6458,3.8439,4.0618,4.068,4.0604,4.0494,4.0221,4.0163,4.0319,4.0553,4.0838,4.1138,4.2193,4.2839,4.313,4.3401,4.3374,4.3106,4.3106,4.3106,4.3145,4.3535,4.3711,4.3711,4.3711,4.3711,4.3711,4.3711,4.3711,4.3711,4.3711,4.3711,4.3711,4.3711,4.4556,4.588,4.7567,4.9268,5.0946,5.2622,5.3058,5.3195,5.3691,5.3803,5.3803,5.3803,5.3803,5.3803,5.3803,5.3803,5.3972,5.4558,5.4837,5.5189,5.5761,5.6054,5.62,5.62,5.62,5.62,5.62,5.62,5.62,5.62,5.6702,5.7255,5.7851,5.8384,5.8786,5.9006,5.9332,5.9433,5.9282,5.9408,5.9483,5.9483,5.9483,5.9483,5.9483,5.9483,5.9483,1.6818,1.8191,1.9694,2.0807,2.2444,2.4156,2.5595,2.601,2.6374,2.7442,2.7302,2.7028,2.7148,2.7081,2.7094,2.7409,2.7957,2.8519,2.8943,2.917,2.9419,2.9713,2.9611,2.9544,2.9544,2.9406,2.9606,3.0314,3.1856,3.3557,3.5388,3.7204,3.8834,4.0217,4.0258,4.0164,3.9978,3.9944,3.9925,4.0038,4.0697,4.1142,4.1427,4.2571,4.3192,4.3319,4.3217,4.3047,4.2812,4.2812,4.2812,4.2871,4.3476,4.3711,4.3711,4.3711,4.3711,4.3711,4.3711,4.3711,4.3711,4.3711,4.3711,4.3835,4.4515,4.5474,4.6787,4.9131,5.0517,5.1701,5.3365,5.3803,5.3803,5.3803,5.3803,5.3803,5.3803,5.3803,5.386,5.401,5.3916,5.4047,5.4874,5.5004,5.5226,5.5871,5.6109,5.62,5.62,5.62,5.62,5.62,5.6401,5.6527,5.6527,5.723,5.7832,5.8183,5.871,5.9156,5.9483,5.9483,5.9483,5.9483,5.9483,5.9483,5.9483,5.9483,5.9483,5.9483,5.9483,5.9483,1.917,2.032,2.1441,2.3315,2.4128,2.4943,2.6861,2.7489,2.777,2.8085,2.7724,2.7409,2.7655,2.7502,2.7422,2.7696,2.8203,2.8671,2.8943,2.8961,2.909,2.9406,2.9183,2.9001,2.9001,2.8975,2.9715,3.1517,3.3305,3.5085,3.6894,3.8763,3.9781,3.9856,3.9856,3.9632,3.9186,3.9607,3.9681,3.9427,4.0994,4.1778,4.1877,4.2765,4.3339,4.3652,4.2773,4.2421,4.246,4.2421,4.2441,4.2538,4.3379,4.3711,4.3711,4.3711,4.3711,4.3711,4.3711,4.3711,4.3711,4.3711,4.3711,4.4021,4.5758,4.6426,4.7188,5.0401,5.1409,5.1892,5.3403,5.3803,5.3803,5.3803,5.3803,5.3803,5.3803,5.3803,5.3916,5.4266,5.4085,5.4103,5.4874,5.5041,5.5189,5.5595,5.6031,5.6276,5.6276,5.6276,5.6276,5.6276,5.6728,5.6985,5.6985,5.8052,5.8704,5.871,5.9207,5.9483,5.9483,5.9483,5.9483,5.9483,5.9483,5.9483,5.9483,5.9483,5.9483,5.9483,5.9483,5.9483,1.7914,1.9447,2.1234,2.3236,2.4995,2.644,2.7128,2.7329,2.7462,2.7756,2.7696,2.7629,2.7682,2.7642,2.773,2.8045,2.8192,2.8371,2.8657,2.8676,2.8783,2.9077,2.9041,2.9001,2.9001,2.881,2.94,3.1183,3.2741,3.4379,3.615,3.792,3.9023,3.9335,3.9335,3.9298,3.9186,3.9305,3.9651,4.0255,4.0986,4.1657,4.23,4.3177,4.3628,4.3652,4.2773,4.2597,4.291,4.2538,4.2637,4.3008,4.3496,4.3711,4.3711,4.3711,4.3711,4.3711,4.3711,4.3711,4.3711,4.3711,4.3711,4.4021,4.5758,4.7228,4.8678,5.0733,5.2236,5.3346,5.3709,5.3803,5.3803,5.3803,5.3803,5.3803,5.3803,5.3803,5.3822,5.3916,5.4122,5.444,5.493,5.5263,5.5613,5.6017,5.6497,5.6828,5.6828,5.6828,5.6828,5.6828,5.6935,5.6985,5.6985,5.8058,5.8685,5.871,5.9207,5.9483,5.9483,5.9483,5.9483,5.9483,5.9483,5.9483,5.9483,5.9483,5.9483,5.9483,5.9483,5.9483,1.8492,2.0182,2.2001,2.4047,2.5583,2.6694,2.6987,2.7181,2.7288,2.7281,2.7388,2.7516,2.7516,2.7602,2.7749,2.793,2.8098,2.8286,2.8564,2.8505,2.8519,2.8783,2.8698,2.8604,2.8604,2.8492,2.9487,3.2066,3.2958,3.4538,3.7112,3.8105,3.8692,3.8911,3.8911,3.8911,3.8911,3.933,3.9768,4.0224,4.108,4.1923,4.2754,4.2968,4.3065,4.3026,4.2382,4.2363,4.2754,4.2499,4.2676,4.3145,4.3535,4.3711,4.3711,4.3711,4.3711,4.3711,4.3711,4.3711,4.3711,4.3711,4.4268,4.5251,4.6988,4.8678,5.0342,5.2026,5.3138,5.3803,5.3803,5.3803,5.3803,5.3803,5.3803,5.3803,5.3803,5.3803,5.3916,5.4291,5.4403,5.4663,5.5448,5.5761,5.5962,5.6182,5.6652,5.6985,5.6985,5.7255,5.733,5.7035,5.7506,5.7706,5.7455,5.8434,5.9062,5.9062,5.9357,5.9483,5.9483,5.9483,5.9483,5.9483,5.9483,5.9483,5.9483,5.9483,5.9483,5.9483,5.9483,5.9483,1.9011,2.0982,2.2869,2.4791,2.5758,2.6319,2.66,2.6887,2.7008,2.6787,2.6987,2.7208,2.7208,2.7409,2.7575,2.7682,2.793,2.8219,2.8484,2.8353,2.8286,2.8497,2.8339,2.82,2.82,2.82,2.9642,3.3151,3.3397,3.4904,3.8421,3.86,3.86,3.86,3.86,3.864,3.8719,3.943,3.9863,4.002,4.115,4.2109,4.2872,4.2402,4.2304,4.248,4.2012,4.2031,4.2402,4.2402,4.2676,4.3145,4.3535,4.3711,4.3711,4.3711,4.3711,4.3711,4.3711,4.3711,4.3711,4.3711,4.4883,4.6606,4.8282,4.9973,5.1639,5.3327,5.3803,5.3803,5.3803,5.3803,5.3822,5.3897,5.386,5.3822,5.3897,5.386,5.4047,5.4837,5.4794,5.4985,5.6143,5.6251,5.6251,5.6451,5.6878,5.7204,5.7286,5.7732,5.7851,5.7355,5.8158,5.851,5.8077,5.893,5.9483,5.9483,5.9483,5.9483,5.9483,5.9483,5.9483,5.9483,5.9483,5.9483,5.9483,5.9483,5.9483,5.9483,5.9483,5.9483,1.6951,1.9767,2.2722,2.403,2.501,2.5705,2.6018,2.6145,2.6238,2.64,2.668,2.686,2.686,2.6887,2.7087,2.7615,2.7736,2.7877,2.8205,2.8205,2.8226,2.8245,2.8205,2.82,2.82,2.82,2.9642,3.3151,3.3397,3.4904,3.8421,3.86,3.86,3.86,3.86,3.8798,3.9213,3.9331,3.9745,4.0431,4.0997,4.1523,4.1953,4.1562,4.1973,4.2969,4.2148,4.2031,4.2402,4.2402,4.2676,4.3145,4.3535,4.3711,4.3711,4.3711,4.3711,4.3711,4.3711,4.3711,4.3711,4.3711,4.4883,4.6606,4.8282,4.9973,5.1639,5.3327,5.3803,5.3803,5.3803,5.3803,5.3897,5.4253,5.4066,5.3897,5.4229,5.4066,5.4047,5.4837,5.5244,5.5762,5.6735,5.6502,5.6545,5.7524,5.7725,5.7951,5.8409,5.8535,5.856,5.8485,5.861,5.866,5.8585,5.9156,5.9483,5.9483,5.9483,5.9483,5.9483,5.9483,5.9483,5.9483,5.9483,5.9483,5.9483,5.9483,5.9483,5.9483,5.9483,5.9483,1.7847,1.9938,2.1924,2.3923,2.4591,2.4983,2.581,2.5844,2.5745,2.5865,2.6132,2.6406,2.6547,2.6687,2.6887,2.7141,2.7348,2.7516,2.767,2.7697,2.7697,2.7697,2.7831,2.83,2.9284,2.9557,3.1105,3.4599,3.4863,3.5951,3.8461,3.86,3.86,3.86,3.8857,3.9095,3.9312,3.9746,4.0275,4.088,4.1113,4.1406,4.1777,4.1387,4.1504,4.2012,4.1641,4.168,4.207,4.2304,4.2676,4.3145,4.3535,4.3711,4.3711,4.3711,4.3711,4.3711,4.3711,4.3711,4.3711,4.3711,4.5515,4.7826,4.8579,5.0637,5.285,5.3572,5.3803,5.3803,5.3803,5.3803,5.3841,5.4029,5.4103,5.4253,5.4645,5.4421,5.4457,5.5559,5.6116,5.6606,5.7368,5.7305,5.7223,5.738,5.7932,5.8309,5.8278,5.878,5.9012,5.8736,5.8961,5.9012,5.8736,5.9207,5.9483,5.9483,5.9483,5.9483,5.9483,5.9483,5.9483,5.9483,5.9483,5.9483,5.9483,5.9483,5.9483,5.9483,5.9483,5.9483,1.7889,1.9332,2.0561,2.2892,2.3737,2.4275,2.539,2.5524,2.5451,2.5598,2.5764,2.5951,2.6246,2.652,2.6714,2.6794,2.7001,2.7195,2.7296,2.7309,2.7309,2.7309,2.7832,2.8764,3.0168,3.0901,3.2607,3.5756,3.5994,3.6755,3.8501,3.86,3.864,3.8778,3.9134,3.941,3.9588,4.0314,4.086,4.1191,4.1191,4.1367,4.1621,4.1328,4.1191,4.1191,4.1074,4.1191,4.1523,4.2031,4.2461,4.2833,4.3457,4.3711,4.3711,4.3711,4.3711,4.3711,4.3711,4.3711,4.3753,4.4227,4.6365,4.8875,4.9307,5.1466,5.3803,5.3803,5.3803,5.3803,5.3803,5.3803,5.386,5.4047,5.4272,5.4515,5.4911,5.4924,5.5115,5.6024,5.6632,5.7204,5.7801,5.7901,5.7801,5.7462,5.8158,5.856,5.8133,5.893,5.9357,5.8936,5.9257,5.9332,5.8936,5.9282,5.9483,5.9483,5.9483,5.9483,5.9483,5.9483,5.9483,5.9483,5.9483,5.9483,5.9483,5.9483,5.9483,5.9483,5.9483,5.9483,1.5273,1.686,1.8517,2.005,2.1891,2.3572,2.4466,2.4917,2.5283,2.585,2.5738,2.5625,2.5957,2.6232,2.6507,2.6754,2.682,2.6947,2.7269,2.7309,2.7309,2.7309,2.8665,2.9792,3.0255,3.1752,3.3613,3.5819,3.5994,3.6755,3.8501,3.86,3.8798,3.9253,3.9292,3.9667,4.0431,4.0919,4.1172,4.1191,4.1191,4.1211,4.123,4.1211,4.1191,4.1172,4.0742,4.0547,4.0645,4.1484,4.1855,4.1992,4.3223,4.3711,4.3711,4.3711,4.3711,4.3711,4.3711,4.3711,4.3959,4.5616,4.7368,4.9091,5.0695,5.2389,5.3803,5.3803,5.3803,5.3803,5.3803,5.3803,5.3991,5.4762,5.4663,5.4515,5.4911,5.5595,5.6017,5.5694,5.6375,5.7204,5.7801,5.7901,5.8052,5.8535,5.866,5.8685,5.866,5.9156,5.9483,5.9458,5.9483,5.9483,5.9458,5.9483,5.9483,5.9483,5.9483,5.9483,5.9483,5.9483,5.9483,5.9483,5.9483,5.9483,5.9483,5.9483,5.9483,5.9483,5.9483,5.9483,1.5072,1.6259,1.7609,1.9478,2.092,2.2161,2.326,2.4168,2.4831,2.5064,2.5298,2.5545,2.5651,2.5938,2.6219,2.6493,2.6547,2.6587,2.6714,2.6727,2.6727,2.6727,2.8329,3.0037,3.1569,3.3386,3.5361,3.7494,3.7669,3.7946,3.856,3.8897,3.9134,3.9292,3.9785,4.0334,4.0938,4.1113,4.1191,4.1191,4.1191,4.1191,4.1191,4.1191,4.1191,4.1191,4.1035,4.1094,4.1367,4.168,4.2129,4.2715,4.3418,4.3711,4.3711,4.3711,4.3711,4.3711,4.3711,4.3711,4.398,4.5738,4.7448,4.9111,5.0791,5.2465,5.3803,5.3803,5.3803,5.3803,5.3803,5.3991,5.4403,5.5183,5.5528,5.5775,5.6209,5.6524,5.6891,5.7469,5.7863,5.8259,5.883,5.893,5.888,5.871,5.8987,5.9106,5.8736,5.9182,5.9483,5.9483,5.9483,5.9483,5.9483,5.9483,5.9483,5.9483,5.9483,5.9483,5.9483,5.9483,5.9483,5.9483,5.9483,5.9483,5.9483,5.9483,5.9483,5.9483,5.9483,5.9483,1.4581,1.5658,1.6981,1.8758,1.9867,2.0951,2.2546,2.3491,2.4137,2.4519,2.5005,2.5398,2.5472,2.5678,2.5925,2.6219,2.6339,2.6406,2.6406,2.6406,2.6406,2.6406,2.8637,3.0788,3.2336,3.479,3.6924,3.8484,3.86,3.86,3.86,3.9055,3.943,3.9687,4.0353,4.088,4.1191,4.1191,4.1191,4.1191,4.1191,4.1191,4.1191,4.1035,4.1054,4.1191,4.1035,4.1211,4.1621,4.1894,4.2344,4.291,4.3476,4.3711,4.3711,4.3711,4.3711,4.3711,4.3711,4.3711,4.4083,4.6385,4.7885,4.9209,5.1447,5.2906,5.3803,5.3803,5.4036,5.4294,5.4294,5.4829,5.5482,5.5862,5.6433,5.7019,5.7456,5.743,5.7531,5.8284,5.8585,5.8811,5.9182,5.9382,5.9332,5.8786,5.9156,5.9307,5.8761,5.9182,5.9483,5.9483,5.9483,5.9483,5.9483,5.9483,5.9483,5.9483,5.9483,5.9483,5.9483,5.9483,5.9483,5.9483,5.9483,5.9483,5.9483,5.9483,5.9483,5.9483,5.9483,5.9483,0.0,0.0,0.0,1.7662,1.8624,1.9936,2.2238,2.2786,2.3144,2.4311,2.4805,2.5149,2.5432,2.5499,2.5611,2.5944,2.6219,2.6393,2.6406,2.6406,2.6386,2.6419,2.966,3.2061,3.2471,3.585,3.8162,3.8563,3.86,3.86,3.86,3.9055,3.9687,4.049,4.0958,4.1191,4.1191,4.1191,4.1191,4.1191,4.1191,4.1191,4.1152,4.0723,4.0762,4.1172,4.0723,4.082,4.1308,4.207,4.2421,4.2519,4.3379,4.3711,4.3711,4.3711,4.3711,4.3711,4.3711,4.3731,4.433,4.7706,4.8836,4.9484,5.2793,5.3803,5.3803,5.3827,5.4533,5.5286,5.5348,5.6302,5.7171,5.6734,5.7316,5.8077,5.8585,5.8284,5.7951,5.7951,5.8378,5.8736,5.8736,5.9156,5.9332,5.8786,5.9182,5.9307,5.8786,5.9182,5.9483,5.9483,5.9483,5.9483,5.9483,5.9483,5.9483,5.9483,5.9483,5.9483,5.9483,5.9483,5.9483,5.9483,5.9483,5.9483,5.9483,5.9483,5.9483,5.9483,5.9483,5.9483,1.4018,0.0,0.0,0.0,0.0,0.0,1.9117,2.0185,2.1416,2.3037,2.3594,2.415,2.5285,2.5499,2.5611,2.5944,2.6065,2.6165,2.6379,2.6406,2.6466,2.668,2.9774,3.2157,3.2802,3.5987,3.8162,3.8563,3.86,3.86,3.86,3.9312,4.0118,4.0997,4.1133,4.1191,4.1191,4.1191,4.1191,4.1191,4.1191,4.1035,4.0684,4.0567,4.0762,4.1211,4.1367,4.1875,4.2559,4.2441,4.2773,4.3358,4.3613,4.3711,4.3711,4.3711,4.3711,4.3711,4.3711,4.4515,4.5941,4.8104,4.9621,5.1004,5.3157,5.3803,5.3875,5.426,5.4572,5.5036,5.5996,5.6521,5.693,5.7404,5.8032,5.851,5.866,5.8905,5.9056,5.9056,5.9182,5.9282,5.9282,5.9408,5.9433,5.9307,5.9408,5.9433,5.9307,5.9408,5.9483,5.9483,5.9483,5.9483,5.9483,5.9483,5.9483,5.9483,5.9483,5.9483,5.9483,5.9483,5.9483,5.9483,5.9483,5.9483,5.9483,5.9483,5.9483,5.9483,5.9483,5.9483,0.0,0.0,0.0,1.6633,0.0,0.0,1.8649,1.941,2.0334,2.201,2.2769,2.3434,2.4404,2.4778,2.5104,2.5537,2.5711,2.5898,2.6192,2.6106,2.6172,2.6567,2.9803,3.2263,3.2929,3.6177,3.8343,3.8582,3.86,3.8758,3.9114,3.9784,4.047,4.1172,4.1191,4.1191,4.1191,4.1191,4.1191,4.1191,4.1191,4.0937,4.0508,4.0508,4.0762,4.1211,4.1641,4.2285,4.3087,4.2988,4.3222,4.3711,4.3711,4.3711,4.3711,4.3711,4.3711,4.3711,4.3711,4.4842,4.6566,4.8262,4.9934,5.1601,5.329,5.3803,5.39,5.4447,5.5043,5.579,5.6987,5.7423,5.7693,5.8191,5.8671,5.9037,5.9037,5.9282,5.9483,5.9483,5.9483,5.9483,5.9483,5.9483,5.9483,5.9483,5.9483,5.9483,5.9483,5.9483,5.9483,5.9483,5.9483,5.9483,5.9483,5.9483,5.9483,5.9483,5.9483,5.9483,5.9483,5.9483,5.9483,5.9483,5.9483,5.9483,5.9483,5.9483,5.9483,5.9483,5.9483,5.9483,0.0,0.0,0.0,0.0,1.7849,0.0,1.9358,1.9452,1.9575,2.0927,2.185,2.2529,2.2936,2.3496,2.4075,2.4628,2.5064,2.5518,2.5984,2.5791,2.5812,2.6373,2.9635,3.211,3.2862,3.6122,3.8292,3.8507,3.8566,3.8943,3.973,4.0198,4.0647,4.1113,4.1172,4.1191,4.1191,4.1191,4.1191,4.1191,4.1191,4.0937,4.0508,4.0547,4.084,4.1289,4.168,4.2363,4.3204,4.3555,4.3711,4.3711,4.3711,4.3711,4.3711,4.3711,4.373,4.3789,4.3789,4.5045,4.6891,4.8389,5.0095,5.1873,5.3346,5.3851,5.402,5.4597,5.5815,5.7121,5.8045,5.8619,5.8901,5.8965,5.9256,5.9483,5.9483,5.9483,5.9483,5.9483,5.9483,5.9483,5.9483,5.9483,5.9483,5.9483,5.9483,5.9483,5.9483,5.9483,5.9483,5.9483,5.9483,5.9483,5.9483,5.9483,5.9483,5.9483,5.9483,5.9483,5.9483,5.9483,5.9483,5.9483,5.9483,5.9483,5.9483,5.9483,5.9483,5.9483,5.9483,5.9533,0.0,0.0,0.0,0.0,1.7822,0.0,1.6955,1.7328,1.809,1.8596,1.9052,1.9734,2.0978,2.1703,2.2144,2.2251,2.3505,2.489,2.6152,2.6272,2.6346,2.6674,2.8676,3.0656,3.2348,3.446,3.6377,3.799,3.8418,3.8698,3.8917,3.9625,4.0202,4.0625,4.1015,4.1191,4.1191,4.1191,4.1191,4.1191,4.1191,4.0937,4.0508,4.0879,4.1289,4.1699,4.2109,4.2793,4.3594,4.3672,4.3711,4.3711,4.3711,4.3711,4.3711,4.3711,4.3945,4.4258,4.4258,4.625,4.8844,4.9185,5.111,5.3365,5.3709,5.4092,5.4645,5.563,5.6646,5.7588,5.8143,5.8619,5.8979,5.9314,5.9425,5.9483,5.9483,5.9483,5.9483,5.9483,5.9483,5.9483,5.9483,5.9483,5.9483,5.9483,5.9483,5.9483,5.9483,5.9483,5.9483,5.9483,5.9483,5.9483,5.9483,5.9483,5.9483,5.9483,5.9483,5.9483,5.9483,5.9483,5.9483,5.9483,5.9483,5.9483,5.9483,5.9483,5.9483,5.9483,5.9483,5.9734,0.0,0.0,0.0,1.833,0.0,0.0,0.0,1.7595,1.7809,1.8557,1.8463,1.8663,2.0,2.0496,2.09,2.1505,2.2809,2.395,2.4561,2.5398,2.6119,2.656,2.816,2.9754,3.1025,3.349,3.5823,3.784,3.8398,3.8727,3.8937,3.9547,4.0083,4.0489,4.0742,4.0957,4.1191,4.1191,4.1191,4.1191,4.1191,4.0937,4.0528,4.0996,4.1426,4.1816,4.2226,4.289,4.3711,4.3711,4.3711,4.3711,4.3711,4.3711,4.3711,4.3711,4.4004,4.4394,4.4394,4.6784,4.9743,4.9503,5.1754,5.4496,5.3948,5.4356,5.5207,5.6221,5.7021,5.773,5.8443,5.875,5.9004,5.9386,5.9483,5.9483,5.9483,5.9483,5.9483,5.9483,5.9483,5.9483,5.9483,5.9483,5.9483,5.9483,5.9483,5.9483,5.9483,5.9483,5.9483,5.9483,5.9483,5.9483,5.9483,5.9483,5.9483,5.9483,5.9483,5.9483,5.9483,5.9483,5.9483,5.9483,5.9483,5.9483,5.9483,5.9784,5.991,5.991,6.0211,6.0487,0.0,0.0,0.0,0.0,0.0,1.885,0.0,0.0,0.0,1.8665,1.8236,1.8076,1.9105,1.9306,1.9614,2.0594,2.1844,2.2575,2.2181,2.3728,2.5117,2.5671,2.7117,2.8424,2.9355,3.2181,3.4905,3.7135,3.7539,3.8065,3.8915,3.9482,3.9922,4.0235,4.041,4.0664,4.1054,4.1152,4.1191,4.1191,4.1191,4.1015,4.0645,4.1113,4.1543,4.1953,4.2343,4.2968,4.3711,4.3711,4.3711,4.3711,4.3711,4.3711,4.3711,4.3711,4.4043,4.4512,4.4512,4.6843,4.9796,4.9709,5.2277,5.5265,5.4477,5.4919,5.5844,5.6707,5.7389,5.8006,5.8731,5.8965,5.9101,5.9405,5.9483,5.9483,5.9483,5.9483,5.9483,5.9483,5.9483,5.9483,5.9483,5.9483,5.9483,5.9483,5.9483,5.9483,5.9483,5.9483,5.9483,5.9483,5.9483,5.9483,5.9483,5.9483,5.9483,5.9483,5.9483,5.9483,5.9483,5.9483,5.9533,5.9659,5.9659,5.9709,5.9834,6.0387,6.0518,6.0317,6.0914,6.126,0.0,0.0,0.0,1.995,2.0681,2.104,1.7742,0.0,1.8063,1.6899,0.0,1.6981,1.7421,0.0,0.0,1.7675,1.9305,2.0264,1.9464,2.132,2.2899,2.3237,2.4152,2.5548,2.759,2.932,3.1559,3.4576,3.4324,3.5217,3.7975,3.886,3.9297,3.9355,4.0098,4.0528,4.0567,4.0996,4.1191,4.1191,4.1191,4.1172,4.1133,4.1543,4.1953,4.2363,4.2812,4.3262,4.3711,4.3711,4.3711,4.3711,4.3711,4.3711,4.3711,4.3711,4.4217,4.494,4.494,4.647,4.8672,5.0231,5.2851,5.5458,5.5823,5.6245,5.677,5.7349,5.8114,5.8789,5.8862,5.9154,5.9425,5.9508,5.9483,5.9483,5.9483,5.9483,5.9483,5.9483,5.9483,5.9483,5.9483,5.9483,5.9483,5.9483,5.9483,5.9483,5.9483,5.9483,5.9483,5.9483,5.9483,5.9483,5.9483,5.9483,5.9483,5.9483,5.9483,5.9483,5.9483,5.9483,5.9734,6.0191,6.0217,6.0487,6.1009,6.1542,6.1291,6.0317,6.0914,6.1441,0.0,2.174,2.2024,2.0525,2.0641,2.0557,1.8463,1.7983,1.7903,1.7622,0.0,0.0,0.0,0.0,0.0,0.0,1.8424,1.8957,1.825,1.9424,2.0815,2.1997,2.2743,2.411,2.6518,2.7165,2.9105,3.3176,3.296,3.409,3.7432,3.8152,3.8673,3.918,3.9824,4.0254,4.0508,4.0976,4.1191,4.1191,4.1191,4.1191,4.1211,4.1621,4.2031,4.2441,4.2911,4.3341,4.3711,4.3711,4.3711,4.3711,4.3711,4.3711,4.3711,4.3711,4.4237,4.4998,4.4998,4.7305,5.0709,5.3517,5.4897,5.5592,5.6675,5.6915,5.7019,5.805,5.8633,5.8965,5.9198,5.9372,5.9483,5.9483,5.9483,5.9483,5.9483,5.9483,5.9483,5.9483,5.9483,5.9483,5.9483,5.9483,5.9483,5.9483,5.9483,5.9483,5.9483,5.9483,5.9483,5.9483,5.9483,5.9483,5.9483,5.9483,5.9483,5.9483,5.9483,5.9483,5.9483,5.9483,5.9759,6.0292,6.0292,6.0613,6.121,6.1743,6.1768,6.1296,6.1868,6.225,2.2031,2.2205,2.2365,2.0909,2.0492,2.0104,1.8837,1.8303,1.8143,1.833,1.7929,0.0,0.0,0.0,1.7181,1.7542,0.0,1.8023,1.7341,1.7943,1.8998,2.0565,2.1593,2.2946,2.4859,2.4566,2.639,3.1479,3.1109,3.2583,3.7062,3.7598,3.8144,3.9004,3.959,4.0039,4.0332,4.0918,4.1191,4.1191,4.1191,4.1191,4.1211,4.1621,4.2031,4.2441,4.2911,4.3341,4.3711,4.3711,4.3711,4.3711,4.3711,4.3711,4.3711,4.3711,4.4237,4.4998,4.4998,4.7956,5.2203,5.5264,5.6152,5.6201,5.7294,5.7477,5.7584,5.8607,5.8979,5.914,5.9405,5.9483,5.9483,5.9483,5.9483,5.9483,5.9483,5.9483,5.9483,5.9483,5.9483,5.9483,5.9483,5.9483,5.9483,5.9483,5.9483,5.9483,5.9483,5.9483,5.9483,5.9483,5.9483,5.9483,5.9483,5.9483,5.9483,5.9483,5.9633,5.9709,5.9709,5.9885,6.0211,6.0744,6.0769,6.1045,6.1642,6.2044,6.222,6.2225,6.2626,6.2802,2.3563,2.3852,2.3825,2.0931,2.0653,2.0468,1.817,1.8518,1.9093,1.8209,1.8903,1.9533,1.897,1.8369,0.0,0.0,1.7608,0.0,0.0,1.6872,1.7595,1.8491,2.0391,2.1762,2.2087,2.1065,2.2921,2.9055,2.7926,2.9994,3.693,3.7305,3.7733,3.8592,3.9434,3.9902,3.9922,4.0761,4.1191,4.1191,4.1191,4.1191,4.1211,4.1621,4.2031,4.2441,4.2911,4.3341,4.3711,4.3711,4.3711,4.3711,4.3711,4.3711,4.3711,4.3711,4.4237,4.4998,4.4998,4.7956,5.2015,5.3793,5.5825,5.7548,5.7592,5.8178,5.8842,5.8881,5.9198,5.9463,5.9483,5.9483,5.9483,5.9483,5.9483,5.9483,5.9483,5.9483,5.9483,5.9483,5.9483,5.9483,5.9483,5.9483,5.9483,5.9483,5.9483,5.9483,5.9483,5.9483,5.9483,5.9483,5.9483,5.9483,5.9483,5.9483,5.9483,5.9483,6.001,6.0267,6.0267,6.0839,6.1411,6.1943,6.1943,6.2199,6.2752,6.2777,6.2756,6.2756,6.2802,6.2802,2.4266,2.4671,2.4631,2.2255,2.1683,2.1122,1.8944,1.8945,1.9119,1.8196,1.8957,1.9559,1.8784,1.8289,0.0,0.0,0.0,1.6846,0.0,1.6632,1.698,1.7275,1.8798,1.9853,1.9932,2.0828,2.3067,2.7099,2.8129,3.0783,3.5775,3.6836,3.7695,3.8573,3.9452,4.0019,4.0293,4.0898,4.1191,4.1191,4.1191,4.1191,4.1211,4.1894,4.2265,4.2441,4.3183,4.3574,4.3711,4.3711,4.3711,4.3711,4.3711,4.3711,4.3711,4.3711,4.4082,4.5005,4.7962,5.016,5.2244,5.5443,5.6973,5.769,5.83,5.8672,5.8965,5.9212,5.9411,5.9483,5.9483,5.9483,5.9483,5.9483,5.9483,5.9483,5.9483,5.9483,5.9483,5.9483,5.9483,5.9483,5.9483,5.9483,5.9483,5.9483,5.9483,5.9483,5.9483,5.9483,5.9483,5.9483,5.9483,5.9483,5.9483,5.9483,5.9483,5.9483,5.9991,6.0292,6.0292,6.0864,6.1441,6.1994,6.1994,6.225,6.2802,6.2802,6.2802,6.2802,6.2802,6.2802,2.4858,2.5125,2.5045,2.3189,2.2588,2.1924,1.9838,1.9867,2.0028,1.8997,1.9506,2.0015,1.9682,1.889,1.8236,0.0,0.0,0.0,0.0,1.6366,1.6566,1.6566,1.7742,1.8901,1.971,2.0497,2.27,2.6876,2.7982,3.0419,3.4914,3.623,3.7383,3.8553,3.9452,4.0098,4.0508,4.0976,4.1191,4.1191,4.1191,4.1191,4.1211,4.1894,4.2187,4.2226,4.3105,4.3476,4.3496,4.3633,4.3711,4.3711,4.3711,4.3711,4.3711,4.3711,4.4101,4.5214,4.929,5.1156,5.2305,5.5917,5.7327,5.773,5.8457,5.8789,5.8979,5.9386,5.9483,5.9483,5.9483,5.9483,5.9483,5.9483,5.9483,5.9483,5.9483,5.9483,5.9483,5.9483,5.9483,5.9483,5.9483,5.9483,5.9483,5.9483,5.9483,5.9483,5.9483,5.9483,5.9483,5.9483,5.9483,5.9483,5.9483,5.9483,5.9583,5.9784,6.0311,6.0713,6.0894,6.1466,6.1943,6.2275,6.2275,6.245,6.2802,6.2802,6.2802,6.2802,6.2802,6.2927]}]]